[[{"header":{"parameterUnit":"m.s-1","parameterCategory":1,"la1":30.6,"la2":28.766,"lo1":-90.7593,"lo2":-88.6598,"dy":0.0162,"dx":0.0183,"nx":116,"ny":114,"refTime":"2024-06-09T00:00:00:Z","depth":0,"parameterNumber":2,"parameterNumberName":"U-component_of_WINDS"},"data":[0.0,0.0,0.0,0.0,0.0,0.0,0.0,0.0,0.0,0.0,0.0,0.0,0.0,0.0,0.0,0.0,0.0,0.0,0.0,0.0,0.0,0.0,0.0,0.0,0.0,0.0,0.0,0.0,0.0,0.0,0.0,0.0,0.0,0.0,0.0,0.0,0.0,0.0,0.0,0.0,0.0,0.0,0.0,0.0,0.0,0.0,0.0,0.0,0.0,0.0,0.0,0.0,0.0,0.0,0.0,0.0,0.0,0.0,0.0,0.0,0.0,0.0,0.0,0.0,0.0,0.0,0.0,0.0,0.0,0.0,0.0,0.0,0.0,0.0,0.0,0.0,0.0,0.0,0.0,0.0,0.0,0.0,0.0,0.0,0.0,0.0,0.0,0.0,0.0,0.0,0.0,0.0,0.0,0.0,0.0,0.0,0.0,0.0,0.0,0.0,0.0,0.0,0.0,0.0,0.0,0.0,0.0,0.0,0.0,0.0,0.0,0.0,0.0,0.0,0.0,0.0,0.0,0.0,0.0,0.0,0.0,0.0,0.0,0.0,0.0,0.0,0.0,0.0,0.0,0.0,0.0,0.0,0.0,0.0,0.0,0.0,0.0,0.0,0.0,0.0,0.0,0.0,0.0,0.0,0.0,0.0,0.0,0.0,0.0,0.0,0.0,0.0,0.0,0.0,0.0,0.0,0.0,0.0,0.0,0.0,0.0,0.0,0.0,0.0,0.0,0.0,0.0,0.0,0.0,0.0,0.0,0.0,0.0,0.0,0.0,0.0,0.0,0.0,0.0,0.0,0.0,0.0,0.0,0.0,0.0,0.0,0.0,0.0,0.0,0.0,0.0,0.0,0.0,0.0,0.0,0.0,0.0,0.0,0.0,0.0,0.0,0.0,0.0,0.0,0.0,0.0,0.0,0.0,0.0,0.0,0.0,0.0,0.0,0.0,0.0,0.0,0.0,0.0,0.0,0.0,0.0,0.0,0.0,0.0,0.0,0.0,0.0,0.0,0.0,0.0,0.0,0.0,0.0,0.0,0.0,0.0,0.0,0.0,0.0,0.0,0.0,0.0,0.0,0.0,0.0,0.0,0.0,0.0,0.0,0.0,0.0,0.0,0.0,0.0,0.0,0.0,0.0,0.0,0.0,0.0,0.0,0.0,0.0,0.0,0.0,0.0,0.0,0.0,0.0,0.0,0.0,0.0,0.0,0.0,0.0,0.0,0.0,0.0,0.0,0.0,0.0,0.0,0.0,0.0,0.0,0.0,0.0,0.0,0.0,0.0,0.0,0.0,0.0,0.0,0.0,0.0,0.0,0.0,0.0,0.0,0.0,0.0,0.0,0.0,0.0,0.0,0.0,0.0,0.0,0.0,0.0,0.0,0.0,0.0,0.0,0.0,0.0,0.0,0.0,0.0,0.0,0.0,0.0,0.0,0.0,0.0,0.0,0.0,0.0,0.0,0.0,0.0,0.0,0.0,0.0,0.0,0.0,0.0,0.0,0.0,0.0,0.0,0.0,0.0,0.0,0.0,0.0,0.0,0.0,0.0,0.0,0.0,0.0,0.0,0.0,0.0,0.0,0.0,0.0,0.0,0.0,0.0,0.0,0.0,0.0,0.0,0.0,0.0,0.0,0.0,0.0,0.0,0.0,0.0,0.0,0.0,0.0,0.0,0.0,0.0,0.0,0.0,0.0,0.0,0.0,0.0,0.0,0.0,0.0,0.0,0.0,0.0,0.0,0.0,0.0,0.0,0.0,0.0,0.0,0.0,0.0,0.0,0.0,0.0,0.0,0.0,0.0,0.0,0.0,0.0,0.0,0.0,0.0,0.0,0.0,0.0,0.0,0.0,0.0,0.0,0.0,0.0,0.0,0.0,0.0,0.0,0.0,0.0,0.0,0.0,0.0,0.0,0.0,0.0,0.0,0.0,0.0,0.0,0.0,0.0,0.0,0.0,0.0,0.0,0.0,0.0,0.0,0.0,0.0,0.0,0.0,0.0,0.0,0.0,0.0,0.0,0.0,0.0,0.0,0.0,0.0,0.0,0.0,0.0,0.0,0.0,0.0,0.0,0.0,0.0,0.0,0.0,0.0,0.0,0.0,0.0,0.0,0.0,0.0,0.0,0.0,0.0,0.0,0.0,0.0,0.0,0.0,0.0,0.0,0.0,0.0,0.0,0.0,0.0,0.0,0.0,0.0,0.0,0.0,0.0,0.0,0.0,0.0,0.0,0.0,0.0,0.0,0.0,0.0,0.0,0.0,0.0,0.0,0.0,0.0,0.0,0.0,0.0,0.0,0.0,0.0,0.0,0.0,0.0,0.0,0.0,0.0,0.0,0.0,0.0,0.0,0.0,0.0,0.0,0.0,0.0,0.0,0.0,0.0,0.0,0.0,0.0,0.0,0.0,0.0,0.0,0.0,0.0,0.0,0.0,0.0,0.0,0.0,0.0,0.0,0.0,0.0,0.0,0.0,0.0,0.0,0.0,0.0,0.0,0.0,0.0,0.0,0.0,0.0,0.0,0.0,0.0,0.0,0.0,0.0,0.0,0.0,0.0,0.0,0.0,0.0,0.0,0.0,0.0,0.0,0.0,0.0,0.0,0.0,0.0,0.0,0.0,0.0,0.0,0.0,0.0,0.0,0.0,0.0,0.0,0.0,0.0,0.0,0.0,0.0,0.0,0.0,0.0,0.0,0.0,0.0,0.0,0.0,0.0,0.0,0.0,0.0,0.0,0.0,0.0,0.0,0.0,0.0,0.0,0.0,0.0,0.0,0.0,0.0,0.0,0.0,0.0,0.0,0.0,0.0,0.0,0.0,0.0,0.0,0.0,0.0,0.0,0.0,0.0,0.0,0.0,0.0,0.0,0.0,0.0,0.0,0.0,0.0,0.0,0.0,0.0,0.0,0.0,0.0,0.0,0.0,0.0,0.0,0.0,0.0,0.0,0.0,0.0,0.0,0.0,0.0,0.0,0.0,0.0,0.0,0.0,0.0,0.0,0.0,0.0,0.0,0.0,0.0,0.0,0.0,0.0,0.0,0.0,0.0,0.0,0.0,0.0,0.0,0.0,0.0,0.0,0.0,0.0,0.0,0.0,0.0,0.0,0.0,0.0,0.0,0.0,0.0,0.0,0.0,0.0,0.0,0.0,0.0,0.0,0.0,0.0,0.0,0.0,0.0,0.0,0.0,0.0,0.0,0.0,0.0,0.0,0.0,0.0,0.0,0.0,0.0,0.0,0.0,0.0,0.0,0.0,0.0,0.0,0.0,0.0,0.0,0.0,0.0,0.0,0.0,0.0,0.0,0.0,0.0,0.0,0.0,0.0,0.0,0.0,0.0,0.0,0.0,0.0,0.0,0.0,0.0,0.0,0.0,0.0,0.0,0.0,0.0,0.0,0.0,0.0,0.0,0.0,0.0,0.0,0.0,0.0,0.0,0.0,0.0,0.0,0.0,0.0,0.0,0.0,0.0,0.0,0.0,0.0,0.0,0.0,0.0,0.0,0.0,0.0,0.0,0.0,0.0,0.0,0.0,0.0,0.0,0.0,0.0,0.0,0.0,0.0,0.0,0.0,0.0,0.0,0.0,0.0,0.0,0.0,0.0,0.0,0.0,0.0,0.0,0.0,0.0,0.0,0.0,0.0,0.0,0.0,0.0,0.0,0.0,0.0,0.0,0.0,0.0,0.0,0.0,0.0,0.0,0.0,0.0,0.0,0.0,0.0,0.0,0.0,0.0,0.0,0.0,0.0,0.0,0.0,0.0,0.0,0.0,0.0,0.0,0.0,0.0,0.0,0.0,0.0,0.0,0.0,0.0,0.0,0.0,0.0,0.0,0.0,0.0,0.0,0.0,0.0,0.0,0.0,0.0,0.0,0.0,0.0,0.0,0.0,0.0,0.0,0.0,0.0,0.0,0.0,0.0,0.0,0.0,0.0,0.0,0.0,0.0,0.0,0.0,0.0,0.0,0.0,0.0,0.0,0.0,0.0,0.0,0.0,0.0,0.0,0.0,0.0,0.0,0.0,0.0,0.0,0.0,0.0,0.0,0.0,0.0,0.0,0.0,0.0,0.0,0.0,0.0,0.0,0.0,0.0,0.0,0.0,0.0,0.0,0.0,0.0,0.0,0.0,0.0,0.0,0.0,0.0,0.0,0.0,0.0,0.0,0.0,0.0,0.0,0.0,0.0,0.0,0.0,0.0,0.0,0.0,0.0,0.0,0.0,0.0,0.0,0.0,0.0,0.0,0.0,0.0,0.0,0.0,0.0,0.0,0.0,0.0,0.0,0.0,0.0,0.0,0.0,0.0,0.0,0.0,0.0,0.0,0.0,0.0,0.0,0.0,0.0,0.0,0.0,0.0,0.0,0.0,0.0,0.0,0.0,0.0,0.0,0.0,0.0,0.0,0.0,0.0,0.0,0.0,0.0,0.0,0.0,0.0,0.0,0.0,0.0,0.0,0.0,0.0,0.0,0.0,0.0,0.0,0.0,0.0,0.0,0.0,0.0,0.0,0.0,0.0,0.0,0.0,0.0,0.0,0.0,0.0,0.0,0.0,0.0,0.0,0.0,0.0,0.0,0.0,0.0,0.0,0.0,0.0,0.0,0.0,0.0,0.0,0.0,0.0,0.0,0.0,0.0,0.0,0.0,0.0,0.0,0.0,0.0,0.0,0.0,0.0,0.0,0.0,0.0,0.0,0.0,0.0,0.0,0.0,0.0,0.0,0.0,0.0,0.0,0.0,0.0,0.0,0.0,0.0,0.0,0.0,0.0,0.0,0.0,0.0,0.0,0.0,0.0,0.0,0.0,0.0,0.0,0.0,0.0,0.0,0.0,0.0,0.0,0.0,0.0,0.0,0.0,0.0,0.0,0.0,0.0,0.0,0.0,0.0,0.0,0.0,0.0,0.0,0.0,0.0,0.0,0.0,0.0,0.0,0.0,0.0,0.0,0.0,0.0,0.0,0.0,0.0,0.0,0.0,0.0,0.0,0.0,0.0,0.0,0.0,0.0,0.0,0.0,0.0,0.0,0.0,0.0,0.0,0.0,0.0,0.0,0.0,0.0,0.0,0.0,0.0,0.0,0.0,0.0,0.0,0.0,0.0,0.0,0.0,0.0,0.0,0.0,0.0,0.0,0.0,0.0,0.0,0.0,0.0,0.0,0.0,0.0,0.0,0.0,0.0,0.0,0.0,0.0,0.0,0.0,0.0,0.0,0.0,0.0,0.0,0.0,0.0,0.0,0.0,0.0,0.0,0.0,0.0,0.0,0.0,0.0,0.0,0.0,0.0,0.0,0.0,0.0,0.0,0.0,0.0,0.0,0.0,0.0,0.0,0.0,0.0,0.0,0.0,0.0,0.0,0.0,0.0,0.0,0.0,0.0,0.0,0.0,0.0,0.0,0.0,0.0,0.0,0.0,0.0,0.0,0.0,0.0,0.0,0.0,0.0,0.0,0.0,0.0,0.0,0.0,0.0,0.0,0.0,0.0,0.0,0.0,0.0,0.0,0.0,0.0,0.0,0.0,0.0,0.0,0.0,0.0,0.0,0.0,0.0,0.0,0.0,0.0,0.0,0.0,0.0,0.0,0.0,0.0,0.0,0.0,0.0,0.0,0.0,0.0,0.0,0.0,0.0,0.0,0.0,0.0,0.0,0.0,0.0,0.0,0.0,0.0,0.0,0.0,0.0,0.0,0.0,0.0,0.0,0.0,0.0,0.0,0.0,0.0,0.0,0.0,0.0,0.0,0.0,0.0,0.0,0.0,0.0,0.0,0.0,0.0,0.0,0.0,0.0,0.0,0.0,0.0,0.0,0.0,0.0,0.0,0.0,0.0,0.0,0.0,0.0,0.0,0.0,0.0,0.0,0.0,0.0,0.0,0.0,0.0,0.0,0.0,0.0,0.0,0.0,0.0,0.0,0.0,0.0,0.0,0.0,0.0,0.0,0.0,0.0,0.0,0.0,0.0,0.0,0.0,0.0,0.0,0.0,0.0,0.0,0.0,0.0,0.0,0.0,0.0,0.0,0.0,0.0,0.0,0.0,0.0,0.0,0.0,0.0,0.0,0.0,0.0,0.0,0.0,0.0,0.0,0.0,0.0,0.0,1.9263,1.9402,0.0,0.0,0.0,0.0,0.0,0.0,0.0,0.0,0.0,0.0,0.0,0.0,0.0,0.0,0.0,0.0,0.0,0.0,0.0,0.0,0.0,0.0,0.0,1.0314,1.1178,1.1755,1.1991,1.2221,1.2484,0.0,0.0,0.0,0.0,0.0,1.2437,1.2176,1.2279,1.2801,1.2801,1.3082,1.3605,1.3325,1.2885,1.2358,0.0,0.0,0.0,0.0,0.0,0.0,0.0,0.0,0.0,0.0,0.0,0.0,0.0,0.0,0.0,0.0,0.0,0.0,0.0,0.0,0.0,0.0,0.0,0.0,0.0,0.0,0.0,0.0,0.0,0.0,0.0,0.0,0.0,0.0,0.0,0.0,0.0,0.0,0.0,0.0,0.0,0.0,0.0,0.0,0.0,0.0,0.0,0.0,0.0,0.0,0.0,0.0,0.0,0.0,0.0,0.0,0.0,0.0,0.0,0.0,0.0,0.0,0.0,0.0,0.0,0.0,0.0,0.0,0.0,0.0,1.9623,1.9442,0.0,0.0,0.0,0.0,0.0,0.0,0.0,0.0,0.0,0.0,0.0,0.0,0.0,0.0,0.0,0.0,0.0,0.0,0.0,0.0,0.0,0.9029,0.9109,1.0196,1.1184,1.1852,1.1853,1.2037,1.2544,1.2216,0.0,0.0,0.0,1.2413,1.2913,1.2926,1.3353,1.4237,1.4237,1.4467,1.4906,1.4906,1.4397,1.3474,1.3036,0.0,0.0,0.0,0.0,0.0,0.0,0.0,0.0,0.0,0.0,0.0,0.0,0.0,0.0,0.0,0.0,0.0,0.0,0.0,0.0,0.0,0.0,0.0,0.0,0.0,0.0,0.0,0.0,0.0,0.0,0.0,0.0,0.0,0.0,0.0,0.0,0.0,0.0,0.0,0.0,0.0,0.0,0.0,0.0,0.0,0.0,0.0,0.0,0.0,0.0,0.0,0.0,0.0,0.0,0.0,0.0,0.0,0.0,0.0,0.0,0.0,0.0,0.0,2.0332,2.0556,2.0888,2.0803,2.0751,2.0731,2.0285,1.9787,1.9309,1.9694,0.0,0.0,0.0,0.0,0.0,0.0,0.0,0.0,0.0,0.0,0.0,0.0,0.0,0.0,0.0,0.0,0.0,0.0,0.0,0.9151,0.9557,1.0425,1.1345,1.2247,1.2305,1.2484,1.2914,1.288,0.0,0.0,1.3705,1.3977,1.457,1.4579,1.4655,1.4793,1.4793,1.4835,1.4906,1.4906,1.4813,1.4665,1.4595,1.4574,1.4541,0.0,0.0,0.0,0.0,0.0,0.0,0.0,0.0,0.0,0.0,0.0,0.0,0.0,0.0,0.0,0.0,0.0,0.0,0.0,0.0,0.0,0.0,0.0,0.0,0.0,0.0,0.0,0.0,0.0,0.0,0.0,0.0,0.0,0.0,0.0,0.0,0.0,0.0,0.0,0.0,0.0,1.6516,1.7116,0.0,0.0,0.0,0.0,0.0,0.0,0.0,0.0,0.0,0.0,0.0,0.0,0.0,1.9868,2.0465,2.1468,2.1976,2.1976,2.2438,2.2462,2.2057,2.1592,2.1384,2.1379,2.1309,0.0,2.0387,2.0461,0.0,0.0,0.0,0.0,0.0,0.0,0.0,0.0,0.0,0.0,0.0,0.0,0.0,0.0,0.0,0.0,0.0,0.0,0.0,0.0,0.0,1.0657,1.1516,1.1966,1.2178,1.2381,1.2594,1.2357,1.2346,1.2642,1.2658,1.2893,1.3434,1.3433,1.3731,1.4337,1.4978,1.529,1.5295,1.5637,1.5799,1.5799,1.5799,1.546,1.4876,1.4647,0.0,0.0,0.0,0.0,0.0,0.0,0.0,0.0,0.0,0.0,0.0,0.0,0.0,0.0,0.0,0.0,0.0,0.0,0.0,0.0,0.0,0.0,0.0,0.0,0.0,0.0,0.0,0.0,0.0,0.0,0.0,0.0,0.0,0.0,0.0,0.0,0.0,0.0,0.0,1.6816,1.7545,1.7821,1.8116,1.8185,0.0,0.0,0.0,0.0,0.0,0.0,0.0,0.0,0.0,2.1172,2.1504,2.1931,2.255,2.3319,2.3712,2.3712,2.3943,2.393,2.37,2.3469,2.3356,2.3356,2.3356,2.3195,2.2861,2.1621,2.1276,2.149,0.0,0.0,0.0,0.0,2.1597,2.1633,0.0,0.0,0.0,0.0,0.0,0.0,0.0,0.0,0.0,0.0,0.0,0.0,0.9737,1.0757,1.1534,1.1803,1.2063,1.2272,1.2436,1.2125,1.2007,1.2154,1.2154,1.2399,1.2903,1.2914,1.3303,1.4105,1.4945,1.5449,1.5615,1.6062,1.6353,1.6505,1.6505,1.6064,1.5294,1.516,1.4863,0.0,0.0,0.0,0.0,0.0,0.0,0.0,0.0,0.0,0.0,0.0,0.0,0.0,0.0,0.0,0.0,0.0,0.0,0.0,0.0,0.0,0.0,0.0,0.0,0.0,0.0,0.0,0.0,0.0,0.0,0.0,0.0,0.0,0.0,0.0,0.0,0.0,0.0,1.7984,1.8399,1.8399,1.9008,1.9227,0.0,0.0,0.0,0.0,0.0,0.0,2.1476,2.1546,2.1972,2.2909,2.3328,2.3818,2.4406,2.4812,2.508,2.5226,2.5088,2.5005,2.5005,2.4859,2.4796,2.4796,2.4796,2.4796,2.466,2.2874,2.2226,2.2317,2.1823,2.1822,2.2144,2.2329,2.2184,2.2044,0.0,0.0,0.0,0.0,0.0,0.0,0.0,0.0,0.0,0.0,0.0,0.9747,1.0205,1.0669,1.127,1.2096,1.219,1.2387,0.0,0.0,1.3088,1.3658,1.3694,1.3963,1.4574,1.4585,1.4613,1.4659,1.4715,1.5045,1.5604,1.5632,1.5953,1.6505,1.6505,1.6468,1.6393,1.5881,1.5635,1.5578,0.0,0.0,0.0,0.0,0.0,0.0,0.0,0.0,0.0,0.0,0.0,0.0,0.0,0.0,0.0,0.0,0.0,0.0,0.0,0.0,0.0,0.0,0.0,0.0,0.0,0.0,0.0,0.0,0.0,0.0,0.0,0.0,0.0,0.0,0.0,0.0,0.0,0.0,0.0,1.8958,1.9943,0.0,0.0,0.0,0.0,2.1324,2.1845,2.2628,2.3766,2.3828,2.4084,2.4658,2.4696,2.4967,2.5511,2.5557,2.5854,2.6411,2.5833,2.5557,2.5536,2.503,2.4796,2.4796,2.4796,2.4796,2.4746,2.4136,2.4208,2.4566,2.2907,2.2992,2.3925,2.2817,2.2777,2.3304,0.0,0.0,0.0,0.0,0.0,0.7804,0.8105,0.8297,0.8586,0.9103,0.9683,1.021,1.0645,1.1312,1.1862,1.2168,1.2484,1.2721,1.2889,1.2899,1.3002,1.3208,1.3214,1.3322,1.3543,1.3543,1.3543,1.3543,1.3932,1.4433,1.5028,1.5028,1.5337,1.5914,1.5914,1.5914,1.5929,1.6136,1.6019,1.5686,1.549,1.5085,0.0,0.0,0.0,0.0,0.0,0.0,0.0,0.0,0.0,0.0,0.0,0.0,0.0,0.0,0.0,0.0,0.0,0.0,0.0,0.0,0.0,0.0,0.0,0.0,0.0,0.0,0.0,0.0,0.0,0.0,0.0,0.0,0.0,0.0,0.0,0.0,0.0,2.1083,2.2133,0.0,2.1986,2.2119,2.2628,2.3549,2.38,2.4561,2.6046,2.6122,2.6364,2.6908,2.6912,2.703,2.7205,2.7205,2.7318,2.7516,2.6963,2.6687,2.6674,2.6143,2.5891,2.5891,2.5891,2.5891,2.5879,2.5686,2.5301,2.4768,2.4145,2.419,2.4529,2.4106,2.4105,2.4303,0.0,0.0,0.0,0.0,0.7833,0.8043,0.8356,0.8625,0.9,0.9533,1.0132,1.0659,1.1094,1.177,1.2256,1.2414,1.2721,1.2899,1.2899,1.2899,1.2899,1.2899,1.2899,1.2899,1.2899,1.2899,1.2968,1.3102,1.3498,1.4088,1.4832,1.4832,1.5166,1.573,1.573,1.5869,1.6122,1.6346,1.6136,1.5673,1.5891,1.5531,1.4851,0.0,0.0,0.0,0.0,0.0,0.0,0.0,0.0,0.0,0.0,0.0,0.0,0.0,0.0,0.0,0.0,0.0,0.0,0.0,0.0,0.0,0.0,0.0,0.0,0.0,0.0,0.0,0.0,0.0,0.0,0.0,0.0,0.0,0.0,2.0966,2.197,2.2508,2.3582,2.4101,2.371,2.4026,2.4636,2.5565,2.5808,2.6406,2.7516,2.7566,2.772,2.8088,2.81,2.81,2.81,2.81,2.81,2.8097,2.7742,2.7566,2.7553,2.7198,2.7043,2.7043,2.7043,2.6943,2.6776,2.6776,2.6218,2.5352,2.5151,2.5076,2.5042,2.4871,2.4796,2.4796,0.0,0.0,0.0,0.7699,0.8086,0.8408,0.8418,0.9093,0.9607,0.9641,1.0386,1.1094,1.1566,1.1982,1.2404,1.2854,1.2899,1.2899,1.2899,1.2899,1.2899,1.2899,1.2899,1.2915,1.2919,1.2919,1.3118,1.3519,1.3519,1.406,1.5094,1.5074,1.5395,1.597,1.597,1.6367,1.6999,1.6497,1.6008,1.5617,1.6234,1.5796,1.4858,0.0,0.0,0.0,0.0,0.0,0.0,0.0,0.0,0.0,0.0,0.0,0.0,0.0,0.0,0.0,0.0,0.0,0.0,0.0,0.0,0.0,0.0,0.0,0.0,0.0,0.0,0.0,0.0,0.0,0.0,0.0,0.0,0.0,2.1513,2.2033,2.2608,2.3145,2.4211,2.4896,2.4896,2.5904,2.6776,2.7311,2.7821,2.8125,2.815,2.815,2.815,2.815,2.815,2.815,2.815,2.815,2.815,2.815,2.8125,2.8125,2.8125,2.81,2.81,2.81,2.81,2.7817,2.7324,2.7324,2.7018,2.6495,2.5866,2.5632,2.5569,2.5042,2.4846,2.4846,0.0,0.0,0.7699,0.7699,0.8086,0.8493,0.8789,0.927,0.9826,1.0459,1.1046,1.1569,1.1986,1.2441,1.2766,1.2889,1.2899,1.2899,1.2899,1.2899,1.2899,1.2899,1.2899,1.3046,1.333,1.334,1.3532,1.3938,1.3938,1.4334,1.5091,1.4602,1.4717,1.5349,1.5349,1.5459,1.5669,1.5956,1.5562,1.4805,1.5557,1.54,1.4794,0.0,0.0,0.0,0.0,0.0,0.0,0.0,0.0,0.0,0.0,0.0,0.0,0.0,0.0,0.0,0.0,0.0,0.0,0.0,0.0,0.0,0.0,0.0,0.0,0.0,0.0,0.0,0.0,0.0,0.0,0.0,2.143,2.2076,2.2076,2.359,2.4908,2.5502,2.6527,2.7197,2.7197,2.7478,2.7883,2.8417,2.8593,2.8869,2.9312,2.9327,2.9327,2.9327,2.9327,2.9327,2.9327,2.9327,2.9327,2.9337,2.8881,2.8671,2.8668,2.8276,2.81,2.81,2.81,2.8021,2.7883,2.7883,2.7795,2.7566,2.6629,2.6252,2.6227,2.6088,2.603,2.603,0.0,0.7699,0.7757,0.7957,0.8363,0.8783,0.9186,0.9615,1.0137,1.081,1.131,1.1745,1.2155,1.2617,1.2899,1.2899,1.2899,1.2899,1.2899,1.2899,1.2899,1.2899,1.3053,1.3262,1.3483,1.3669,1.3955,1.4391,1.4391,1.4677,1.5219,1.4834,1.4848,1.5232,1.5232,1.5403,1.5687,1.5823,1.5547,1.505,1.5292,1.4956,1.4393,1.4988,1.5219,1.5229,1.5272,1.5283,1.523,1.4913,0.0,0.0,0.0,0.0,0.0,0.0,0.0,0.0,0.0,0.0,0.0,0.0,0.0,0.0,0.0,0.0,0.0,0.0,0.0,0.0,0.0,0.0,0.0,0.0,2.3226,2.4062,2.4062,2.5163,2.6268,2.7081,2.772,2.8188,2.8405,2.8439,2.8668,2.9233,2.928,2.9431,2.9789,2.9801,2.9801,2.9801,2.9801,2.9801,2.9801,2.9801,2.9801,2.9801,2.9443,2.928,2.928,2.8954,2.8812,2.8812,2.8812,2.8665,2.8439,2.8439,2.8301,2.8021,0.0,0.0,0.0,0.0,2.6508,2.6508,0.0,0.7784,0.7924,0.8391,0.8803,0.9186,0.9543,0.9995,1.0459,1.0913,1.134,1.177,1.2223,1.2646,1.2899,1.2899,1.2899,1.2899,0.0,0.0,1.2968,1.2968,1.335,1.3597,1.3646,1.3994,1.441,1.4868,1.4868,1.5049,1.5396,1.5396,1.5396,1.5396,1.5396,1.5755,1.6341,1.5866,1.5708,1.5726,1.5268,1.4576,1.3885,1.4445,1.4672,1.4673,1.4686,1.4692,1.4692,1.4692,0.0,0.0,0.0,0.0,0.0,0.0,0.0,0.0,0.0,0.0,0.0,0.0,0.0,0.0,0.0,0.0,0.0,0.0,0.0,0.0,0.0,0.0,0.0,0.0,2.5192,2.6637,2.6742,2.6776,2.7123,2.8084,2.8251,2.8477,2.8969,2.8998,2.922,2.9754,2.9801,2.9801,2.9801,2.9801,0.0,0.0,0.0,2.9801,2.9801,2.9801,2.9801,2.9801,2.9801,2.9801,2.9801,2.9801,2.9801,2.9801,2.9801,2.9503,2.8998,2.8998,2.8681,2.8125,2.7528,2.7298,2.7236,2.67,2.6508,2.6508,0.0,0.8264,0.8397,0.8809,0.9211,0.9509,0.9587,0.9995,1.0577,1.1355,1.1536,1.1899,1.2678,1.285,1.2899,1.2899,1.2899,1.2899,0.0,0.0,1.3382,1.3382,1.3769,1.416,1.4545,1.4626,1.4863,1.5286,1.5286,1.5325,1.5396,1.5396,1.5396,1.5396,1.5396,1.5483,1.5604,1.5503,1.5294,1.5002,1.4895,1.4528,1.4063,1.4349,1.4461,1.4481,1.4646,1.4692,1.4692,1.4692,1.4636,1.4546,1.4546,0.0,0.0,0.0,0.0,0.0,0.0,0.0,0.0,0.0,0.0,0.0,0.0,0.0,0.0,0.0,0.0,0.0,0.0,0.0,0.0,2.4958,2.626,2.7449,2.8304,2.8439,2.8518,2.8722,2.9167,2.9503,2.9616,2.9628,2.9666,2.9789,2.9801,2.9801,2.9801,2.9801,2.9801,2.9801,2.9801,2.9801,2.9801,2.9801,2.9801,2.9801,2.9801,0.0,2.9801,2.9801,2.9801,2.9801,2.9801,2.9729,2.9628,2.9628,2.928,2.8656,2.7679,2.7298,2.7236,2.67,2.6508,2.6508,0.8922,0.8842,0.8823,0.9235,0.9465,0.9684,0.9912,1.0322,1.084,1.1507,1.178,1.216,1.2831,1.2899,1.2899,1.2899,1.2899,0.0,0.0,1.3278,1.3499,1.3499,1.4114,1.4561,1.4789,1.4997,1.5205,1.5396,1.5396,1.5396,1.5396,1.5396,1.5396,1.5396,1.5396,1.5396,1.5396,1.5396,1.5286,1.5098,1.5098,1.4964,1.4711,1.4376,1.4255,1.4264,1.4362,1.4403,1.4403,1.4403,1.4275,1.4105,1.4105,1.417,1.4195,0.0,0.0,0.0,0.0,0.0,0.0,0.0,0.0,0.0,0.0,0.0,0.0,0.0,0.0,2.2206,2.1736,0.0,2.59,2.6716,2.7557,2.8288,2.8822,2.9157,2.9355,2.9355,2.9616,2.9801,2.9801,2.9801,2.9801,2.9801,2.9801,2.9801,2.9801,2.9801,2.9801,2.9801,2.9801,2.9801,2.9801,2.9801,2.9801,2.9801,2.9801,2.9801,2.9801,2.9801,2.9801,2.9801,2.9801,2.9801,2.9801,2.9801,2.9616,2.9267,2.8436,2.7946,2.7666,2.7399,2.7298,2.7261,0.9456,0.9406,0.9351,0.9679,0.9737,0.9864,1.0234,1.0576,1.0982,1.1532,1.1881,1.2293,1.284,1.2899,1.2899,0.0,0.0,0.0,0.0,1.3382,1.3665,1.375,1.4499,1.4916,1.4916,1.5227,1.5396,1.5396,1.5491,1.5537,1.5537,1.5618,1.5642,1.5649,1.5569,1.5537,1.5527,1.5442,1.5396,1.5396,1.5396,1.5396,1.5318,1.4621,1.4292,1.4221,1.4127,1.4049,1.3997,1.4068,1.3831,1.3513,1.3591,1.3727,1.3762,1.3282,1.3716,0.0,0.0,0.0,0.0,0.0,0.0,0.0,0.0,0.0,1.9298,1.8128,2.1152,2.3805,2.3143,2.537,2.7431,2.7869,2.8584,2.907,2.907,2.9493,2.9801,2.9801,2.9801,2.9801,2.9801,2.9801,2.9801,2.9801,2.9801,2.9801,2.9801,2.9801,2.9801,2.9801,2.9801,2.9801,2.9801,2.9801,2.9801,2.9801,2.9801,2.9801,2.9801,2.9801,2.9801,2.9801,2.9801,2.9801,2.9801,2.9801,2.9801,2.9741,2.9258,2.8816,2.8401,2.8176,2.81,2.8047,0.0,0.9898,1.0171,1.0205,1.0224,1.0239,1.0288,1.0337,1.0665,1.1493,1.1634,1.1981,1.2811,1.2899,1.2899,1.2899,0.0,0.0,1.3408,1.3808,1.4218,1.4643,1.5088,1.5327,1.5327,1.5383,1.5396,1.5396,1.5816,1.6016,1.6026,1.6389,1.6551,1.6539,1.6179,1.6016,1.5987,1.5576,1.5396,1.5396,1.5396,1.5396,1.5393,1.5288,1.5032,1.4665,1.425,1.387,1.362,1.3977,1.3831,1.3561,1.3919,1.405,1.405,1.3987,0.0,1.4214,1.4559,1.4988,1.5532,1.6354,1.6605,1.7074,0.0,1.9729,2.0301,1.9742,2.1961,2.3746,2.2898,2.5238,2.7323,2.738,2.8683,2.9691,2.9691,2.9764,2.9801,2.9801,2.9801,2.9801,2.9801,2.9801,2.9801,2.9801,2.9801,2.9801,2.9801,2.9801,2.9801,2.9801,2.9801,2.9801,2.9801,2.9801,2.9801,2.9801,2.9801,2.9801,2.9801,2.9801,2.9801,2.9801,2.9801,2.9801,2.9801,2.9801,2.9801,2.9789,2.9739,2.9654,2.9487,2.8464,2.81,2.8088,0.0,1.0166,1.0303,1.0303,1.0303,1.0303,1.0303,1.0728,1.1189,1.1552,1.2046,1.25,1.286,1.2899,1.2899,1.2899,0.0,0.0,1.347,1.3877,1.4306,1.478,1.5186,1.5396,1.5396,1.5671,1.5813,1.5813,1.624,1.6455,1.6447,1.6617,1.6697,1.6697,1.6518,1.6455,1.6445,1.6244,1.6159,1.6159,1.6159,1.6018,1.5813,1.5813,1.5525,1.512,1.4927,1.4752,0.0,0.0,1.4593,1.4284,1.4446,1.4156,1.3799,1.4029,1.4286,0.0,1.5984,1.6441,1.676,1.7602,1.801,1.8535,1.9774,2.076,2.1346,2.1105,2.3126,2.4653,2.3739,2.5355,2.6826,2.6826,2.7945,2.8806,2.8806,2.9375,2.9801,2.9801,2.9801,2.9801,2.9801,2.9801,2.993,3.0234,3.0269,3.0269,3.0269,3.0269,3.0118,2.9814,2.9801,2.9801,2.9801,2.9801,2.9801,2.9801,2.9801,2.9801,2.9801,2.9801,2.9801,2.9801,2.9801,2.9801,2.9801,2.9801,2.9801,2.9801,2.9801,2.9801,2.9739,2.9274,2.9089,2.9038,0.0,1.0205,1.0303,1.0303,1.0303,1.0303,1.0303,1.0929,1.1453,1.1581,1.225,1.2756,1.2889,1.2899,1.2899,1.2899,1.2899,1.3118,0.0,1.3938,1.4364,1.4939,1.5247,1.5461,1.5586,1.5938,1.6153,1.6273,1.6691,1.6898,1.6898,1.7007,1.7066,1.7048,1.6939,1.6898,1.688,1.6755,1.6697,1.6697,1.6697,1.6457,1.6102,1.6102,1.5813,1.5393,1.5276,1.5152,0.0,0.0,1.4846,1.4609,1.4609,1.4346,1.4078,1.4367,1.4964,1.5796,1.7057,1.7557,1.79,1.8615,1.9132,1.9697,2.0576,2.1388,2.1994,2.2049,2.3577,2.4698,2.4012,2.507,2.6037,2.6037,2.7197,2.8106,2.8106,2.9077,2.9801,2.9801,2.9801,2.9801,2.9801,2.9801,3.0018,3.056,3.06,3.0651,3.0811,3.0824,3.0635,3.0253,3.0241,3.0241,3.0241,3.0241,3.0241,3.0241,3.0093,3.0018,3.0018,2.9877,2.9801,2.9801,2.9801,2.9801,2.9801,2.9801,2.9801,2.9801,2.9801,2.9801,2.9801,2.9801,2.9801,2.9739,0.0,0.0,1.0303,1.0303,1.0303,1.0303,1.0303,1.0654,1.1084,1.1536,1.1963,1.2389,1.285,1.2899,1.2899,1.2899,1.2899,1.3239,1.4029,1.4091,1.4484,1.5337,1.5386,1.5605,1.6073,1.6085,1.6295,1.6677,1.7148,1.738,1.7389,1.7783,1.796,1.7941,1.7549,1.738,1.735,1.6898,1.6697,1.6697,1.6697,1.6457,1.6102,1.6102,1.5813,1.5354,1.4958,0.0,0.0,0.0,1.4127,1.4117,1.4117,1.4686,0.0,1.5357,1.6289,1.7331,1.7389,1.797,1.8684,1.916,1.958,2.0108,2.0986,2.1563,2.2004,2.2402,2.2844,2.317,2.3137,2.4061,2.4851,2.4851,2.6675,2.8106,2.8106,2.9077,2.9801,2.9801,2.9801,2.9801,2.9801,2.9801,3.0018,3.056,3.06,3.0824,3.1346,3.1371,3.1371,3.1346,3.1346,3.1346,3.1346,3.1346,3.1346,3.1346,3.0824,3.0585,3.056,3.0043,2.9801,2.9801,2.9801,2.9801,2.9801,2.9801,2.9801,2.9801,2.9801,2.9801,2.9801,2.9801,2.9801,2.9801,0.0,0.0,0.0,1.0303,1.0518,1.0703,1.0703,1.108,1.1423,1.1581,1.2224,0.0,0.0,0.0,0.0,0.0,1.2899,1.3137,1.3669,1.3948,1.4374,1.4978,1.5256,1.5615,1.6093,1.6365,1.6721,1.7168,1.7588,1.7803,1.7803,1.7939,1.7999,1.7991,1.7861,1.7803,1.7793,1.763,1.7727,1.7906,1.7375,1.7078,1.6928,1.6621,1.6039,1.5344,0.0,0.0,0.0,0.0,1.4097,1.4156,1.4466,0.0,0.0,1.5603,1.6367,1.7122,1.7971,1.8624,1.917,1.959,2.0235,2.0927,2.1533,2.1982,2.2411,2.282,2.3014,2.3091,2.3091,2.3408,2.392,2.4681,2.6057,2.729,2.8006,2.9384,3.0206,2.9839,3.0118,3.0184,2.9839,2.9801,3.0178,3.106,3.1135,3.1361,3.189,3.1938,3.1763,3.1409,3.1396,3.1396,3.1396,3.1396,3.1396,3.1396,3.0861,3.06,3.0575,3.0043,2.9801,2.9801,2.9801,2.9801,2.9801,2.9801,2.9801,2.9801,2.9801,2.9801,2.9801,2.9801,2.9801,2.9801,0.0,0.0,0.0,0.0,0.0,0.0,0.0,0.0,0.0,0.0,0.0,0.0,0.0,0.0,0.0,0.0,0.0,1.3069,1.347,0.0,1.4156,1.4763,1.4886,1.5295,1.6083,1.6191,1.6623,1.7399,1.7665,1.7861,1.7999,1.7999,1.7999,1.7999,1.7999,1.7999,1.799,1.7852,1.7931,1.8108,1.7432,1.7059,1.6901,1.6602,1.6037,0.0,0.0,0.0,0.0,1.3929,1.386,1.4133,1.4287,1.4567,1.5049,1.6224,1.6953,1.7631,1.8762,1.9414,1.9853,2.0254,2.0918,2.1572,2.2012,2.2304,2.2566,2.2829,2.2887,2.2887,2.2887,2.2887,2.3166,2.4051,2.5655,2.7032,2.772,2.9423,3.0548,3.0392,3.052,3.0548,3.0392,3.0379,3.0655,3.1346,3.1585,3.1926,3.2491,3.2516,3.2353,3.2012,3.2009,3.2009,3.2009,3.2009,3.1899,3.1675,3.1338,3.1075,3.0861,3.0331,3.0093,3.008,2.988,2.9801,2.9801,2.9801,2.9801,2.9801,2.9801,2.9801,2.9801,2.9801,2.9801,2.9801,0.0,0.0,0.0,0.0,0.0,0.0,0.0,0.0,0.0,0.0,0.0,0.0,0.0,0.0,0.0,0.0,0.0,0.0,0.0,0.0,0.0,1.4701,1.4332,1.4713,1.6044,1.5632,1.6055,1.736,1.736,1.7557,1.7932,1.7932,1.7932,1.7932,1.7932,1.7932,1.7911,1.7528,1.738,1.736,1.6869,1.6447,1.6124,1.6112,0.0,0.0,0.0,0.0,0.0,1.3401,1.3529,1.4143,1.3783,1.4819,1.6347,1.7212,1.8019,1.8831,1.9698,2.0283,2.0723,2.1122,2.1582,2.2032,2.2411,2.2499,2.2499,2.2499,2.248,2.247,0.0,2.2489,2.2646,2.3081,2.5433,2.7222,2.7285,2.919,3.0768,3.1242,3.0931,3.0874,3.1359,3.1421,3.1446,3.1446,3.1903,3.2466,3.3065,3.3102,3.3102,3.3102,3.3102,3.3102,3.3102,3.3102,3.2815,3.2242,3.2206,3.1928,3.1421,3.0896,3.0635,3.0573,3.0068,2.9826,2.9801,2.9801,2.9801,2.9801,2.9801,2.9801,2.9801,2.9801,2.9801,2.9801,0.0,0.0,0.0,0.0,0.0,0.0,0.0,0.0,0.0,0.0,0.0,0.0,0.0,0.0,0.0,0.0,0.0,0.0,0.0,0.0,0.0,0.0,0.0,1.4562,1.5564,1.5461,0.0,0.0,0.0,1.6929,1.7036,1.7036,1.7036,1.7036,1.7036,1.7036,1.7019,1.6919,1.7082,1.7331,0.0,1.6375,1.6508,0.0,0.0,0.0,0.0,0.0,0.0,0.0,0.0,1.5613,1.5825,1.6428,1.7233,1.8049,1.8692,1.9307,2.0175,2.0732,2.1162,2.1611,2.2041,2.2372,2.248,2.2499,2.2499,2.2499,2.2266,2.2041,2.2041,2.2305,2.2815,2.3761,2.5019,2.6185,2.703,2.9061,3.0356,3.009,0.0,3.169,3.1421,3.1763,3.1991,3.1991,3.2116,3.2466,3.3065,3.3102,3.3102,3.3102,3.3102,3.3102,3.3102,3.3102,3.3027,3.2876,3.2405,3.2129,3.1989,3.1436,3.0984,3.0588,3.046,3.0168,2.9801,2.9801,2.9801,2.9801,2.9801,2.9801,2.9801,2.9801,2.9801,2.9801,0.0,0.0,0.0,0.0,0.0,0.0,0.0,0.0,0.0,0.0,0.0,0.0,0.0,0.0,0.0,0.0,0.0,0.0,0.0,0.0,0.0,0.0,1.3548,1.3971,1.4813,1.4832,1.5164,0.0,0.0,0.0,0.0,1.6625,1.6615,1.6438,1.6617,1.6597,1.6436,0.0,0.0,0.0,0.0,0.0,0.0,0.0,0.0,0.0,0.0,0.0,0.0,0.0,0.0,1.6465,1.7083,1.7571,1.8097,1.8927,1.9493,2.0067,2.0928,2.1465,2.1835,2.21,2.247,2.2664,2.2324,2.2372,2.2343,2.1788,2.1631,2.1591,2.1591,2.1953,2.2495,2.3315,2.4769,2.6026,2.6661,2.8862,3.0382,3.0312,3.1434,3.219,3.215,3.2426,3.2591,3.2591,3.2591,3.274,3.3077,3.3102,3.3102,3.3102,3.3102,3.3102,3.3102,3.3102,3.3102,3.3102,3.2765,3.2591,3.2579,3.2001,3.1587,3.1275,3.0801,3.0435,3.0121,2.9902,2.9801,2.9801,2.9801,2.9801,2.9801,2.9801,2.9801,2.9801,0.0,0.0,0.0,0.0,0.0,0.0,0.0,0.0,0.0,0.0,0.0,0.0,0.0,0.0,0.0,0.0,0.0,0.0,0.0,0.0,0.0,0.0,1.3088,1.3248,1.4,1.4026,1.4254,0.0,0.0,0.0,0.0,0.0,0.0,0.0,0.0,0.0,0.0,0.0,0.0,0.0,0.0,0.0,0.0,0.0,0.0,0.0,0.0,0.0,0.0,0.0,1.724,1.7106,1.798,1.8489,1.8939,1.9815,2.0361,2.0879,2.1739,2.2236,2.2509,2.2567,2.2801,2.2819,2.2071,2.208,2.1914,2.0752,2.0781,2.1025,2.1025,2.1455,2.1943,2.2343,2.4374,2.598,2.6252,2.8541,3.0432,3.1118,3.1864,3.2528,3.3052,3.3102,3.3102,3.3102,3.3102,3.3102,3.3102,3.3102,3.3102,3.3102,3.3102,3.3102,3.3102,3.3102,3.3102,3.3102,3.3102,3.3102,3.3077,3.2554,3.229,3.2141,3.115,3.0673,3.056,3.0018,2.9801,2.9801,2.9801,2.9801,2.9801,2.9801,2.9801,2.9801,0.0,0.0,0.0,0.0,0.0,0.0,0.0,0.0,0.0,0.0,1.2899,1.2899,0.0,0.0,0.0,0.0,0.0,0.0,0.0,0.0,0.0,0.0,1.2938,1.3121,1.3591,1.36,0.0,0.0,0.0,0.0,0.0,0.0,0.0,0.0,0.0,0.0,0.0,0.0,0.0,0.0,0.0,0.0,0.0,0.0,0.0,0.0,0.0,0.0,0.0,0.0,1.8069,1.8422,1.9307,1.962,1.9844,2.0713,2.1025,2.1288,2.2157,2.245,2.2576,2.2907,2.2801,2.248,2.2012,2.1397,0.0,2.0146,2.0078,2.0127,2.0127,2.0771,2.1464,2.1934,2.2978,2.4336,2.6056,2.791,2.9618,3.1029,3.2229,3.2989,3.309,3.3102,3.3102,3.3102,3.3102,3.3102,3.3102,3.3102,3.3102,3.3102,3.3102,3.3102,3.3102,3.3102,3.3102,3.3102,3.3102,3.3102,3.3102,3.2989,3.2677,3.2156,3.1537,3.1009,3.056,3.0018,2.9801,2.9801,2.9801,2.9801,2.9801,2.9801,2.9801,2.9801,0.0,0.0,0.0,0.0,0.0,0.0,0.0,1.2256,1.2621,1.287,1.2899,1.2899,1.2899,1.2899,1.2899,0.0,0.0,0.0,0.0,0.0,0.0,0.0,0.0,1.2991,1.318,0.0,0.0,0.0,0.0,0.0,0.0,0.0,0.0,0.0,0.0,0.0,0.0,0.0,0.0,0.0,0.0,0.0,0.0,0.0,0.0,0.0,0.0,0.0,0.0,0.0,1.7748,1.8518,1.9853,2.0263,2.039,2.1025,2.1376,2.1699,2.2333,2.2654,2.2858,2.3053,2.2801,2.2285,2.1417,0.0,0.0,1.9415,1.9424,1.959,1.959,2.0303,2.0967,2.1192,2.213,2.3344,2.479,2.6973,2.8889,3.0122,3.1943,3.3102,3.3102,3.3102,3.3102,3.3102,3.3102,3.3102,3.3102,3.3102,3.3102,3.3102,3.3102,3.3102,3.3102,3.3102,3.3102,3.3102,3.3102,3.3102,3.3102,3.3102,3.2939,3.2627,3.1773,3.1248,3.0947,3.0131,2.9801,2.9801,2.9801,2.9801,2.9801,2.9801,2.9801,2.9801,0.0,0.0,0.0,0.0,0.0,0.0,0.0,1.1943,1.2365,1.284,1.2899,1.2899,1.2899,1.2899,1.2899,0.0,0.0,0.0,0.0,0.0,0.0,0.0,0.0,0.0,0.0,0.0,0.0,0.0,0.0,0.0,0.0,0.0,0.0,0.0,0.0,0.0,0.0,0.0,0.0,0.0,0.0,0.0,0.0,0.0,0.0,0.0,0.0,0.0,0.0,0.0,1.7153,1.8009,1.9648,2.0293,2.0537,2.0947,2.1455,2.1993,2.2392,2.279,2.3091,2.3091,2.2732,2.206,2.0869,2.0459,1.997,1.8732,1.883,1.915,1.915,1.9794,2.038,2.0566,2.1504,2.278,2.4369,2.6616,2.8518,2.9648,3.1756,3.2993,3.2709,3.2939,3.3102,3.3102,3.3102,3.3102,3.3102,3.3102,3.3102,3.3102,3.3102,3.3102,3.3102,3.3102,3.3102,3.3102,3.3102,3.3102,3.3102,3.3102,3.3102,3.304,3.1886,3.1396,3.1321,3.0231,2.9801,2.9801,2.9801,2.9801,2.9801,2.9801,2.9801,2.9801,0.0,0.0,0.0,0.0,0.0,0.0,0.0,1.1943,1.2365,1.284,1.2899,1.2899,1.2899,1.2899,1.2899,0.0,0.0,0.0,0.0,0.0,0.0,0.0,0.0,0.0,0.0,0.0,0.0,0.0,0.0,0.0,0.0,0.0,0.0,0.0,0.0,0.0,0.0,0.0,0.0,0.0,0.0,0.0,0.0,0.0,0.0,0.0,0.0,0.0,0.0,0.0,0.0,1.7048,1.8372,1.9327,2.0059,2.0517,2.125,2.1993,2.2392,2.279,2.3091,2.3091,2.2528,2.172,2.0811,0.0,1.9159,1.8243,1.8382,1.8656,1.8656,1.9073,1.9677,2.0468,2.0996,2.2686,2.6605,2.7701,2.8836,3.0804,3.2261,3.2644,3.1489,3.2426,3.3102,3.3102,3.3102,3.3102,3.3102,3.3102,3.3102,3.3102,3.3102,3.3102,3.3102,3.3102,3.3102,3.3102,3.3102,3.3102,3.3102,3.3102,3.3102,3.304,3.1886,3.1396,3.1321,3.0231,2.9801,2.9801,2.9801,2.9801,2.9801,2.9801,2.9801,2.9801,0.0,0.0,0.0,0.0,0.0,0.0,1.1493,1.1737,1.2091,1.2811,1.2899,1.2899,1.2899,1.2899,1.2899,1.2899,0.0,0.0,0.0,0.0,0.0,0.0,0.0,0.0,0.0,0.0,0.0,0.0,0.0,0.0,0.0,0.0,0.0,0.0,0.0,0.0,0.0,0.0,0.0,0.0,0.0,0.0,0.0,0.0,0.0,0.0,0.0,0.0,0.0,0.0,1.6113,1.6431,1.694,1.7861,0.0,0.0,2.0801,2.1582,2.2021,2.2606,2.3091,2.3091,2.2499,2.167,2.0801,1.993,1.9052,1.8175,1.8136,1.8244,1.8244,1.8818,1.9404,1.9755,2.039,2.169,2.4147,2.5252,2.6507,2.8397,2.9732,3.0692,3.1154,3.1667,3.2272,3.3036,3.3102,3.3102,3.3102,3.3102,3.3102,3.3102,3.3102,3.3102,3.3102,3.3102,3.3102,3.3102,3.3102,3.3102,3.3102,3.3102,3.3102,3.304,3.1886,3.1396,3.1321,3.0231,2.9801,2.9801,2.9801,2.9801,2.9801,2.9801,2.9801,2.9801,0.0,0.0,0.0,0.0,0.0,1.0552,1.1286,1.1507,1.1864,1.26,1.2815,1.2899,1.2899,1.2899,1.2899,1.2899,1.2899,0.0,0.0,0.0,0.0,0.0,0.0,0.0,0.0,0.0,0.0,0.0,0.0,0.0,0.0,0.0,0.0,0.0,0.0,0.0,0.0,0.0,0.0,0.0,0.0,0.0,0.0,0.0,0.0,0.0,0.0,0.0,0.0,0.0,0.0,1.5919,0.0,0.0,0.0,0.0,2.0147,2.1093,2.1436,2.2119,2.2752,2.2752,2.2216,2.1465,2.0586,1.9833,1.9052,1.8175,1.7999,1.7999,1.7999,1.8595,1.9141,1.9286,2.0127,2.1312,2.2818,2.3991,2.5199,2.6565,2.8132,2.9454,3.0407,3.1261,3.2129,3.3025,3.3102,3.3102,3.3102,3.3102,3.3102,3.3102,3.3102,3.3102,3.3102,3.3102,3.3102,3.3102,3.3102,3.3102,3.3102,3.3102,3.3002,3.2778,3.1823,3.1308,3.1085,3.0178,2.9801,2.9801,2.9801,2.9801,2.9801,2.9801,2.9801,2.9801,0.0,0.0,0.0,0.0,0.0,0.0,1.0844,1.1295,1.1746,1.2149,1.2611,1.2899,1.2899,1.2899,1.2899,1.2899,1.2899,0.0,0.0,0.0,0.0,0.0,0.0,0.0,0.0,0.0,0.0,1.4097,1.457,0.0,0.0,0.0,0.0,0.0,0.0,0.0,0.0,0.0,0.0,0.0,0.0,0.0,0.0,0.0,0.0,0.0,0.0,0.0,0.0,0.0,0.0,0.0,0.0,0.0,0.0,0.0,1.9256,2.0615,2.0605,2.125,2.1905,2.1905,2.1552,2.0986,2.0117,1.959,1.9052,1.8175,1.7999,1.7999,1.7999,1.8333,1.8762,1.9219,2.0371,2.1919,2.3989,2.503,2.5769,2.6254,2.8373,2.9539,2.889,3.141,3.3092,3.3102,3.3102,3.3102,3.3102,3.3102,3.3102,3.3102,3.3102,3.3102,3.3102,3.3102,3.3102,3.3102,3.3102,3.3102,3.3102,3.3102,3.2778,3.2179,3.1647,3.1097,3.0573,3.0018,2.9801,2.9801,2.9801,2.9801,2.9801,2.9801,2.9801,2.9801,0.0,0.0,0.0,0.0,0.0,0.0,0.0,1.1025,1.1381,1.2106,1.2336,1.2543,1.287,1.2899,1.2899,1.2899,1.2899,0.0,0.0,0.0,0.0,0.0,0.0,0.0,0.0,0.0,0.0,1.4097,1.457,1.4939,0.0,0.0,0.0,0.0,0.0,0.0,0.0,0.0,0.0,0.0,0.0,0.0,0.0,0.0,0.0,0.0,0.0,0.0,0.0,0.0,0.0,0.0,0.0,0.0,0.0,0.0,0.0,1.9366,1.9961,2.0566,2.1016,2.1016,2.0664,2.0166,1.9628,1.9141,1.8664,1.8108,1.8225,1.8411,1.8411,1.8996,1.964,2.0107,2.0752,2.1635,2.2889,2.3584,2.4535,2.6111,2.8942,3.0674,3.0464,3.2054,3.3102,3.3102,3.3102,3.3102,3.3102,3.3102,3.3102,3.3102,3.3102,3.3102,3.3102,3.3102,3.3102,3.3102,3.3102,3.3102,3.3102,3.3102,3.2765,3.2167,3.1625,3.1097,3.056,3.0018,2.9801,2.9801,2.9801,2.9801,2.9801,2.9801,2.9801,2.9801,0.0,0.0,0.0,0.0,0.0,0.0,0.0,1.0805,1.1088,1.1638,1.1999,1.2311,1.2607,1.2795,1.2899,1.2899,1.2899,0.0,0.0,0.0,0.0,0.0,0.0,0.0,0.0,1.3147,1.3548,1.4097,1.4391,1.4827,1.5396,1.5396,1.493,0.0,0.0,0.0,0.0,0.0,0.0,0.0,0.0,0.0,0.0,0.0,0.0,0.0,0.0,0.0,0.0,0.0,0.0,0.0,0.0,0.0,0.0,0.0,1.6842,1.7882,1.8907,1.9638,2.0116,2.0116,1.9882,1.9551,1.9132,1.881,1.8489,1.8079,1.8205,1.8421,1.8568,1.9191,1.9824,2.0263,2.0977,2.1793,2.2741,2.3191,2.4289,2.6634,2.8912,3.0628,3.1484,3.2499,3.3102,3.3102,3.3102,3.3102,3.3102,3.3102,3.3102,3.3102,3.3102,3.3102,3.3102,3.3102,3.3102,3.3102,3.3102,3.3102,3.309,3.2866,3.2451,3.1876,3.1336,3.0796,0.0,2.9939,2.9801,2.9801,2.9801,2.9801,2.9801,2.9801,2.9801,2.9801,0.0,0.0,0.0,0.0,0.0,0.0,0.0,1.062,1.0874,1.0903,1.1628,1.2168,1.2203,1.2617,1.2899,1.2899,0.0,0.0,0.0,0.0,0.0,0.0,0.0,0.0,0.0,1.2899,1.3291,1.4097,1.4068,1.4504,1.5364,1.5318,1.4862,1.4065,1.4065,0.0,0.0,0.0,0.0,0.0,0.0,0.0,0.0,0.0,0.0,0.0,0.0,0.0,0.0,0.0,0.0,0.0,0.0,0.0,0.0,0.0,0.0,0.0,0.0,1.8477,1.912,1.9159,1.9159,1.9062,1.8655,1.8559,0.0,1.8077,1.8029,1.8176,1.8607,1.9053,1.9501,1.9961,2.1084,2.2297,2.3394,2.3832,2.4992,2.7524,2.8476,2.9775,3.1926,3.2712,3.3102,3.3102,3.3102,3.3102,3.3102,3.3102,3.3102,3.3102,3.3102,3.3102,3.3102,3.3102,3.3102,3.3102,3.3052,3.304,3.3027,3.2416,3.184,3.1321,3.0821,3.0306,2.9801,2.9801,2.9801,2.9801,2.9801,2.9801,2.9801,2.9801,2.9801,2.9801,0.0,0.0,0.0,0.0,0.0,0.0,0.0,0.0,0.0,0.0,1.1392,1.1857,1.2164,1.2617,1.2899,0.0,0.0,0.0,0.0,0.0,0.0,0.0,0.0,0.0,0.0,1.2899,1.3291,1.4097,1.3789,1.4092,1.4929,1.4569,1.4124,1.3639,1.3639,0.0,0.0,0.0,0.0,0.0,0.0,0.0,0.0,0.0,0.0,0.0,1.4214,1.4502,0.0,0.0,0.0,0.0,0.0,0.0,0.0,0.0,1.5816,1.6171,1.6467,0.0,1.7396,1.7761,1.7849,1.7899,0.0,1.8137,1.8108,1.8029,0.0,1.8694,1.9454,1.9679,2.0127,2.125,2.169,2.2407,2.3824,2.5453,2.6639,2.7078,2.8945,3.0518,3.1349,3.2438,3.3102,3.3102,3.3102,3.3102,3.3102,3.3102,3.3102,3.3102,3.3102,3.3102,3.3102,3.3102,3.3102,3.309,3.2629,3.2405,3.239,3.1838,3.1298,3.0773,3.0651,3.0306,2.9801,2.9801,2.9801,2.9801,2.9801,2.9801,2.9801,2.9801,2.9801,2.9801,0.0,0.0,0.0,0.0,0.0,0.0,0.0,0.0,0.0,0.0,0.0,0.0,0.0,0.0,0.0,0.0,0.0,0.0,0.0,0.0,0.0,0.0,0.0,0.0,1.2899,1.2899,1.3203,1.3821,1.361,1.3841,1.4469,1.4221,1.3896,1.3483,1.3311,0.0,0.0,0.0,0.0,0.0,0.0,0.0,0.0,0.0,0.0,0.0,1.3766,1.3987,0.0,1.4662,1.4941,1.5156,0.0,0.0,0.0,0.0,1.5576,1.5777,1.5777,1.6523,1.7366,1.7617,1.7804,1.8009,1.8225,1.8127,1.7999,0.0,0.0,0.0,1.9454,1.962,2.0049,2.1377,2.1758,2.2398,2.3811,2.585,2.7061,2.6669,2.8716,3.0349,3.0862,3.199,3.2803,3.3077,3.3102,3.2989,3.2692,3.269,3.2577,3.2336,3.2324,3.2575,3.309,3.2839,3.269,3.2677,3.2102,3.1838,3.1813,3.1286,3.0874,3.0598,3.0334,3.0068,2.9801,2.9801,2.9801,2.9801,2.9801,2.9801,2.9801,2.9801,2.9801,2.9801,0.0,0.0,0.0,0.0,0.0,0.0,0.0,0.0,0.0,0.0,0.0,0.0,0.0,0.0,0.0,0.0,0.0,0.0,0.0,0.0,0.0,0.0,0.0,1.2899,1.2899,1.2899,1.3098,1.3499,1.3441,1.361,1.4007,1.3948,1.373,1.3382,1.3049,0.0,0.0,0.0,0.0,0.0,0.0,0.0,0.0,0.0,0.0,0.0,0.0,0.0,0.0,1.4352,1.4636,1.4746,1.5093,0.0,0.0,0.0,0.0,0.0,1.5471,1.673,1.797,1.7825,1.8109,1.8431,1.849,0.0,0.0,0.0,0.0,0.0,0.0,1.9394,1.9805,2.1103,2.1843,2.2595,2.3568,2.5461,2.654,2.5981,2.774,2.9301,3.0111,3.1189,3.2111,3.279,3.2839,3.2614,3.2104,3.2079,3.1876,3.1409,3.1396,3.1861,3.2826,3.2328,3.2079,3.2066,3.1537,3.1283,3.1258,3.0723,3.0485,3.045,2.9993,2.9801,2.9801,2.9801,2.9801,2.9801,2.9801,2.9801,2.9801,2.9801,2.9801,2.9801,0.0,0.0,0.0,0.0,0.0,0.0,0.0,0.0,0.0,0.0,0.0,0.0,0.0,0.0,0.0,0.0,0.0,0.0,0.0,0.0,0.0,0.0,1.2899,1.2899,1.2899,1.2899,1.3098,1.3499,1.3167,1.32,1.3574,1.3242,1.3049,1.2987,1.2928,1.2899,0.0,0.0,0.0,0.0,0.0,0.0,0.0,0.0,0.0,0.0,0.0,0.0,0.0,1.3656,1.3929,1.4221,1.428,0.0,0.0,0.0,0.0,0.0,1.5784,1.6979,1.7815,1.7077,1.724,1.7666,1.801,0.0,0.0,0.0,0.0,0.0,0.0,1.9805,2.0244,2.1582,2.295,2.3699,2.3264,2.4324,2.4909,2.4267,2.5387,2.6769,2.818,2.9444,3.0582,3.1586,3.166,3.1622,3.1534,3.1522,3.1497,3.1396,3.1396,3.1484,3.166,3.1572,3.1522,3.1522,3.0984,3.0723,3.0701,3.0168,2.9917,2.9917,2.9839,2.9801,2.9801,2.9801,2.9801,2.9801,2.9801,2.9801,2.9801,2.9801,2.9801,2.9801,0.0,0.0,0.0,0.0,0.0,0.0,0.0,0.0,0.0,0.0,0.0,0.0,0.0,0.0,0.0,0.0,0.0,0.0,0.0,0.0,0.0,1.2899,1.2899,1.2899,1.2899,1.2899,1.2991,1.318,1.2991,1.2991,1.317,1.2987,1.2899,1.2899,1.2899,1.2899,1.2909,0.0,0.0,0.0,0.0,0.0,0.0,0.0,0.0,0.0,0.0,0.0,0.0,0.0,1.3613,1.3812,1.4029,0.0,0.0,0.0,0.0,0.0,1.5227,1.5977,1.6672,1.6994,1.7921,1.874,1.8711,1.8701,0.0,0.0,0.0,0.0,1.9756,2.0107,2.0703,2.2012,2.2995,2.3493,2.3149,2.4081,2.4465,2.353,2.4994,2.6481,2.7481,2.8631,2.9899,3.129,3.1396,3.1273,3.0984,3.0972,3.0834,3.0542,3.0542,3.0542,3.0542,3.0542,3.0683,3.0962,3.0422,3.0168,3.0168,2.9905,2.9801,2.9801,2.9801,2.9801,2.9801,2.9801,2.9801,2.9801,2.9801,2.9801,2.9801,2.9801,2.9801,2.9801,0.0,0.0,0.0,0.0,0.0,0.0,0.0,0.0,0.0,0.0,0.0,0.0,0.0,0.0,0.0,0.0,0.0,0.0,0.0,0.0,1.2899,1.2899,1.2899,1.2899,1.2899,1.2899,1.2899,1.2899,1.2899,1.2899,1.2899,1.2899,1.2899,1.2899,1.2899,1.2899,1.2899,0.0,0.0,0.0,0.0,0.0,0.0,0.0,0.0,0.0,0.0,0.0,0.0,0.0,0.0,0.0,0.0,0.0,0.0,1.3929,1.3958,1.4094,1.4756,1.5251,1.583,1.6961,0.0,1.918,1.9277,1.9209,0.0,0.0,0.0,0.0,2.0127,2.0674,2.1397,2.247,2.2897,2.3189,2.3463,2.4253,2.4585,2.3973,2.5442,2.6763,2.7428,2.8229,2.9359,3.0914,3.1032,3.0856,3.0435,3.0409,3.0221,2.9804,2.9801,2.9801,2.9801,2.9801,3.0005,3.0409,2.9993,2.9801,2.9801,2.9801,2.9801,2.9801,2.9801,2.9801,2.9801,2.9801,2.9801,2.9801,2.9801,2.9801,2.9801,2.9801,2.9801,2.9801,0.0,0.0,0.0,0.0,0.0,0.0,0.0,0.0,0.0,0.0,0.0,0.0,0.0,0.0,0.0,0.0,0.0,0.0,0.0,0.0,1.2899,1.2899,1.2899,1.2899,1.2899,1.2899,1.2899,1.2899,1.2899,1.2899,1.2899,1.2899,1.2899,1.2899,1.2899,0.0,0.0,0.0,0.0,0.0,0.0,0.0,0.0,0.0,0.0,0.0,0.0,0.0,0.0,0.0,0.0,0.0,0.0,0.0,1.3059,1.3431,1.3542,1.3812,1.5032,1.5698,1.6165,1.6627,1.6843,0.0,1.8944,1.8966,0.0,1.9688,0.0,0.0,2.1025,2.1796,2.2519,2.2985,2.3081,2.3464,2.4532,2.4745,2.5157,2.6141,2.64,2.6904,2.7943,2.8103,2.8649,2.9837,2.9927,2.9902,2.9864,2.9864,2.9839,2.9801,2.9801,2.9801,2.9801,2.9801,2.9826,2.9864,2.9826,2.9801,2.9801,2.9801,2.9801,2.9801,2.9801,2.9801,2.9801,2.9801,2.9801,2.9801,2.9801,2.9801,2.9801,2.9801,2.9801,2.9801,0.0,0.0,0.0,0.0,0.0,0.0,0.0,0.0,0.0,0.0,0.0,0.0,0.0,0.0,0.0,0.0,0.0,0.0,0.0,0.0,1.2899,1.2899,1.2899,1.2899,1.2899,1.2899,1.2899,1.2899,1.2899,1.2899,1.2899,1.2899,1.2899,1.2899,1.2899,0.0,0.0,0.0,0.0,0.0,0.0,0.0,0.0,0.0,0.0,0.0,0.0,0.0,0.0,0.0,1.2899,1.2899,1.2899,1.2899,1.2928,1.3079,1.3137,1.3287,1.4017,1.4743,1.5522,1.6461,1.6697,0.0,0.0,1.9375,2.001,2.0596,2.1084,0.0,0.0,2.2284,2.2625,2.3023,2.3091,2.3496,2.4638,2.4798,2.5221,2.6358,2.6504,2.6924,2.8006,2.8106,2.8577,2.9702,2.9801,2.9801,2.9801,2.9801,2.9801,2.9801,2.9801,2.9801,2.9801,2.9801,2.9801,2.9801,2.9801,2.9801,2.9801,2.9801,2.9801,2.9801,2.9801,2.9801,2.9801,2.9801,2.9801,2.9801,2.9801,2.9801,2.9801,2.9801,2.9801,2.9801,0.0,0.0,0.0,0.0,0.0,0.0,0.0,0.0,0.0,0.0,0.0,0.0,0.0,0.0,0.0,0.0,0.0,0.0,0.0,1.2432,1.2682,1.2682,1.2825,1.2899,1.2899,1.2899,1.2899,1.2899,1.2899,1.2899,1.2899,1.2899,1.2899,1.2899,0.0,0.0,0.0,0.0,0.0,0.0,0.0,0.0,0.0,0.0,0.0,0.0,0.0,0.0,0.0,0.0,1.2899,1.2899,0.0,0.0,1.2899,1.2899,1.2987,1.318,1.3581,1.4228,1.5083,0.0,0.0,0.0,1.8344,1.9522,2.0586,2.1279,2.1884,2.2362,2.2645,2.2693,2.2781,2.3063,2.3397,2.4027,2.5178,2.563,2.6264,2.7403,2.7535,2.7829,2.8579,2.8636,2.8956,2.9743,2.9801,2.9801,2.9801,2.9801,2.9801,2.9801,2.9801,2.9801,2.9801,2.9801,2.9801,2.9801,2.9801,2.9801,2.9801,2.9801,2.9801,2.9801,2.9801,2.9801,2.9801,2.9801,2.9801,2.9801,2.9801,2.9801,2.9801,2.9801,2.9801,2.9801,0.0,0.0,0.0,0.0,0.0,0.0,0.0,0.0,0.0,0.0,0.0,0.0,0.0,0.0,0.0,0.0,0.0,0.0,1.1561,1.1967,1.2203,1.2198,1.2652,1.2905,1.2899,1.2899,1.2899,1.2899,1.2899,1.2899,1.2899,1.2899,1.2899,0.0,0.0,0.0,0.0,0.0,0.0,0.0,0.0,0.0,0.0,0.0,0.0,0.0,0.0,0.0,0.0,0.0,1.2899,1.2899,1.2899,0.0,0.0,1.2899,1.318,1.3597,1.3987,1.4446,1.5004,0.0,0.0,0.0,1.8431,1.9288,2.0293,2.1641,2.2548,2.3091,2.3091,2.3091,2.3091,2.3091,2.4049,2.5189,2.6338,2.741,2.8505,2.9663,2.9801,2.9801,2.9801,2.9801,2.9801,2.9801,2.9801,2.9801,2.9801,2.9801,2.9801,2.9801,2.9801,2.9801,2.9801,2.9801,2.9801,2.9801,2.9801,2.9801,2.9801,2.9801,2.9801,2.9801,2.9801,2.9801,2.9801,2.9801,2.9801,2.9801,2.9801,2.9801,2.9801,2.9801,2.9801,2.9801,0.0,0.0,0.0,0.0,0.0,0.0,0.0,0.0,0.0,0.0,0.0,0.0,0.0,0.0,0.0,0.0,0.0,0.0,1.1099,1.1525,1.1895,1.2188,1.233,1.2562,1.2889,1.2899,1.2899,1.2899,1.2899,1.2899,1.2899,1.2899,1.2899,1.2899,0.0,0.0,0.0,0.0,0.0,0.0,0.0,0.0,0.0,0.0,0.0,0.0,0.0,0.0,0.0,0.0,0.0,0.0,1.2899,0.0,1.3268,1.2981,1.318,1.3529,1.3649,1.4228,1.5083,1.6233,0.0,0.0,0.0,2.0186,0.0,0.0,2.2936,2.3091,2.3091,2.3091,2.3091,2.3091,2.3387,2.4285,2.6224,2.677,2.7676,2.9563,2.9801,2.9801,2.9801,2.9801,2.9801,2.9801,2.9801,2.9801,2.9801,2.9801,2.9801,2.9801,2.9801,2.9801,2.9801,2.9801,2.9801,2.9801,2.9801,2.9801,2.9801,2.9801,2.9801,2.9801,2.9801,2.9801,2.9801,2.9801,2.9801,2.9801,2.9801,2.9801,2.9801,2.9801,2.9801,2.9801,0.0,0.0,0.0,0.0,0.0,0.0,0.0,0.0,0.0,0.0,0.0,0.0,0.0,0.0,0.0,0.0,0.0,0.0,0.0,0.0,1.1505,1.1938,1.2106,1.2414,1.2889,1.2899,1.2899,1.2899,1.2899,1.2899,1.2899,1.2899,1.2899,1.2899,0.0,1.2899,0.0,0.0,0.0,0.0,0.0,1.2899,1.2899,0.0,0.0,0.0,0.0,0.0,0.0,0.0,0.0,0.0,1.2899,0.0,1.3248,1.316,1.3421,1.3808,1.4156,1.4773,1.562,1.6898,1.7729,1.8625,2.0079,0.0,0.0,2.2878,2.3091,2.3091,2.3091,2.3091,2.3091,2.3091,2.3475,2.4264,2.563,2.6574,2.7624,2.8969,2.9524,2.9801,2.9801,2.9801,2.9801,2.9801,2.9801,2.9801,2.9801,2.9801,2.9801,2.9801,2.9801,2.9801,2.9801,2.9801,2.9801,2.9801,2.9801,2.9801,2.9801,2.9801,2.9801,2.9801,2.9801,2.9801,2.9801,2.9801,2.9801,2.9801,2.9801,2.9801,2.9801,2.9801,2.9801,2.9801,0.0,0.0,0.0,0.0,0.0,0.0,0.0,0.0,0.0,0.0,0.0,0.0,0.0,0.0,0.0,0.0,0.0,0.0,0.0,0.0,1.107,1.1577,1.2031,1.2459,1.2889,1.2899,1.2899,1.2899,1.2899,1.2899,1.2899,1.2899,1.2899,1.2899,0.0,1.2899,0.0,0.0,0.0,0.0,1.2899,1.2899,1.2899,1.2899,0.0,0.0,0.0,0.0,0.0,0.0,0.0,0.0,1.2899,1.2928,1.302,1.335,1.3766,1.4283,1.5122,1.5681,1.6361,1.7725,1.8421,1.9211,2.083,2.1533,2.207,2.2878,2.3053,2.3063,2.3091,2.3091,2.3091,2.3091,2.3963,2.4681,2.4787,2.6531,2.7874,2.8086,2.9018,2.9682,2.9792,2.9801,2.9801,2.9801,2.9801,2.9801,2.9801,2.9801,2.9801,2.9801,2.9801,2.9801,2.9801,2.9801,2.9801,2.9801,2.9801,2.9801,2.9801,2.9801,2.9801,2.9801,2.9801,2.9801,2.9801,2.9801,2.9801,2.9801,2.9801,2.9801,2.9801,2.9801,2.9801,2.9801,0.0,0.0,0.0,0.0,0.0,0.0,0.0,0.0,0.0,0.0,0.0,0.0,0.0,0.0,0.0,0.0,0.0,0.0,0.0,0.0,1.0782,1.1567,1.2342,1.2795,1.2899,1.2899,1.2899,1.2899,1.2899,1.2899,0.0,0.0,0.0,1.2899,0.0,1.2899,0.0,0.0,0.0,1.2899,1.2899,1.2899,1.2899,1.2899,1.2899,0.0,0.0,0.0,0.0,0.0,0.0,0.0,1.2899,1.3118,1.3336,1.3098,1.3538,1.4214,1.4782,1.5232,1.6018,1.7982,1.9336,2.0351,2.1035,2.1278,2.159,2.2449,2.2625,2.2723,2.3043,2.3091,2.3091,2.3091,2.331,2.3779,2.467,2.521,2.6149,2.7894,2.8327,2.8828,2.9702,2.9801,2.9801,2.9801,2.9801,2.9801,2.9801,2.9801,2.9801,2.9801,2.9801,2.9801,2.9801,2.9801,2.9801,2.9801,2.9801,2.9801,2.9801,2.9801,2.9801,2.9801,2.9801,2.9801,2.9801,2.9801,2.9801,2.9801,2.9801,2.9801,2.9801,2.9801,2.9801,2.9801,0.0,0.0,0.0,0.0,0.0,0.0,0.0,0.0,0.0,0.0,0.0,0.0,0.0,0.0,0.0,0.0,0.0,0.0,0.0,0.0,1.0689,1.1561,1.2436,1.2899,1.2899,1.2682,1.2676,1.2899,1.2676,0.0,0.0,0.0,0.0,1.2899,0.0,1.2782,0.0,0.0,1.2562,1.2562,1.2562,1.2701,1.2899,1.2899,1.2899,1.2899,1.2899,0.0,0.0,0.0,0.0,0.0,0.0,0.0,1.3209,1.3184,1.348,1.3994,1.486,1.54,1.6248,1.8399,1.9609,2.0381,2.081,2.0908,2.1103,2.1747,2.2206,2.2557,2.2771,2.2965,2.3278,2.3833,2.3463,2.3691,2.5379,2.5609,2.6233,2.7904,2.8577,2.9157,2.9743,2.9801,2.9801,2.9801,2.9801,2.9801,2.9801,2.9801,2.9801,2.9801,2.9801,2.9801,2.9801,2.9801,2.9801,2.9801,2.9801,2.9801,2.9801,2.9801,2.9801,2.9801,2.9801,2.9801,2.9801,2.9801,2.9801,2.9801,2.9801,2.9801,2.9801,2.9801,2.9801,2.9801,0.0,0.0,0.0,0.0,0.0,0.0,0.0,0.0,0.0,0.0,0.0,0.0,0.0,0.0,0.0,0.0,0.0,0.0,0.0,1.0322,1.0762,1.1567,1.2367,1.2785,1.2785,1.24,1.2361,1.2686,1.2295,0.0,0.0,0.0,0.0,1.2899,0.0,0.0,0.0,0.0,1.2164,1.2098,1.2098,1.2334,1.2686,1.2686,1.2723,1.2785,1.2785,1.2825,1.2899,1.2899,0.0,0.0,0.0,0.0,1.2968,1.3301,1.3447,1.3753,1.4869,1.574,1.6772,1.87,1.9542,2.0,2.039,2.0537,2.0693,2.1025,2.1738,2.2304,2.2382,2.2894,2.3593,2.4534,2.4127,2.4349,2.6224,2.6504,2.6903,2.7976,2.8927,2.9573,2.9782,2.9801,2.9801,2.9801,2.9801,2.9801,2.9801,2.9801,2.9801,2.9801,2.9801,2.9801,2.9801,2.9801,2.9801,2.9801,2.9801,2.9801,2.9801,2.9801,2.9801,2.9801,2.9801,2.9801,2.9801,2.9801,2.9801,2.9801,2.9801,2.9801,2.9801,2.9801,2.9801,2.9801,0.0,0.0,0.0,0.0,0.0,0.0,0.0,0.0,0.0,0.0,0.0,1.0122,0.965,0.966,0.0,0.0,0.0,0.0,0.9689,0.0,0.0,1.1577,1.2051,1.2285,1.2285,1.2227,1.2059,1.1772,0.0,0.0,0.0,0.0,0.0,1.2899,0.0,0.0,0.0,0.0,0.0,1.1683,1.1683,1.1723,1.1772,1.1772,1.1994,1.2285,1.2285,1.2547,1.2899,1.2899,1.2899,0.0,0.0,0.0,1.2909,1.2961,1.3229,1.361,1.4133,1.5715,1.7459,1.8449,1.9308,1.9922,1.9981,2.0312,2.0625,2.0674,2.1055,2.1503,2.1915,2.3122,2.4096,2.4262,2.5266,2.6141,2.6462,2.6504,2.6903,2.7976,2.8235,2.8718,2.9702,2.9801,2.9801,2.9801,2.9801,2.9801,2.9801,2.9801,2.9801,2.9801,2.9801,2.9801,2.9801,2.9801,2.9801,2.9801,2.9801,2.9801,2.9801,2.9801,2.9801,2.9801,2.9801,2.9801,2.9801,2.9801,2.9801,2.9801,2.9801,2.9801,2.9801,2.9801,2.9801,2.9801,0.0,0.0,0.0,0.0,0.0,0.0,0.0,0.0,0.0,0.0,0.0,0.9747,0.9313,0.947,0.0,0.0,0.0,0.0,0.9587,1.0415,0.0,0.0,1.1632,1.1861,1.1861,1.1606,1.1514,1.1601,0.0,0.0,0.0,1.2404,1.2652,0.0,0.0,0.0,0.0,0.0,0.0,1.1577,1.1305,1.15,1.191,1.1693,1.1847,1.2198,1.2198,1.233,1.2553,1.2815,1.2899,1.2899,1.2899,0.0,0.0,0.0,1.3036,1.3408,1.4527,1.5732,1.6979,1.8275,1.8899,1.9308,1.9786,2.0059,2.0436,2.1219,2.1528,2.1783,2.2259,2.3542,2.4753,2.5388,2.5528,2.6093,2.7622,2.7332,2.7478,2.888,2.9057,2.9246,2.9753,2.9801,2.9801,2.9801,2.9801,2.9801,2.9801,2.9801,2.9801,2.9801,2.9801,2.9801,2.9801,2.9801,2.9801,2.9801,2.9801,2.9801,2.9801,2.9801,2.9801,2.9801,2.9801,2.9801,2.9801,2.9801,2.9801,2.9801,2.9801,2.9801,2.9801,2.9801,2.9801,2.9801,0.0,0.0,0.0,0.0,0.0,0.0,0.0,0.0,0.0,0.0,0.0,0.0,0.9186,0.0,0.0,0.0,0.0,0.0,0.9421,0.0,0.0,0.0,0.0,1.1423,1.1423,1.1079,1.1021,0.0,0.0,0.0,1.2049,1.2155,1.2449,0.0,1.2899,0.0,0.0,0.0,0.0,0.0,0.0,1.1293,1.1862,1.1779,1.1943,1.2223,1.2336,1.2375,0.0,0.0,1.2899,1.2899,1.2899,1.2899,0.0,0.0,0.0,1.3222,1.4674,1.5417,1.6146,1.7719,1.8276,1.8637,1.9405,1.9659,2.0144,2.156,2.2055,2.2446,2.3145,2.4245,2.5331,2.6181,2.5944,2.6355,2.8406,2.8007,2.8022,2.9416,2.9569,2.9628,2.9789,2.9801,2.9801,2.9801,2.9801,2.9801,2.9801,2.9801,2.9801,2.9801,2.9801,2.9801,2.9801,2.9801,2.9801,2.9801,2.9801,2.9801,2.9801,2.9801,2.9801,2.9801,2.9801,2.9801,2.9801,2.9801,2.9801,2.9801,2.9801,2.9801,2.9801,2.9801,2.9801,2.9801,0.0,0.0,0.0,0.0,0.0,0.0,0.0,0.0,0.0,0.0,0.0,0.0,0.0,0.0,0.0,0.0,0.0,0.0,0.0,0.0,0.0,0.0,0.0,0.0,1.0942,1.0908,0.0,0.0,0.0,0.0,1.1634,1.202,1.2449,1.2899,1.2899,1.2637,1.2168,0.0,0.0,0.0,0.0,0.0,1.1059,1.1862,1.2178,1.2262,1.2701,0.0,0.0,0.0,0.0,0.0,1.2899,1.2899,1.2899,0.0,0.0,0.0,1.3935,1.4515,1.5173,1.648,1.7417,1.8137,1.8568,1.9005,1.9736,2.1139,2.2186,2.3265,2.4633,2.5354,2.5768,2.5835,2.7008,2.7981,2.812,2.8092,2.8283,2.8885,2.8947,2.917,2.9741,2.9801,2.9801,2.9801,2.9801,2.9801,2.9801,2.9801,2.9801,2.9801,2.9801,2.9801,2.9801,2.9801,2.9801,2.9801,2.9801,2.9801,2.9801,2.9801,2.9801,2.9801,2.9801,2.9801,2.9801,2.9801,2.9801,2.9801,2.9801,2.9801,2.9801,2.9801,2.9801,2.9801,0.0,0.0,0.0,0.0,0.0,0.0,0.0,0.0,0.0,0.0,0.0,0.0,0.0,0.8936,0.8717,0.8006,0.0,0.0,0.0,0.0,0.0,0.0,0.0,0.0,0.0,0.0,0.0,0.0,0.0,1.0728,1.1163,1.1608,1.2041,1.2459,1.2766,1.2811,1.2617,1.2172,0.0,0.0,0.0,0.0,0.0,1.1787,1.1982,1.2256,1.2731,0.0,0.0,0.0,0.0,0.0,1.2899,1.2899,1.2899,1.2899,1.2899,1.3079,1.388,1.4221,1.4671,1.5984,1.7161,1.8178,1.8891,1.9812,2.092,2.2333,2.2911,2.3514,2.4662,2.5626,2.6253,2.6253,2.6711,2.7185,2.7541,2.7591,2.7783,2.8317,2.8389,2.8615,2.918,2.922,2.922,2.922,2.922,2.9079,2.8725,2.8712,2.8875,2.9217,2.922,2.9405,2.9801,2.9801,2.9801,2.9801,2.9801,2.9801,2.9801,2.9801,2.9801,2.9801,2.9801,2.9801,2.9801,2.9801,2.9801,2.9801,2.9801,2.9801,2.9801,2.9801,2.9801,2.9801,0.0,0.0,0.0,0.0,0.0,0.0,0.0,0.0,0.0,0.0,0.0,0.0,0.0,0.0,0.8919,0.8203,0.8428,0.8606,0.8606,0.0,0.0,0.0,0.0,0.0,0.0,0.0,0.0,0.0,0.0,0.0,0.0,1.1384,1.1735,1.2016,1.2316,1.2631,0.0,0.0,0.0,1.2184,0.0,0.0,1.2223,1.2379,1.2437,1.2527,0.0,0.0,0.0,0.0,0.0,0.0,1.2942,1.2899,1.2899,1.2899,1.2899,1.3016,1.3552,1.3799,1.4289,1.5902,1.6898,1.7894,1.9396,2.0232,2.1149,2.2769,2.3104,2.3455,2.4584,2.5423,2.5988,2.6164,2.6361,2.6625,2.6981,2.7031,2.7223,2.7767,2.7821,2.8037,2.858,2.8631,2.8631,2.8631,2.8631,2.848,2.8122,2.81,2.8263,2.8618,2.8819,2.9095,2.9493,2.9691,2.9801,2.9801,2.9801,2.9801,2.9801,2.9801,2.9801,2.9801,2.9801,2.9801,2.9801,2.9801,2.9801,2.9801,2.9801,2.9801,2.9801,2.9801,2.9801,2.9801,0.0,0.0,0.0,0.0,0.0,0.0,0.0,0.0,0.8044,0.8892,0.0,0.0,0.0,0.0,0.0,0.9039,0.9,0.9,0.9,0.9372,0.0,0.0,0.0,0.0,0.0,0.0,0.0,0.0,0.0,0.0,0.0,0.0,1.1581,1.1581,1.1591,1.2075,1.2825,0.0,1.2203,1.2217,0.0,1.2217,1.2367,0.0,1.36,0.0,1.4349,1.4255,0.0,1.3532,0.0,0.0,0.0,1.2899,1.2899,1.2899,1.2911,1.2929,0.0,0.0,0.0,1.6143,1.6588,1.7233,1.9931,2.0123,2.029,2.2277,2.2695,2.3103,2.4509,2.4758,2.4942,2.5473,2.6076,2.6474,2.6508,2.6508,2.6688,2.7211,2.7273,2.7487,2.8025,2.8084,2.8084,2.8084,2.8084,2.8072,2.805,2.8072,2.8084,2.8084,2.8593,2.8872,2.8872,2.9456,2.9764,2.9767,2.9767,2.9789,2.9801,2.9801,2.9801,2.9801,2.9801,2.9801,2.9801,2.9801,2.9801,2.9801,2.9801,2.9801,2.9801,2.9801,2.9801,2.9801,0.0,0.0,0.0,0.0,0.0,0.9436,0.9436,0.8987,0.8728,0.0,0.0,0.0,0.9365,0.9239,0.9122,0.9009,0.9,0.9,0.9,0.9372,0.9597,0.9597,1.0049,1.0303,1.0303,0.0,0.0,0.0,1.0415,1.0474,1.0484,1.0899,1.1089,0.0,1.1448,1.1732,1.1948,1.1819,0.0,1.2682,1.2336,1.2574,0.0,0.0,0.0,0.0,0.0,1.4424,1.3994,0.0,1.4014,1.3431,0.0,0.0,0.0,1.2899,1.3208,1.3552,1.3552,0.0,0.0,0.0,0.0,0.0,1.8895,1.985,2.0803,2.214,2.2407,2.2648,2.3433,2.3926,2.4268,2.4418,2.523,2.6005,2.6445,2.6508,2.6558,2.67,2.6725,2.693,2.7474,2.7516,2.7516,2.7516,2.7516,2.7349,2.6955,2.7311,2.7516,2.7516,2.8037,2.8317,2.8317,2.8499,2.8765,2.9145,2.9145,2.938,2.9801,2.9801,2.9801,2.9801,2.9801,2.9801,2.9801,2.9801,2.9801,2.9801,2.9801,2.9801,2.9801,2.9801,2.9801,2.9801,0.0,0.0,0.0,0.0,0.0,0.9597,0.9597,0.9264,0.9064,0.0,0.0,0.0,0.9545,0.9697,0.9722,0.9555,0.9545,0.9545,0.9545,0.9761,0.9893,0.9893,1.0151,1.0303,1.0303,1.0303,1.0303,1.0303,1.0303,1.0303,1.0312,1.0542,1.065,1.0654,1.0944,1.1149,1.1301,1.1135,0.0,0.0,1.2517,0.0,0.0,1.3688,1.3899,0.0,0.0,0.0,1.443,1.4704,1.4225,0.0,0.0,1.3354,1.3223,1.3553,1.3838,0.0,0.0,0.0,0.0,1.5892,0.0,0.0,1.9136,1.9948,2.0647,2.1744,2.2132,2.2395,2.2714,2.3236,2.3708,2.3954,2.4519,2.5217,2.6013,2.6126,2.6214,2.6461,2.6508,2.6612,2.6939,2.6968,2.6968,2.6968,2.6968,2.6839,2.652,2.6801,2.6968,2.6968,2.7487,2.7767,2.7767,2.7996,2.8263,2.8568,2.8568,2.8753,2.9089,2.9089,2.9089,2.9089,2.9089,2.9214,2.9418,2.9418,2.9569,2.9801,2.9801,2.9801,2.9801,2.9801,2.9801,2.9801,0.0,0.0,1.0303,1.0303,0.9952,0.9684,0.9684,0.9371,0.9269,0.0,0.9718,0.9923,1.0386,1.0718,1.0762,1.0396,1.0332,1.0303,1.0303,1.0303,1.0303,1.0303,1.0303,1.0303,1.0303,1.0303,1.0303,1.0303,1.0303,1.0303,1.0303,1.0303,0.0,1.0303,1.0303,1.0498,1.0815,1.0567,1.1099,1.2164,1.2643,1.3115,0.0,0.0,1.4211,1.4348,1.5115,1.5176,1.4858,1.4819,1.4284,0.0,1.4243,1.4066,1.3831,1.457,1.4762,0.0,1.4937,1.5039,0.0,1.6944,1.6949,0.0,1.9752,1.9962,1.9949,2.108,2.1694,2.2063,2.2189,2.2601,2.3103,2.364,2.3766,2.4205,2.5347,2.5561,2.5804,2.6336,2.6457,2.6508,2.6508,2.6508,2.6508,2.6508,2.6508,2.6508,2.6508,2.6508,2.6508,2.6508,2.6955,2.7211,2.7211,2.767,2.795,2.8009,2.8009,2.8037,2.81,2.81,2.81,2.81,2.81,2.8367,2.8809,2.8809,2.9195,2.9801,2.9801,2.9801,2.9801,2.9801,2.9801,2.9801,0.0,0.9976,1.0303,1.0303,1.0224,1.0161,1.0161,1.0102,1.0068,1.0151,1.0449,1.0835,1.1297,1.1085,1.0874,1.0786,1.0493,1.0303,1.0303,1.0303,1.0303,1.0303,1.0303,1.0303,1.0303,1.0303,1.0303,1.0303,1.0303,1.0303,1.0303,0.0,0.0,0.0,1.0303,1.0347,1.0454,1.1081,1.1488,1.1751,1.2166,1.3003,1.4029,1.4492,1.4856,1.5171,1.5337,1.5354,1.5227,1.4916,1.4692,1.4527,0.0,1.462,1.4931,1.525,1.5996,1.6742,1.6781,1.7152,1.75,1.7398,1.7621,0.0,1.8016,1.8285,1.8826,1.9918,2.0213,2.0577,2.1488,2.1739,2.1852,2.1972,2.2347,2.318,2.4741,2.5335,2.5636,2.5757,2.6201,2.6508,2.6508,2.6508,2.6508,2.6508,2.6508,2.6508,2.6508,2.6508,2.6508,2.6508,2.66,2.6663,2.6663,2.6763,2.7031,2.7453,2.7453,2.767,2.81,2.81,2.81,2.81,2.81,2.815,2.8263,2.8263,2.8875,2.9801,2.9801,2.9801,2.9801,2.9801,2.9801,2.9801,0.0,1.0141,1.0303,1.0303,1.0303,1.0303,1.0303,1.0303,1.0366,1.0571,1.1152,1.1567,1.1601,1.1394,1.1148,1.0923,1.0532,1.0303,1.0303,1.0303,1.0303,1.0303,1.0303,1.0303,1.0303,1.0303,1.0303,1.0303,1.0303,1.0303,1.0303,1.0303,1.0415,1.0591,1.0386,1.0537,1.0954,1.1158,1.15,1.1953,1.2595,1.3354,1.4146,1.4619,1.5049,1.5396,1.5396,1.5396,1.5378,1.5277,1.5292,0.0,1.5658,1.5906,1.6135,0.0,1.6997,1.7554,1.7397,1.7767,1.8141,1.7871,1.8003,0.0,0.0,1.8405,1.8832,1.9629,1.9798,2.0068,2.0949,2.1099,2.1187,2.1457,2.1945,2.2495,2.3068,2.4104,2.4908,2.5163,2.5695,2.6051,2.6051,2.6323,2.6508,2.6508,2.6508,2.6508,2.6508,2.6508,2.6508,2.6508,2.6508,2.6508,2.6508,2.6508,2.6637,2.6893,2.6893,2.7043,2.7298,2.7298,2.7298,2.7298,2.7298,2.7453,2.7704,2.7704,2.8206,2.895,2.895,2.9126,2.9318,2.9051,2.895,2.895,0.0,1.0303,1.0303,1.0303,1.0303,1.0303,1.0303,1.0303,1.0484,1.0967,1.1706,1.2112,1.1879,0.0,0.0,0.0,1.0777,1.0508,1.042,1.0415,1.0415,1.0415,1.0347,1.0337,1.041,1.0337,1.0303,1.0303,1.0303,1.0303,1.0303,1.0303,1.0513,1.0884,1.0562,0.0,0.0,1.1285,1.1556,1.2285,1.3233,1.376,1.4036,1.459,1.5007,1.5288,1.5366,1.549,1.5641,1.58,1.6013,1.635,1.7041,1.7289,0.0,0.0,0.0,1.821,1.7943,1.8172,1.8487,1.8386,1.8436,1.8574,0.0,0.0,0.0,1.9566,1.9654,1.9823,2.0421,2.044,2.0546,2.1093,2.1543,2.1719,2.1394,2.2605,2.3766,2.4395,2.505,2.5448,2.5448,2.5791,2.6097,2.6311,2.6227,2.6273,2.6495,2.6508,2.6508,2.6508,2.6508,2.6508,2.6508,2.6508,2.6508,2.6508,2.6508,2.6508,2.6508,2.6508,2.6508,2.6508,2.6508,2.6751,2.7157,2.7157,2.7453,2.7959,2.805,2.8355,2.8684,2.8263,2.81,2.81,1.0205,1.0303,1.0303,1.0303,1.0303,1.0303,1.0303,1.0303,1.0596,1.1409,1.1924,1.2336,0.0,0.0,0.0,0.0,0.0,0.0,1.0864,1.083,1.083,1.083,1.0488,1.0469,1.082,1.0479,1.0303,1.0303,1.0303,1.0303,1.0303,1.0303,1.0513,1.0898,1.0854,1.1119,1.162,1.1922,1.211,1.2315,1.3542,1.3848,1.3665,1.4496,1.4828,1.4909,1.5276,1.582,1.6383,1.6401,1.6844,1.7447,1.7718,1.8132,1.8551,1.8765,0.0,0.0,0.0,0.0,1.9497,1.9026,1.9271,1.9397,1.8487,0.0,1.902,1.9083,0.0,1.9265,1.9798,0.0,0.0,1.9911,2.0043,2.0244,2.0717,2.1363,2.2159,2.317,2.4244,2.4892,2.4892,2.4511,2.4677,2.5632,2.5264,2.5435,2.6457,2.6508,2.6508,2.6508,2.6508,2.6508,2.6508,2.6508,2.6508,2.6508,2.6508,2.6508,2.6508,2.6508,2.6508,2.6508,2.6508,2.6524,2.6587,2.6587,2.6905,2.7437,2.7908,2.8138,2.8176,2.8125,2.81,2.81,0.9859,1.0107,0.0,1.0303,1.0303,1.0303,1.0303,1.0728,1.1271,1.1871,1.2334,1.2676,0.0,0.0,0.0,0.0,0.0,1.1522,0.0,0.0,0.0,1.131,1.0874,1.0732,1.0903,1.0508,1.0303,1.0303,1.0303,1.0303,1.0303,1.0303,1.0665,1.1295,1.1025,1.1436,1.2353,1.2238,1.2365,1.267,1.3438,1.3643,1.3626,1.4727,1.5146,1.5176,1.5344,1.5606,1.5874,1.5997,1.6731,1.7639,1.7838,1.8558,1.9287,1.9064,0.0,0.0,0.0,1.9823,2.0113,1.9221,1.9666,2.0037,1.892,1.9083,1.9459,1.9459,0.0,0.0,0.0,0.0,0.0,0.0,2.0094,2.0175,1.9773,2.0747,2.1663,2.2114,2.2872,2.3607,2.4272,2.4134,2.4318,2.5088,2.4636,2.482,2.5917,2.5979,2.6139,2.6495,2.6508,2.6508,2.6508,2.6508,2.6508,2.6508,2.6508,2.6508,2.6508,2.6508,2.6508,2.6508,2.6508,2.6508,2.6508,2.6508,2.6637,2.6855,2.7072,2.7352,2.7604,2.7286,2.7173,2.7173,0.0,0.0,0.0,0.0,1.0303,1.0337,1.0454,1.1202,1.1876,1.2164,1.2607,0.0,1.2899,1.2598,0.0,0.0,1.2121,1.1899,0.0,0.0,1.1755,1.1755,1.1329,1.1089,1.1089,1.0684,1.0415,1.0303,1.0303,1.0303,1.0303,1.0303,1.0699,1.1394,1.1188,1.1695,1.2701,1.2599,1.2752,1.3108,1.3643,1.3919,1.4114,1.4932,1.5305,1.5396,1.5396,1.5661,1.6032,1.6171,1.7093,1.826,1.8571,1.9187,1.9761,1.9535,0.0,0.0,1.9327,1.9823,2.022,1.924,1.9616,1.9987,1.9001,1.9315,1.9761,1.961,1.9516,0.0,0.0,0.0,1.9127,1.9516,0.0,1.9943,1.9127,2.0049,2.0865,2.101,2.1649,2.241,2.3226,2.3183,2.3439,2.4269,2.3846,2.4072,2.531,2.5523,2.5804,2.6248,2.6411,2.6508,2.6508,2.6508,2.6508,2.6508,2.6508,2.6508,2.6508,2.6508,2.6508,2.6508,2.6508,2.6508,2.6512,2.6739,2.6833,2.6858,2.7087,2.7416,2.7662,2.6806,2.6508,2.6508,0.9597,0.9976,0.0,0.0,1.0303,1.043,1.082,1.1624,1.2194,1.2198,1.2607,0.0,0.0,0.0,0.0,0.0,0.0,1.2668,1.2207,0.0,1.2178,1.2178,1.1788,1.1577,0.0,1.1124,1.0693,1.0303,1.0303,1.0303,1.0303,1.0303,1.0523,1.0937,1.1379,1.1823,1.2276,1.3103,1.347,1.3564,1.4411,1.499,1.5305,1.4948,1.5059,1.5396,1.5396,1.6323,1.7526,1.7535,1.8516,1.9834,2.0419,2.0238,1.9918,2.0478,2.0238,1.9798,1.9779,1.9798,1.9698,1.9146,1.9033,1.8907,1.8343,1.9039,1.9654,1.9133,1.9893,2.0471,1.9899,1.9365,1.9008,1.9014,1.9039,0.0,0.0,1.9045,1.9271,1.9798,2.084,2.1538,2.1583,2.1112,2.1457,2.3045,2.2659,2.3073,2.4741,2.5322,2.5607,2.5632,2.6197,2.6508,2.6508,2.6508,2.6508,2.6508,2.6508,2.6508,2.6508,2.6508,2.6508,2.6508,2.6508,2.6508,2.6555,2.7334,2.7662,2.7753,2.8588,2.8937,2.8752,2.7108,2.6508,2.6508,0.0,0.0,0.0,0.0,0.0,1.0537,1.1252,1.184,1.2311,1.2617,1.2799,1.2899,0.0,1.2899,1.2899,0.0,0.0,1.2825,1.2666,1.2656,0.0,1.2656,1.2236,1.2002,0.0,1.1583,1.1296,1.1164,1.085,1.0865,1.115,0.0,0.0,0.0,1.1653,1.2001,1.2701,1.3255,1.3499,1.3578,1.445,1.5046,1.5393,1.5254,1.5276,1.5396,1.5396,1.6026,1.6866,1.6866,1.7852,1.9114,1.9309,1.9565,1.9836,2.0043,1.9968,1.9886,2.0295,2.0646,2.0696,1.976,1.9823,1.9786,1.8487,1.9026,1.9654,1.9108,1.9905,2.0515,1.9918,1.9654,1.9535,1.9535,1.9535,1.9284,0.0,1.816,1.8273,1.9164,1.9911,2.0533,2.0923,2.0811,2.1225,2.2483,2.2076,2.2498,2.4184,2.4443,2.4699,2.5063,2.5272,2.5544,2.5904,2.5904,2.6101,2.6508,2.6508,2.6508,2.6512,2.7057,2.7284,2.7325,2.7896,2.8157,2.8133,2.7835,2.8043,2.8532,2.8255,2.8492,2.8931,2.8355,2.8157,2.8157,1.0332,0.0,0.0,0.0,0.0,1.0997,1.1706,1.2178,1.2559,1.2854,1.302,1.3112,1.3112,0.0,1.3336,0.0,1.3336,1.3268,1.3121,1.3112,0.0,1.2915,1.2607,0.0,0.0,1.1949,1.1735,1.1601,1.1301,1.1295,1.1581,1.0855,0.0,0.0,1.1717,1.1985,1.2701,1.3415,1.3711,1.3796,1.4661,1.5176,1.5396,1.5396,1.5563,1.5791,1.5791,1.6429,1.7281,1.7281,1.8085,1.9133,1.9341,1.959,1.9849,2.0056,2.0119,2.0201,2.0591,2.1087,2.1274,2.0351,2.0408,2.0314,1.8826,1.9334,1.9968,1.9397,2.0037,2.0641,2.0445,2.0075,1.9798,1.9798,1.9798,1.9434,0.0,1.7738,1.7663,1.8343,1.907,1.9748,2.032,2.0207,2.0634,2.192,2.152,2.1947,2.3587,2.3883,2.4167,2.4503,2.4696,2.4967,2.5314,2.5322,2.5607,2.6176,2.6176,2.6298,2.6512,2.7049,2.7434,2.7736,2.8282,2.8708,2.8979,2.8732,2.8963,2.9426,2.916,2.9387,2.9827,2.9223,2.9002,2.9002,1.04,1.0352,0.0,1.0386,1.1081,1.176,1.2135,1.2607,1.2915,1.2928,1.3262,1.3509,1.3529,1.387,1.4097,1.4097,1.4097,1.3938,1.3552,1.3529,0.0,0.0,1.2928,1.2705,1.2237,0.0,0.0,1.1659,1.1634,1.1634,1.1644,1.1158,0.0,0.0,1.1634,1.1847,1.2315,1.3571,1.4127,1.4241,1.5074,1.5396,1.5396,1.5396,1.5856,1.6507,1.6507,1.7447,1.8701,1.8701,1.9189,1.9899,2.0471,2.0257,1.9918,2.0515,2.0698,2.0711,2.0754,2.115,2.1419,2.0905,2.0761,2.0453,1.9346,1.9936,2.0566,1.9968,2.0339,2.0918,2.1382,2.0583,1.983,1.9804,1.9773,1.9403,1.8386,1.7776,1.7455,1.7486,1.8386,1.919,1.9666,1.9277,1.9666,2.1287,2.0968,2.1394,2.2982,2.36,2.3952,2.4008,2.4504,2.4814,2.4866,2.4866,2.5139,2.5673,2.5673,2.5992,2.6577,2.6616,2.7069,2.7835,2.7863,2.8355,2.9184,2.9973,3.0322,3.0427,3.1168,3.1452,3.1299,2.9705,2.9121,2.9121,1.0771,1.1027,1.1365,1.1659,1.1903,1.2082,1.2172,1.2607,1.301,1.3311,1.3437,1.361,1.3909,1.4039,1.4097,1.4097,1.4097,0.0,0.0,0.0,0.0,1.3353,1.335,1.3145,1.2731,1.2721,1.2668,1.2569,1.2217,1.2227,1.2553,0.0,0.0,0.0,0.0,1.2305,1.2773,1.3711,1.4475,1.5093,1.5308,1.5396,1.5396,1.5396,1.5856,1.6507,1.6507,1.7447,1.8701,1.8701,1.9189,1.9823,1.9981,1.9924,1.9918,2.0515,2.0698,2.0867,2.1669,2.1995,2.2063,2.192,2.1588,2.1105,2.0421,2.0798,2.1137,2.0572,2.1231,2.1689,2.1031,2.0666,2.032,1.9874,1.9466,1.9108,1.8832,1.833,1.8135,1.8537,1.8832,1.8895,1.8643,1.8851,1.934,2.0175,2.0521,2.1225,2.2445,2.2646,2.3191,2.4194,2.4365,2.4879,2.5827,2.5848,2.6109,2.6637,2.6637,2.6975,2.7635,2.8293,2.8975,2.9667,3.0261,3.0644,3.0829,3.0442,3.0644,3.1153,3.0762,3.0977,3.1445,3.1021,3.0859,3.0859,1.1236,1.1564,1.1928,1.2164,1.2521,1.2765,1.2765,1.2842,1.304,1.3447,1.3643,1.3857,1.4085,1.4445,1.4667,1.4667,1.4667,0.0,1.442,0.0,0.0,1.3779,1.3591,1.3392,1.317,1.2987,0.0,1.2899,0.0,0.0,1.288,0.0,0.0,0.0,1.2404,1.2459,1.2952,1.3766,1.4501,1.5185,1.5678,1.5878,0.0,1.6237,1.6821,1.7461,1.7461,1.8009,1.8748,1.9071,1.9462,1.9798,1.9798,1.9798,1.9868,2.0207,2.066,2.1175,2.1789,2.2282,2.2651,2.2651,2.242,2.1995,2.1225,2.1281,2.1344,2.0805,2.0967,2.1172,2.1074,2.0647,2.0207,1.9868,1.9346,1.9002,1.9002,1.8543,1.8229,1.8292,1.8506,1.8343,1.7527,1.8174,1.8876,1.9409,1.9754,2.068,2.2338,2.2351,2.2905,2.4251,2.4299,2.464,2.5366,2.5696,2.612,2.6647,2.6647,2.6971,2.7584,2.8073,2.8871,2.9895,3.0338,3.0902,3.1452,3.1014,3.1087,3.1452,3.0999,3.1095,3.1503,3.1503,3.1503,3.1503,1.1746,1.2045,1.2354,1.2301,1.2966,1.3519,1.3571,1.3281,1.32,1.3623,1.3974,1.4211,1.4263,1.4947,1.5396,1.5396,1.5396,1.5247,1.49,1.4877,1.4668,1.4211,1.3854,1.3617,1.3499,1.3167,1.2952,0.0,0.0,1.2899,1.2889,1.2478,0.0,0.0,1.2469,1.2635,1.3252,1.3955,1.4601,1.5247,1.6248,1.6638,1.6715,1.7357,1.8009,1.8568,1.8668,1.8761,1.894,1.9573,1.9798,1.9804,1.9886,1.9918,1.9949,2.0087,2.0828,2.1613,2.1689,2.2383,2.31,2.31,2.31,2.2839,2.1832,2.1601,2.1457,2.0918,2.0389,2.03,2.1231,2.0521,1.9798,1.9798,1.9409,1.9102,1.9102,0.0,0.0,0.0,1.8078,0.0,1.6731,1.7583,1.8368,1.8763,1.892,2.0022,2.2366,2.2398,2.3024,2.4533,2.4588,2.4588,2.4588,2.5321,2.5876,2.6242,2.6342,2.6669,2.721,2.721,2.7985,2.9341,2.9421,3.0185,3.1376,3.1458,3.1503,3.1503,3.1503,3.1503,3.1503,3.1503,3.1503,3.1503,1.2112,0.0,0.0,0.0,1.318,1.361,1.3938,1.3938,1.4052,1.4509,1.4636,1.4805,1.5142,1.5308,1.5396,1.5396,1.5396,1.5366,1.5305,1.5288,1.511,1.4694,1.4613,1.4245,1.3519,1.3431,1.3232,0.0,1.2899,1.2899,1.2899,1.2815,1.2825,1.2905,1.2815,1.3527,1.481,1.4953,1.5815,1.7126,1.7331,1.7406,1.7419,1.755,1.7688,1.7868,1.8481,1.909,1.9631,1.976,1.9798,1.9886,2.039,2.0541,2.0717,2.1599,2.2001,2.2264,2.2701,2.2957,2.31,2.31,2.31,2.2932,2.2295,2.2164,2.2008,2.1469,2.1281,2.113,2.088,2.0276,1.9798,1.9798,1.9717,1.9654,1.9654,1.9585,0.0,0.0,0.0,1.8926,1.7387,1.7827,1.8053,1.7713,1.8493,1.9856,2.1823,2.2332,2.3642,2.6039,2.6109,2.6109,2.6109,2.6844,2.6955,2.6454,2.7058,2.7692,2.8322,2.8322,2.8764,2.9574,3.0066,3.0441,3.0717,3.1271,3.1503,3.1503,3.1503,3.1503,3.1503,3.1503,3.1503,3.1503,1.3198,0.0,0.0,0.0,1.3678,1.3955,1.4397,1.4637,1.4781,1.4799,1.4799,1.487,1.5075,1.5283,1.5396,1.5396,1.5396,1.5396,1.5396,1.5396,1.5315,1.5117,1.4916,1.4597,1.418,1.3724,1.3408,1.3209,1.3001,1.2899,1.2899,1.2899,1.2899,1.2909,1.3118,1.3837,1.4915,1.5368,1.6234,1.7346,1.7928,1.8171,1.8207,1.8601,1.8741,1.8788,1.9143,1.9694,2.027,2.027,2.027,2.0371,2.0936,2.1112,2.1225,2.1732,2.2076,2.2357,2.2614,2.2895,2.31,2.31,2.2895,2.2538,2.2008,2.1663,2.1306,2.0734,2.0621,2.0533,2.0276,1.9993,1.9798,1.9798,1.9798,1.9798,1.9798,1.9798,1.9503,0.0,0.0,0.0,1.7127,1.7926,1.8373,1.7895,1.8315,1.9828,2.2683,2.2691,2.3803,2.6421,2.6504,2.6504,2.6504,2.7235,2.742,2.7066,2.7427,2.7764,2.8081,2.8081,2.844,2.9092,2.9385,2.9887,3.0545,3.1212,3.1503,3.1503,3.1503,3.1503,3.1503,3.1503,3.1503,3.1503,1.4117,1.3932,1.3835,1.4058,1.4182,1.4364,1.4733,1.5146,1.5293,1.4968,1.4936,1.4936,1.4936,1.5215,1.5396,1.5396,1.5396,1.5396,1.5396,1.5396,1.5396,1.5396,1.5105,1.4887,1.4799,1.4128,1.3691,1.3499,1.318,1.2981,1.2899,1.2899,1.303,1.3281,1.3585,1.4336,1.5389,1.6081,1.6837,1.7663,1.8573,1.8927,1.8993,1.9573,1.9874,1.9993,1.9993,2.0371,2.0887,2.0999,2.0968,2.0968,2.1507,2.1663,2.1689,2.1814,2.2139,2.247,2.247,2.2789,2.3075,2.2957,2.2614,2.2126,2.1482,2.0999,2.0528,1.9924,1.9798,1.9798,1.9798,1.9798,1.9798,1.9798,1.992,2.001,2.001,2.001,1.9698,0.0,0.0,0.0,1.7224,1.7975,1.855,1.8486,1.853,1.993,2.3068,2.298,2.3966,2.6435,2.6525,2.6504,2.6504,2.7235,2.7524,2.7369,2.7537,2.7606,2.7606,2.7606,2.7893,2.8404,2.8539,2.9318,3.0545,3.1212,3.1503,3.1503,3.1503,3.1503,3.1503,3.1503,3.1503,3.1503,1.4182,1.4417,1.4558,1.4172,1.4456,1.475,1.4789,1.5146,1.5393,1.5354,1.5337,1.5337,1.5337,1.5383,1.5396,1.5396,1.5396,1.5396,1.5396,1.5396,1.5396,1.5396,1.5357,1.5176,1.4816,1.4721,1.4294,1.3499,1.346,1.3258,1.2899,1.2899,1.3453,1.4441,1.4483,1.5714,1.7779,1.7855,1.853,1.9549,1.9651,1.9702,1.9702,1.9766,2.0138,2.0623,2.0623,2.0961,2.1507,2.1995,2.1832,2.152,2.2058,2.2227,2.232,2.2814,2.2995,2.3032,2.3032,2.3058,2.2982,2.2508,2.2332,2.2026,2.1018,2.0736,2.0528,1.9924,1.9798,1.9798,1.9798,1.9798,1.9798,1.9798,2.0308,2.0709,2.0709,2.0709,2.0692,2.0646,0.0,0.0,1.8873,1.8061,1.7948,1.8952,1.9465,2.0211,2.1296,2.2784,2.4521,2.6528,2.6591,2.6554,2.6504,2.7235,2.7261,2.6609,2.728,2.7606,2.7606,2.7606,2.763,2.7726,2.8336,2.9318,3.0545,3.1212,3.1503,3.1503,3.1503,3.1503,3.1503,3.1503,3.1503,3.1503,1.6246,1.6167,1.6142,1.6189,1.6167,1.6199,1.6438,1.6619,1.6722,1.6722,1.5947,1.5396,1.5396,1.5396,1.5396,1.5396,1.5396,1.5396,1.5396,1.5396,1.5396,1.5396,1.5396,1.5325,1.5159,1.5361,1.529,1.4938,1.4421,1.4449,1.4973,1.4255,1.4555,1.5696,1.5928,1.6804,1.8111,1.8364,1.8975,1.9798,1.9798,2.0018,2.0345,2.0345,2.0697,2.1175,2.1175,2.1513,2.2013,2.2227,2.2164,2.2076,2.2614,2.2789,2.2819,2.3045,2.31,2.31,2.31,2.31,2.297,2.2425,2.2063,2.1613,2.0867,2.0421,2.0088,1.9849,1.9798,1.9798,1.9798,1.9798,1.9798,1.9798,2.0023,2.0207,2.0207,2.0207,2.0245,2.0345,0.0,1.9379,1.9123,1.8619,1.837,1.8555,1.8765,1.9853,2.2067,2.2755,2.3985,2.5944,2.6384,2.6584,2.6562,2.7252,2.7446,2.7165,2.7458,2.7606,2.7606,2.7606,2.7606,2.7636,2.8314,2.9116,3.0012,3.065,3.1144,3.1503,3.1503,3.1503,3.1503,3.1503,3.1503,3.1503,1.7605,1.7366,1.7263,1.7556,1.7373,1.7268,1.7556,1.7605,1.7657,1.7842,1.6956,1.6233,1.6072,1.6054,1.6054,1.6054,1.6213,1.624,1.6054,1.6213,1.623,1.6047,1.6054,1.6054,1.6054,1.6279,1.6342,1.6216,1.5612,1.5675,1.6381,1.5532,1.5757,1.6906,1.7194,1.7799,1.862,1.8907,1.9424,2.0056,2.0056,2.0414,2.0937,2.0937,2.1275,2.1739,2.1739,2.2083,2.2533,2.2533,2.2533,2.2601,2.2982,2.31,2.31,2.31,2.31,2.31,2.31,2.2975,2.2739,2.2202,2.1663,2.1125,2.0559,2.0113,1.9798,1.9798,1.9798,1.9798,1.9798,1.9798,1.9863,2.0067,2.0238,2.0427,2.062,2.0645,2.0631,2.0572,1.9992,1.9527,1.9346,1.8954,1.8728,1.8698,1.888,1.9959,2.2183,2.2725,2.3686,2.526,2.5953,2.6399,2.6599,2.7264,2.7606,2.7606,2.7606,2.7606,2.7606,2.7606,2.7606,2.7636,2.8314,2.8973,2.9645,3.0253,3.0897,3.1503,3.1503,3.1503,3.1503,3.1503,3.1503,3.1503,1.7605,1.7594,1.7587,1.7605,1.7594,1.7587,1.7605,1.7605,1.7812,1.8409,1.8469,1.8243,1.7641,1.7571,1.7571,1.7571,1.812,1.8213,1.7611,1.8125,1.8195,1.76,1.7571,1.7571,1.7571,1.7581,1.738,1.6988,1.6977,1.6775,1.6394,1.6388,1.6985,1.8081,1.8075,1.8721,1.9785,1.9779,2.0144,2.0686,2.0686,2.1018,2.1488,2.1488,2.182,2.2282,2.2282,2.2639,2.3088,2.3088,2.3088,2.3088,2.31,2.31,2.31,2.31,2.31,2.31,2.31,2.2706,2.2176,2.1638,2.1112,2.0553,1.9943,1.9811,1.9798,1.9798,1.9798,1.9798,1.9798,1.9798,2.0023,2.0678,2.1287,2.1911,2.2575,2.266,2.2469,2.1948,2.0238,1.9312,1.9835,1.8934,1.8737,1.9797,2.0491,2.0874,2.0917,2.262,2.3902,2.4584,2.5253,2.5929,2.6584,2.7264,2.7606,2.7606,2.7606,2.7606,2.7606,2.7606,2.7606,2.7636,2.8314,2.8973,2.9645,3.0253,3.0897,3.1503,3.1503,3.1503,3.1503,3.1503,3.1503,3.1503,1.9104,1.9427,1.9714,1.9714,2.0025,2.0256,2.0256,2.0256,2.0336,2.052,2.0545,2.0477,2.028,1.9358,1.8761,1.8761,1.893,1.8952,1.8772,1.8948,1.8952,1.8772,1.8761,1.8761,1.8761,1.9251,1.9446,1.9322,1.8999,1.859,1.8114,1.8954,1.9303,1.9267,1.9267,1.9687,2.0408,2.0408,2.0735,2.125,2.125,2.157,2.2046,2.2046,2.2383,2.2852,2.2852,2.2957,2.31,2.31,2.31,2.31,2.31,2.31,2.31,2.31,2.31,2.31,2.31,2.2714,2.2176,2.1638,2.1099,2.0541,1.9943,1.9798,1.9798,1.9798,1.9798,1.9798,1.9798,1.9798,1.9869,2.0074,2.0283,2.0477,2.0689,2.1113,2.1491,2.1747,2.1237,2.1113,2.1743,2.0759,2.0202,2.0488,2.0751,2.1103,2.1567,2.2466,2.3268,2.3907,2.5005,2.5698,2.5914,2.7039,2.7606,2.7606,2.7606,2.7606,2.7606,2.7606,2.7606,2.76,2.7824,2.8552,2.9615,2.9803,3.053,3.1503,3.1503,3.1503,3.1503,3.1503,3.1503,3.1503,2.0138,2.0603,2.0999,2.0999,2.1275,2.1507,2.1507,2.1507,2.1563,2.1769,2.1794,2.1882,2.2083,2.1279,2.0566,2.0162,2.0311,2.0335,2.0139,2.0311,2.0342,2.0146,2.0134,2.0134,2.0134,2.0586,2.0807,2.0807,2.0515,2.0206,1.9883,2.0647,2.0798,2.0445,2.0445,2.0653,2.0999,2.0999,2.1313,2.1794,2.1794,2.2126,2.2601,2.2601,2.2807,2.31,2.31,2.31,2.31,2.31,2.31,2.31,2.31,2.31,2.31,2.31,2.31,2.31,2.31,2.2714,2.2176,2.1638,2.1099,2.0541,1.9943,1.9798,1.9798,1.9798,1.9798,1.9798,1.9798,1.9798,1.9875,2.0137,2.0182,2.0258,2.0483,2.0874,2.1123,2.1065,2.1256,2.1467,2.1635,2.1422,2.1341,2.1497,2.2001,2.2354,2.2532,2.2644,2.3087,2.3956,2.5025,2.5722,2.5968,2.7061,2.7606,2.7606,2.7606,2.7606,2.7606,2.7606,2.7606,2.7606,2.7606,2.8229,2.9242,2.9503,3.0193,3.1144,3.1406,3.1503,3.1503,3.1503,3.1503,3.1503,2.0761,2.1187,2.1557,2.1557,2.1588,2.1613,2.1613,2.1613,2.1789,2.2282,2.2357,2.2558,2.3045,2.31,2.2701,2.1701,2.2063,2.2139,2.1638,2.2083,2.2126,2.1638,2.1613,2.1613,2.1613,2.1613,2.1613,2.1613,2.1613,2.1588,2.1557,2.1557,2.1545,2.1507,2.1507,2.1513,2.1557,2.1557,2.187,2.2357,2.2357,2.2651,2.31,2.31,2.31,2.31,2.31,2.31,2.31,2.31,2.31,2.31,2.31,2.31,2.31,2.31,2.31,2.31,2.31,2.2714,2.2176,2.1638,2.1069,2.049,1.993,1.9798,1.9805,1.9856,1.9869,1.9869,1.9869,1.9907,2.0118,2.0709,2.0839,2.1065,2.1627,2.1738,2.1388,2.0318,2.072,2.0837,2.0217,2.1289,2.2212,2.2674,2.3793,2.422,2.3645,2.3071,2.3334,2.4567,2.5298,2.5968,2.6593,2.7264,2.7606,2.7606,2.7606,2.7606,2.7606,2.7606,2.7606,2.7606,2.7606,2.7983,2.8652,2.9324,2.996,3.056,3.1249,3.1503,3.1503,3.1503,3.1503,3.1503,2.1313,2.1739,2.2114,2.2114,2.2458,2.2719,2.2719,2.2719,2.2764,2.2895,2.2907,2.2957,2.3095,2.31,2.2995,2.2739,2.2839,2.2857,2.2739,2.2844,2.2844,2.2726,2.2719,2.2719,2.2719,2.2719,2.2719,2.2719,2.2719,2.2508,2.2114,2.2114,2.1895,2.1507,2.1507,2.1726,2.2114,2.2114,2.242,2.2907,2.2907,2.2995,2.31,2.31,2.31,2.31,2.31,2.31,2.31,2.31,2.31,2.31,2.31,2.31,2.31,2.31,2.31,2.31,2.31,2.2714,2.2176,2.1638,2.0747,1.9981,1.983,1.9798,1.9946,2.0453,2.0559,2.0559,2.0559,2.0934,2.1141,2.0851,2.1192,2.1538,2.1679,2.2141,2.236,2.2092,2.2593,2.2898,2.2736,2.3019,2.3068,2.2733,2.2981,2.3298,2.3655,2.3537,2.3809,2.4582,2.5743,2.6443,2.6599,2.7264,2.7606,2.7606,2.7606,2.7606,2.7606,2.7606,2.7606,2.7606,2.7606,2.7983,2.8652,2.9324,2.996,3.056,3.1249,3.1503,3.1503,3.1503,3.1503,3.1503,2.187,2.2295,2.2664,2.2664,2.2907,2.31,2.31,2.31,2.31,2.31,2.31,2.31,2.31,2.31,2.31,2.31,2.31,2.31,2.31,2.31,2.31,2.31,2.31,2.31,2.31,2.31,2.31,2.31,2.31,2.2945,2.2664,2.2664,2.2508,2.2227,2.2227,2.2395,2.2664,2.2664,2.2832,2.31,2.31,2.31,2.31,2.31,2.31,2.31,2.31,2.31,2.31,2.31,2.31,2.31,2.31,2.31,2.31,2.31,2.31,2.31,2.31,2.2889,2.2538,2.1995,2.1035,2.0279,2.0566,2.0431,2.044,2.1082,2.0992,2.0795,2.0795,2.0812,2.0818,2.0802,2.107,2.1384,2.1655,2.2004,2.2248,2.2248,2.2799,2.3196,2.3196,2.3443,2.3465,2.3146,2.3397,2.3725,2.4089,2.4684,2.5177,2.5501,2.6213,2.6749,2.7054,2.7426,2.7606,2.7606,2.7606,2.7606,2.7606,2.7606,2.7606,2.7606,2.7606,2.7809,2.8216,2.9204,2.9788,3.0178,3.1129,3.1503,3.1503,3.1503,3.1503,3.1503,2.242,2.2789,2.31,2.31,2.31,2.31,2.31,2.31,2.31,2.31,2.31,2.31,2.31,2.31,2.31,2.31,2.31,2.31,2.31,2.31,2.31,2.31,2.31,2.31,2.31,2.31,2.31,2.31,2.31,2.31,2.31,2.31,2.31,2.31,2.31,2.31,2.31,2.31,2.31,2.31,2.31,2.31,2.31,2.31,2.31,2.31,2.31,2.31,2.31,2.31,2.31,2.31,2.31,2.31,2.31,2.31,2.31,2.31,2.31,2.3115,2.3065,2.2721,2.1803,2.1095,2.1537,2.1188,2.0938,2.1464,2.1221,2.0944,2.0944,2.0633,2.0496,2.0869,2.1096,2.1367,2.1793,2.1934,2.1985,2.1985,2.2489,2.2844,2.2844,2.3306,2.3595,2.3595,2.4137,2.4545,2.4739,2.5833,2.6539,2.6743,2.6749,2.7025,2.7585,2.7606,2.7606,2.7606,2.7606,2.7606,2.7606,2.7606,2.7606,2.7606,2.7606,2.7606,2.7705,2.9046,2.96,2.9734,3.0994,3.1503,3.1503,3.1503,3.1503,3.1503,2.2982,2.3037,2.31,2.31,2.31,2.31,2.31,2.31,2.31,2.31,2.31,2.31,2.31,2.31,2.31,2.31,2.31,2.31,2.31,2.31,2.31,2.31,2.31,2.31,2.31,2.31,2.31,2.31,2.31,2.31,2.31,2.31,2.31,2.31,2.31,2.31,2.31,2.31,2.31,2.31,2.31,2.31,2.31,2.31,2.31,2.31,2.31,2.31,2.31,2.31,2.31,2.31,2.31,2.31,2.31,2.31,2.31,2.31,2.31,2.3224,2.3473,2.4021,2.3219,2.2207,2.1856,2.1225,2.0764,2.0913,2.1263,2.1562,2.1562,2.2352,2.2691,2.1722,2.2469,2.3017,2.26,2.2978,2.3319,2.3319,2.3395,2.3459,2.3459,2.3546,2.3595,2.3595,2.3699,2.4247,2.5379,2.5639,2.6273,2.7405,2.745,2.7495,2.7606,2.7606,2.7606,2.7606,2.7606,2.7606,2.7606,2.7606,2.7606,2.7606,2.7606,2.7606,2.7705,2.9046,2.96,2.9734,3.0994,3.1503,3.1503,3.1503,3.1503,3.1503,2.31,2.31,2.31,2.31,2.31,2.31,2.31,2.31,2.31,2.31,2.31,2.31,2.31,2.31,2.31,2.31,2.31,2.31,2.31,2.31,2.31,2.31,2.31,2.31,2.31,2.31,2.31,2.31,2.31,2.31,2.31,2.31,2.31,2.31,2.31,2.31,2.31,2.31,2.31,2.3133,2.3454,2.3391,2.3145,2.3454,2.3379,2.31,2.31,2.31,2.31,2.31,2.31,2.31,2.31,2.31,2.31,2.31,2.31,2.31,2.31,2.3175,2.3318,2.3664,2.3393,2.2963,2.2726,2.2481,2.231,2.2302,2.2276,2.2242,2.2242,2.2423,2.2615,2.2756,2.2964,2.3258,2.3664,2.3644,2.3595,2.3595,2.3595,2.3595,2.3595,2.3595,2.3595,2.3595,2.3928,2.4571,2.5543,2.5944,2.6584,2.757,2.7606,2.7606,2.7606,2.7606,2.7606,2.7606,2.7606,2.7606,2.7606,2.7606,2.7606,2.7606,2.7606,2.7606,2.7705,2.9046,2.96,2.9734,3.0994,3.1503,3.1503,3.1503,3.1503,3.1503,2.3138,2.31,2.31,2.31,2.31,2.31,2.31,2.31,2.31,2.31,2.31,2.31,2.31,2.31,2.31,2.31,2.31,2.31,2.31,2.31,2.31,2.31,2.31,2.31,2.31,2.31,2.31,2.31,2.31,2.31,2.31,2.31,2.31,2.3108,2.3253,2.3316,2.3316,2.3446,2.3504,2.3534,2.4001,2.3901,2.3554,2.4001,2.3901,2.3494,2.3546,2.3555,2.3572,2.3613,2.3734,2.3879,2.3879,2.3879,2.3879,2.3879,2.3767,2.3634,2.3634,2.3634,2.3717,2.4064,2.4136,2.4082,2.3938,2.3902,2.3793,2.3462,2.3266,2.3126,2.2956,2.2742,2.2847,2.3587,2.3386,2.338,2.4059,2.3845,2.3595,2.3595,2.3595,2.3595,2.3595,2.3595,2.3664,2.3814,2.4306,2.4963,2.5788,2.6318,2.6914,2.7576,2.7606,2.7606,2.7606,2.7606,2.7606,2.7606,2.7606,2.7606,2.7606,2.7606,2.7606,2.7606,2.7606,2.7606,2.7705,2.9046,2.96,2.9734,3.0994,3.1503,3.1503,3.1503,3.1503,3.1503,2.3258,2.31,2.31,2.31,2.31,2.31,2.31,2.31,2.31,2.31,2.31,2.31,2.31,2.31,2.31,2.31,2.31,2.31,2.31,2.31,2.31,2.31,2.31,2.31,2.31,2.31,2.31,2.31,2.31,2.31,2.31,2.31,2.31,2.3125,2.3675,2.3933,2.3966,2.4465,2.467,2.4683,2.4721,2.4708,2.4683,2.4721,2.4708,2.4699,2.4886,2.4955,2.4982,2.5176,2.5644,2.6155,2.6155,2.6155,2.6155,2.6155,2.5727,2.5231,2.5231,2.5231,2.5556,2.6935,2.6776,2.6126,2.5571,2.4927,2.4126,2.2995,2.3723,2.4361,2.3733,2.4552,2.4964,2.3879,2.4126,2.4085,2.2995,2.3286,2.3595,2.3595,2.3595,2.3595,2.3595,2.3595,2.3859,2.4485,2.4569,2.5163,2.6458,2.6563,2.6914,2.7576,2.7606,2.7606,2.7606,2.7606,2.7606,2.7606,2.7606,2.7606,2.7606,2.7606,2.7606,2.7606,2.7606,2.7606,2.7705,2.9046,2.96,2.9734,3.0994,3.1503,3.1503,3.1503,3.1503,3.1503,2.4589,2.4253,2.4137,2.4474,2.4768,2.4854,2.4568,2.4532,2.4532,2.4532,2.4134,2.384,2.384,2.3395,2.31,2.31,2.31,2.31,2.31,2.31,2.31,2.31,2.31,2.31,2.31,2.3595,2.384,2.384,2.4295,2.474,2.5146,2.5146,2.5355,2.5712,2.594,2.6053,2.6053,2.6258,2.6344,2.6339,2.6167,2.59,2.5581,2.5384,2.5433,2.5555,2.5074,2.5578,2.6395,2.5983,2.6333,2.6965,2.6965,2.6701,2.6319,2.5903,2.5598,2.5495,2.5967,2.5749,2.5529,2.6101,2.637,2.6331,2.5688,2.5684,2.5556,2.4689,2.4895,2.5186,2.4929,2.4929,2.496,2.4884,2.4376,2.3955,2.3895,2.3716,2.3595,2.3595,2.3595,2.3595,2.3595,2.3973,2.4326,2.4584,2.5373,2.6063,2.6563,2.6988,2.7345,2.7591,2.7606,2.7606,2.7606,2.7606,2.7606,2.7606,2.7606,2.7606,2.7606,2.7606,2.7606,2.7606,2.7606,2.7606,2.7705,2.9046,2.96,2.9734,3.0994,3.1503,3.1503,3.1503,3.1503,3.1503,2.5446,2.5106,2.4972,2.5335,2.5666,2.5775,2.5453,2.5398,2.5398,2.5398,2.4951,2.4652,2.4652,2.4149,2.382,2.382,2.382,2.382,2.382,2.382,2.3689,2.3401,2.3547,2.3547,2.3391,2.4368,2.4678,2.4299,2.5438,2.6146,2.6396,2.6583,2.6903,2.7313,2.75,2.7576,2.7583,2.7762,2.783,2.7826,2.7632,2.7337,2.6997,2.6766,2.6806,2.6932,2.6405,2.6948,2.7851,2.7352,2.7688,2.8296,2.8296,2.789,2.7271,2.6597,2.6257,2.6202,2.6715,2.6483,2.6094,2.6094,2.6476,2.6714,2.6262,2.654,2.6719,2.6048,2.6072,2.6153,2.5959,2.5713,2.5543,2.5594,2.4837,2.4233,2.4281,2.3888,2.3595,2.3595,2.3595,2.3684,2.3888,2.4335,2.4763,2.5193,2.6078,2.6689,2.6905,2.7345,2.7606,2.7606,2.7606,2.7606,2.7606,2.7606,2.7606,2.7606,2.7606,2.7606,2.7606,2.7606,2.7606,2.7606,2.7606,2.772,2.7998,2.9129,2.9713,2.999,3.1084,3.1503,3.1503,3.1503,3.1503,3.1503,2.5557,2.5419,2.5419,2.5419,2.5419,2.5419,2.5419,2.5419,2.5419,2.5419,2.5405,2.5405,2.5405,2.5398,2.5398,2.5398,2.5398,2.5398,2.5398,2.5412,2.4999,2.4072,2.4527,2.4564,2.4032,2.5399,2.5523,2.4334,2.6345,2.7008,2.6459,2.7036,2.7335,2.7356,2.7965,2.8227,2.8261,2.8787,2.9026,2.9026,2.901,2.901,2.901,2.9002,2.9002,2.9038,2.9229,2.9303,2.9356,2.9542,3.0005,3.05,3.05,3.0095,2.9465,2.8801,2.8132,2.7606,2.7606,2.7606,2.7606,2.7606,2.7606,2.7606,2.7606,2.7606,2.7405,2.6743,2.7144,2.7405,2.6734,2.7144,2.7159,2.5818,2.5603,2.513,2.3804,2.361,2.361,2.3595,2.3595,2.3874,2.4545,2.4614,2.5163,2.6503,2.6599,2.6905,2.7555,2.7606,2.7606,2.7606,2.7606,2.7606,2.7606,2.7606,2.7606,2.7606,2.7606,2.7606,2.7606,2.7606,2.7606,2.7606,2.7612,2.7989,2.8658,2.9337,2.9966,3.0574,3.1248,3.1525,3.1525,3.1525,3.1525,3.1525,2.6987,2.6935,2.6935,2.6935,2.6935,2.6935,2.6935,2.6935,2.6935,2.6935,2.6496,2.6169,2.6169,2.5708,2.5398,2.5398,2.5398,2.5398,2.5398,2.6185,2.6546,2.6254,2.6039,2.5846,2.5685,2.7022,2.7335,2.656,2.8147,2.9041,2.9275,2.9466,2.9803,3.0243,3.0448,3.0521,3.0521,3.0682,3.0755,3.0696,3.0133,2.9912,2.985,2.9231,2.938,2.9837,2.9286,2.9845,3.077,3.0258,3.0594,3.1129,3.065,3.0095,2.9465,2.8801,2.8132,2.7606,2.7606,2.7606,2.7606,2.7606,2.7606,2.7606,2.7606,2.7606,2.7546,2.7345,2.7465,2.7546,2.7345,2.7084,2.677,2.6369,2.5908,2.5304,2.4416,2.4291,2.4137,2.3655,2.4023,2.438,2.4584,2.5453,2.6168,2.6563,2.7039,2.739,2.7591,2.7606,2.7606,2.7606,2.7606,2.7606,2.7606,2.7606,2.7606,2.7606,2.7606,2.7606,2.7606,2.7606,2.7606,2.7625,2.8048,2.8636,2.9394,3.0482,3.1338,3.2042,3.2717,3.2971,3.2971,3.2971,3.2971,3.2971,2.7606,2.7606,2.7606,2.7606,2.7606,2.7606,2.7606,2.7606,2.7606,2.7606,2.7201,2.6945,2.6945,2.6542,2.6275,2.6275,2.6275,2.6375,2.6654,2.7105,2.7583,2.8126,2.7582,2.7095,2.6727,2.8068,2.8346,2.7494,2.9408,3.0395,3.05,3.0769,3.1114,3.1503,3.1503,3.1503,3.1503,3.1503,3.1503,3.1452,3.0977,3.0777,3.0725,3.0193,3.0322,3.0703,3.0185,3.0636,3.143,3.0947,3.1095,3.1429,3.1024,3.0298,2.9518,2.9107,2.8321,2.7606,2.7606,2.7606,2.7606,2.7606,2.7606,2.7606,2.7606,2.7606,2.7606,2.7606,2.7606,2.7606,2.7606,2.7264,2.6914,2.6644,2.6258,2.5758,2.5089,2.4993,2.4855,2.4442,2.475,2.5104,2.5364,2.6123,2.6704,2.698,2.7375,2.7606,2.7606,2.7829,2.7965,2.7965,2.8192,2.831,2.831,2.831,2.807,2.7606,2.7606,2.7606,2.7606,2.7606,2.7723,2.7984,2.8645,2.9471,3.0437,3.1495,3.2355,3.3044,3.3441,3.3595,3.3595,3.3595,3.3595,3.3595,2.7606,2.7606,2.7606,2.7606,2.7606,2.7606,2.7606,2.7606,2.7606,2.7606,2.7606,2.7606,2.7606,2.7606,2.7606,2.7606,2.7606,2.7869,2.8479,2.8058,2.8312,2.9555,2.9077,2.837,2.7514,2.8746,2.8871,2.777,3.0272,3.1189,3.0605,3.1212,3.1503,3.1503,3.1503,3.1503,3.1503,3.1503,3.1503,3.1503,3.1503,3.1503,3.1503,3.1503,3.1503,3.1503,3.1503,3.1503,3.1503,3.1503,3.1503,3.1503,3.1503,3.0658,2.9675,2.9615,2.8686,2.7675,2.7621,2.7606,2.7606,2.7606,2.7606,2.7606,2.7606,2.7606,2.7606,2.7606,2.7606,2.7606,2.7606,2.7606,2.7405,2.6794,2.6689,2.6465,2.5782,2.5683,2.5669,2.5603,2.5654,2.5929,2.6539,2.6693,2.7015,2.7628,2.7729,2.776,2.776,2.8277,2.8583,2.8583,2.9111,2.9401,2.9401,2.9401,2.8845,2.776,2.7704,2.771,2.776,2.7704,2.8042,2.8725,2.9443,3.0486,3.174,3.2466,3.3177,3.3773,3.3773,3.3773,3.3773,3.3773,3.3773,3.3773,2.7606,2.7606,2.7606,2.7606,2.7606,2.7606,2.7606,2.7606,2.7606,2.7606,2.7606,2.7606,2.7606,2.7606,2.7606,2.7606,2.7606,2.766,2.7809,2.8656,2.93,2.9585,2.9915,2.9996,2.9784,3.0073,3.0105,2.9852,3.0968,3.1436,3.1286,3.1429,3.1503,3.1503,3.1503,3.1503,3.1503,3.1503,3.1503,3.1503,3.1503,3.1503,3.1503,3.1503,3.1503,3.1503,3.1503,3.1503,3.1503,3.1503,3.1503,3.1503,3.1503,3.095,3.0215,2.9749,2.9024,2.8276,2.775,2.7606,2.7606,2.7606,2.7606,2.7606,2.7606,2.7606,2.7606,2.7606,2.7606,2.7606,2.7606,2.7606,2.754,2.7405,2.739,2.7144,2.6479,2.6378,2.6183,2.5663,2.6063,2.6443,2.6584,2.7506,2.8147,2.8295,2.8744,2.9014,2.9014,2.9128,2.9203,2.9203,2.9327,2.9401,2.9401,2.9401,2.9271,2.9002,2.8525,2.8549,2.8991,2.8529,2.8942,3.0106,3.0738,3.1824,3.3187,3.3833,3.4515,3.5167,3.5167,3.5167,3.5167,3.5167,3.5167,3.5167,2.7654,2.7606,2.7606,2.7606,2.7606,2.7606,2.7606,2.7606,2.7606,2.7606,2.7606,2.7606,2.7606,2.7606,2.7606,2.7606,2.7606,2.7869,2.8507,2.8904,2.9392,3.0005,3.0065,3.0215,3.0492,3.05,3.05,3.05,3.1174,3.1503,3.1503,3.1503,3.1503,3.1503,3.1503,3.1503,3.1503,3.1503,3.1503,3.1503,3.1503,3.1503,3.1503,3.1503,3.1503,3.1503,3.1503,3.1503,3.1503,3.1503,3.1503,3.1503,3.1503,3.1039,3.0372,2.9773,2.9129,2.8442,2.7779,2.7606,2.7606,2.7606,2.7606,2.7606,2.7606,2.7606,2.7606,2.7606,2.7606,2.7606,2.7606,2.7606,2.7692,2.7975,2.8024,2.8003,2.7945,2.7945,2.7812,2.7456,2.7713,2.7822,2.7536,2.8371,2.8809,2.8517,2.9054,2.9401,2.9401,2.9668,2.9827,2.9827,3.0113,3.0256,3.0256,3.0256,3.0256,3.0245,2.9356,2.9088,2.9405,2.9448,2.9996,3.0993,3.2005,3.3045,3.408,3.4745,3.5256,3.56,3.56,3.56,3.56,3.56,3.56,3.56,2.8012,2.7913,2.7913,2.7913,2.7913,2.7913,2.7913,2.7823,2.7754,2.7754,2.766,2.7606,2.7606,2.7705,2.772,2.76,2.7809,2.8364,2.9353,2.9227,2.9579,3.0641,3.0431,3.0521,3.1016,3.1031,3.0915,3.0665,3.1234,3.1503,3.1503,3.1503,3.1503,3.1503,3.1503,3.1503,3.1503,3.1503,3.1503,3.1503,3.1503,3.1503,3.1503,3.1503,3.1503,3.1503,3.1503,3.1503,3.1503,3.1503,3.1503,3.1503,3.1503,3.1129,3.0545,2.993,2.9287,2.8655,2.8084,2.7844,2.7779,2.7876,2.7913,2.7913,2.7913,2.7835,2.7785,2.7888,2.7913,2.7913,2.7913,2.7913,2.8064,2.8577,2.866,2.8826,2.9327,2.9401,2.9401,2.9401,2.9401,2.9203,2.8691,2.9197,2.9344,2.885,2.9367,2.9706,2.9706,3.0182,3.0451,3.0451,3.0945,3.1195,3.1195,3.1195,3.1195,3.1185,3.0187,2.9706,2.9722,3.0237,3.0923,3.1801,3.3028,3.3996,3.4748,3.5357,3.56,3.56,3.56,3.56,3.56,3.56,3.56,3.56,2.9174,2.9157,2.9157,2.9157,2.9157,2.9157,2.9157,2.8709,2.8373,2.8373,2.7913,2.7606,2.7606,2.8126,2.8224,2.7645,2.8663,2.9159,2.8757,3.0278,3.1275,3.1438,3.2489,3.3108,3.3181,3.3181,3.2576,3.1354,3.1466,3.1503,3.1503,3.1503,3.1503,3.1503,3.1503,3.1503,3.1503,3.1503,3.1503,3.1503,3.1503,3.1503,3.1503,3.1503,3.1503,3.1503,3.1503,3.1503,3.1503,3.1503,3.1503,3.1503,3.1503,3.1436,3.1227,3.0575,2.9945,2.9435,2.9283,2.883,2.8505,2.9025,2.9157,2.9157,2.9157,2.8756,2.8529,2.9048,2.9157,2.9157,2.9157,2.9157,2.9186,2.9265,2.9276,2.931,2.9389,2.9401,2.9401,2.9401,2.9401,2.9367,2.9288,2.9816,3.015,3.0053,3.0622,3.0965,3.0965,3.103,3.1087,3.1087,3.1161,3.1195,3.1195,3.1195,3.1195,3.1195,3.103,3.0965,3.0945,3.0524,3.1347,3.3143,3.3346,3.4193,3.5453,3.5554,3.56,3.56,3.56,3.56,3.56,3.56,3.56,3.56,2.9468,2.9401,2.9401,2.9401,2.9401,2.9401,2.9401,2.9168,2.8996,2.8996,2.8764,2.862,2.862,2.9245,2.9386,2.8677,2.9896,3.0579,3.0236,3.1439,3.2323,3.2705,3.3275,3.3595,3.3595,3.3595,3.3307,3.2678,3.2678,3.2678,3.2678,3.2678,3.2678,3.2678,3.2678,3.2678,3.2678,3.2678,3.2455,3.2104,3.2104,3.1874,3.1503,3.1503,3.1503,3.1546,3.1965,3.236,3.2678,3.2678,3.2678,3.2678,3.2678,3.2678,3.2538,3.1864,3.1479,3.1104,3.0285,2.9842,2.9581,2.944,2.9401,2.949,2.9827,2.9695,2.9485,2.9412,2.9401,2.9401,2.9401,2.9401,2.9513,2.9848,2.9897,3.0011,3.0362,3.0409,3.0409,3.0409,3.0409,3.0266,2.9946,3.0451,3.0663,3.0336,3.0863,3.1195,3.1195,3.1195,3.1195,3.1195,3.1195,3.1195,3.1195,3.1195,3.1195,3.1195,3.1623,3.1809,3.1821,3.1964,3.2534,3.3452,3.4275,3.4523,3.4393,3.4822,3.4731,3.4376,3.4376,3.4613,3.4991,3.4991,3.5244,3.56]},{"header":{"parameterUnit":"m.s-1","parameterCategory":1,"la1":30.6,"la2":28.766,"lo1":-90.7593,"lo2":-88.6598,"dy":0.0162,"dx":0.0183,"nx":116,"ny":114,"refTime":"2024-06-09T00:00:00:Z","depth":0,"parameterNumber":3,"parameterNumberName":"V-component_of_WINDS"},"data":[0.0,0.0,0.0,0.0,0.0,0.0,0.0,0.0,0.0,0.0,0.0,0.0,0.0,0.0,0.0,0.0,0.0,0.0,0.0,0.0,0.0,0.0,0.0,0.0,0.0,0.0,0.0,0.0,0.0,0.0,0.0,0.0,0.0,0.0,0.0,0.0,0.0,0.0,0.0,0.0,0.0,0.0,0.0,0.0,0.0,0.0,0.0,0.0,0.0,0.0,0.0,0.0,0.0,0.0,0.0,0.0,0.0,0.0,0.0,0.0,0.0,0.0,0.0,0.0,0.0,0.0,0.0,0.0,0.0,0.0,0.0,0.0,0.0,0.0,0.0,0.0,0.0,0.0,0.0,0.0,0.0,0.0,0.0,0.0,0.0,0.0,0.0,0.0,0.0,0.0,0.0,0.0,0.0,0.0,0.0,0.0,0.0,0.0,0.0,0.0,0.0,0.0,0.0,0.0,0.0,0.0,0.0,0.0,0.0,0.0,0.0,0.0,0.0,0.0,0.0,0.0,0.0,0.0,0.0,0.0,0.0,0.0,0.0,0.0,0.0,0.0,0.0,0.0,0.0,0.0,0.0,0.0,0.0,0.0,0.0,0.0,0.0,0.0,0.0,0.0,0.0,0.0,0.0,0.0,0.0,0.0,0.0,0.0,0.0,0.0,0.0,0.0,0.0,0.0,0.0,0.0,0.0,0.0,0.0,0.0,0.0,0.0,0.0,0.0,0.0,0.0,0.0,0.0,0.0,0.0,0.0,0.0,0.0,0.0,0.0,0.0,0.0,0.0,0.0,0.0,0.0,0.0,0.0,0.0,0.0,0.0,0.0,0.0,0.0,0.0,0.0,0.0,0.0,0.0,0.0,0.0,0.0,0.0,0.0,0.0,0.0,0.0,0.0,0.0,0.0,0.0,0.0,0.0,0.0,0.0,0.0,0.0,0.0,0.0,0.0,0.0,0.0,0.0,0.0,0.0,0.0,0.0,0.0,0.0,0.0,0.0,0.0,0.0,0.0,0.0,0.0,0.0,0.0,0.0,0.0,0.0,0.0,0.0,0.0,0.0,0.0,0.0,0.0,0.0,0.0,0.0,0.0,0.0,0.0,0.0,0.0,0.0,0.0,0.0,0.0,0.0,0.0,0.0,0.0,0.0,0.0,0.0,0.0,0.0,0.0,0.0,0.0,0.0,0.0,0.0,0.0,0.0,0.0,0.0,0.0,0.0,0.0,0.0,0.0,0.0,0.0,0.0,0.0,0.0,0.0,0.0,0.0,0.0,0.0,0.0,0.0,0.0,0.0,0.0,0.0,0.0,0.0,0.0,0.0,0.0,0.0,0.0,0.0,0.0,0.0,0.0,0.0,0.0,0.0,0.0,0.0,0.0,0.0,0.0,0.0,0.0,0.0,0.0,0.0,0.0,0.0,0.0,0.0,0.0,0.0,0.0,0.0,0.0,0.0,0.0,0.0,0.0,0.0,0.0,0.0,0.0,0.0,0.0,0.0,0.0,0.0,0.0,0.0,0.0,0.0,0.0,0.0,0.0,0.0,0.0,0.0,0.0,0.0,0.0,0.0,0.0,0.0,0.0,0.0,0.0,0.0,0.0,0.0,0.0,0.0,0.0,0.0,0.0,0.0,0.0,0.0,0.0,0.0,0.0,0.0,0.0,0.0,0.0,0.0,0.0,0.0,0.0,0.0,0.0,0.0,0.0,0.0,0.0,0.0,0.0,0.0,0.0,0.0,0.0,0.0,0.0,0.0,0.0,0.0,0.0,0.0,0.0,0.0,0.0,0.0,0.0,0.0,0.0,0.0,0.0,0.0,0.0,0.0,0.0,0.0,0.0,0.0,0.0,0.0,0.0,0.0,0.0,0.0,0.0,0.0,0.0,0.0,0.0,0.0,0.0,0.0,0.0,0.0,0.0,0.0,0.0,0.0,0.0,0.0,0.0,0.0,0.0,0.0,0.0,0.0,0.0,0.0,0.0,0.0,0.0,0.0,0.0,0.0,0.0,0.0,0.0,0.0,0.0,0.0,0.0,0.0,0.0,0.0,0.0,0.0,0.0,0.0,0.0,0.0,0.0,0.0,0.0,0.0,0.0,0.0,0.0,0.0,0.0,0.0,0.0,0.0,0.0,0.0,0.0,0.0,0.0,0.0,0.0,0.0,0.0,0.0,0.0,0.0,0.0,0.0,0.0,0.0,0.0,0.0,0.0,0.0,0.0,0.0,0.0,0.0,0.0,0.0,0.0,0.0,0.0,0.0,0.0,0.0,0.0,0.0,0.0,0.0,0.0,0.0,0.0,0.0,0.0,0.0,0.0,0.0,0.0,0.0,0.0,0.0,0.0,0.0,0.0,0.0,0.0,0.0,0.0,0.0,0.0,0.0,0.0,0.0,0.0,0.0,0.0,0.0,0.0,0.0,0.0,0.0,0.0,0.0,0.0,0.0,0.0,0.0,0.0,0.0,0.0,0.0,0.0,0.0,0.0,0.0,0.0,0.0,0.0,0.0,0.0,0.0,0.0,0.0,0.0,0.0,0.0,0.0,0.0,0.0,0.0,0.0,0.0,0.0,0.0,0.0,0.0,0.0,0.0,0.0,0.0,0.0,0.0,0.0,0.0,0.0,0.0,0.0,0.0,0.0,0.0,0.0,0.0,0.0,0.0,0.0,0.0,0.0,0.0,0.0,0.0,0.0,0.0,0.0,0.0,0.0,0.0,0.0,0.0,0.0,0.0,0.0,0.0,0.0,0.0,0.0,0.0,0.0,0.0,0.0,0.0,0.0,0.0,0.0,0.0,0.0,0.0,0.0,0.0,0.0,0.0,0.0,0.0,0.0,0.0,0.0,0.0,0.0,0.0,0.0,0.0,0.0,0.0,0.0,0.0,0.0,0.0,0.0,0.0,0.0,0.0,0.0,0.0,0.0,0.0,0.0,0.0,0.0,0.0,0.0,0.0,0.0,0.0,0.0,0.0,0.0,0.0,0.0,0.0,0.0,0.0,0.0,0.0,0.0,0.0,0.0,0.0,0.0,0.0,0.0,0.0,0.0,0.0,0.0,0.0,0.0,0.0,0.0,0.0,0.0,0.0,0.0,0.0,0.0,0.0,0.0,0.0,0.0,0.0,0.0,0.0,0.0,0.0,0.0,0.0,0.0,0.0,0.0,0.0,0.0,0.0,0.0,0.0,0.0,0.0,0.0,0.0,0.0,0.0,0.0,0.0,0.0,0.0,0.0,0.0,0.0,0.0,0.0,0.0,0.0,0.0,0.0,0.0,0.0,0.0,0.0,0.0,0.0,0.0,0.0,0.0,0.0,0.0,0.0,0.0,0.0,0.0,0.0,0.0,0.0,0.0,0.0,0.0,0.0,0.0,0.0,0.0,0.0,0.0,0.0,0.0,0.0,0.0,0.0,0.0,0.0,0.0,0.0,0.0,0.0,0.0,0.0,0.0,0.0,0.0,0.0,0.0,0.0,0.0,0.0,0.0,0.0,0.0,0.0,0.0,0.0,0.0,0.0,0.0,0.0,0.0,0.0,0.0,0.0,0.0,0.0,0.0,0.0,0.0,0.0,0.0,0.0,0.0,0.0,0.0,0.0,0.0,0.0,0.0,0.0,0.0,0.0,0.0,0.0,0.0,0.0,0.0,0.0,0.0,0.0,0.0,0.0,0.0,0.0,0.0,0.0,0.0,0.0,0.0,0.0,0.0,0.0,0.0,0.0,0.0,0.0,0.0,0.0,0.0,0.0,0.0,0.0,0.0,0.0,0.0,0.0,0.0,0.0,0.0,0.0,0.0,0.0,0.0,0.0,0.0,0.0,0.0,0.0,0.0,0.0,0.0,0.0,0.0,0.0,0.0,0.0,0.0,0.0,0.0,0.0,0.0,0.0,0.0,0.0,0.0,0.0,0.0,0.0,0.0,0.0,0.0,0.0,0.0,0.0,0.0,0.0,0.0,0.0,0.0,0.0,0.0,0.0,0.0,0.0,0.0,0.0,0.0,0.0,0.0,0.0,0.0,0.0,0.0,0.0,0.0,0.0,0.0,0.0,0.0,0.0,0.0,0.0,0.0,0.0,0.0,0.0,0.0,0.0,0.0,0.0,0.0,0.0,0.0,0.0,0.0,0.0,0.0,0.0,0.0,0.0,0.0,0.0,0.0,0.0,0.0,0.0,0.0,0.0,0.0,0.0,0.0,0.0,0.0,0.0,0.0,0.0,0.0,0.0,0.0,0.0,0.0,0.0,0.0,0.0,0.0,0.0,0.0,0.0,0.0,0.0,0.0,0.0,0.0,0.0,0.0,0.0,0.0,0.0,0.0,0.0,0.0,0.0,0.0,0.0,0.0,0.0,0.0,0.0,0.0,0.0,0.0,0.0,0.0,0.0,0.0,0.0,0.0,0.0,0.0,0.0,0.0,0.0,0.0,0.0,0.0,0.0,0.0,0.0,0.0,0.0,0.0,0.0,0.0,0.0,0.0,0.0,0.0,0.0,0.0,0.0,0.0,0.0,0.0,0.0,0.0,0.0,0.0,0.0,0.0,0.0,0.0,0.0,0.0,0.0,0.0,0.0,0.0,0.0,0.0,0.0,0.0,0.0,0.0,0.0,0.0,0.0,0.0,0.0,0.0,0.0,0.0,0.0,0.0,0.0,0.0,0.0,0.0,0.0,0.0,0.0,0.0,0.0,0.0,0.0,0.0,0.0,0.0,0.0,0.0,0.0,0.0,0.0,0.0,0.0,0.0,0.0,0.0,0.0,0.0,0.0,0.0,0.0,0.0,0.0,0.0,0.0,0.0,0.0,0.0,0.0,0.0,0.0,0.0,0.0,0.0,0.0,0.0,0.0,0.0,0.0,0.0,0.0,0.0,0.0,0.0,0.0,0.0,0.0,0.0,0.0,0.0,0.0,0.0,0.0,0.0,0.0,0.0,0.0,0.0,0.0,0.0,0.0,0.0,0.0,0.0,0.0,0.0,0.0,0.0,0.0,0.0,0.0,0.0,0.0,0.0,0.0,0.0,0.0,0.0,0.0,0.0,0.0,0.0,0.0,0.0,0.0,0.0,0.0,0.0,0.0,0.0,0.0,0.0,0.0,0.0,0.0,0.0,0.0,0.0,0.0,0.0,0.0,0.0,0.0,0.0,0.0,0.0,0.0,0.0,0.0,0.0,0.0,0.0,0.0,0.0,0.0,0.0,0.0,0.0,0.0,0.0,0.0,0.0,0.0,0.0,0.0,0.0,0.0,0.0,0.0,0.0,0.0,0.0,0.0,0.0,0.0,0.0,0.0,0.0,0.0,0.0,0.0,0.0,0.0,0.0,0.0,0.0,0.0,0.0,0.0,0.0,0.0,0.0,0.0,0.0,0.0,0.0,0.0,0.0,0.0,0.0,0.0,0.0,0.0,0.0,0.0,0.0,0.0,0.0,0.0,0.0,0.0,0.0,0.0,0.0,0.0,0.0,0.0,0.0,0.0,0.0,0.0,0.0,0.0,0.0,0.0,0.0,0.0,0.0,0.0,0.0,0.0,0.0,0.0,0.0,0.0,0.0,0.0,0.0,0.0,0.0,0.0,0.0,0.0,0.0,0.0,0.0,0.0,0.0,0.0,0.0,0.0,0.0,0.0,0.0,0.0,0.0,0.0,0.0,0.0,0.0,0.0,0.0,0.0,0.0,0.0,0.0,0.0,0.0,0.0,0.0,0.0,0.0,0.0,0.0,0.0,0.0,0.0,0.0,0.0,0.0,0.0,0.0,0.0,0.0,0.0,0.0,0.0,0.0,0.0,0.0,0.0,0.0,0.0,0.0,0.0,0.0,0.0,0.0,0.0,0.0,0.0,0.0,0.0,0.0,0.0,0.0,0.0,0.0,0.0,0.0,0.0,0.0,0.0,0.0,0.0,0.0,0.0,0.0,0.0,0.0,0.0,0.0,0.0,0.0,0.0,0.0,0.0,0.0,0.0,0.0,0.0,0.0,0.0,0.0,0.0,0.0,0.0,0.0,0.0,0.0,0.0,0.0,0.0,0.0,0.0,0.0,0.0,0.0,0.0,0.0,0.0,0.0,0.0,0.0,0.0,0.0,0.0,0.0,0.0,0.0,0.0,0.0,1.8796,1.7681,0.0,0.0,0.0,0.0,0.0,0.0,0.0,0.0,0.0,0.0,0.0,0.0,0.0,0.0,0.0,0.0,0.0,0.0,0.0,0.0,0.0,0.0,0.0,1.6976,1.7727,1.6876,1.7116,1.7025,1.6344,0.0,0.0,0.0,0.0,0.0,1.5513,1.5171,1.5063,1.5188,1.5188,1.5539,1.6196,1.5845,1.5347,1.4744,0.0,0.0,0.0,0.0,0.0,0.0,0.0,0.0,0.0,0.0,0.0,0.0,0.0,0.0,0.0,0.0,0.0,0.0,0.0,0.0,0.0,0.0,0.0,0.0,0.0,0.0,0.0,0.0,0.0,0.0,0.0,0.0,0.0,0.0,0.0,0.0,0.0,0.0,0.0,0.0,0.0,0.0,0.0,0.0,0.0,0.0,0.0,0.0,0.0,0.0,0.0,0.0,0.0,0.0,0.0,0.0,0.0,0.0,0.0,0.0,0.0,0.0,0.0,0.0,0.0,0.0,0.0,0.0,0.0,0.0,2.0067,1.9116,0.0,0.0,0.0,0.0,0.0,0.0,0.0,0.0,0.0,0.0,0.0,0.0,0.0,0.0,0.0,0.0,0.0,0.0,0.0,0.0,0.0,1.558,1.5512,1.7364,1.8184,1.7094,1.7802,1.7866,1.6837,1.7028,0.0,0.0,0.0,1.691,1.6556,1.6545,1.6656,1.6864,1.6864,1.7156,1.7705,1.7705,1.7138,1.6102,1.5552,0.0,0.0,0.0,0.0,0.0,0.0,0.0,0.0,0.0,0.0,0.0,0.0,0.0,0.0,0.0,0.0,0.0,0.0,0.0,0.0,0.0,0.0,0.0,0.0,0.0,0.0,0.0,0.0,0.0,0.0,0.0,0.0,0.0,0.0,0.0,0.0,0.0,0.0,0.0,0.0,0.0,0.0,0.0,0.0,0.0,0.0,0.0,0.0,0.0,0.0,0.0,0.0,0.0,0.0,0.0,0.0,0.0,0.0,0.0,0.0,0.0,0.0,0.0,2.4244,2.4028,2.3532,2.3424,2.3365,2.3279,2.173,2.1126,2.1142,1.9694,0.0,0.0,0.0,0.0,0.0,0.0,0.0,0.0,0.0,0.0,0.0,0.0,0.0,0.0,0.0,0.0,0.0,0.0,0.0,1.5487,1.5193,1.6563,1.7574,1.7747,1.7873,1.8153,1.8615,1.8686,0.0,0.0,1.8188,1.798,1.7528,1.752,1.7533,1.7571,1.7571,1.7612,1.7705,1.7705,1.7605,1.7448,1.7355,1.7321,1.7272,0.0,0.0,0.0,0.0,0.0,0.0,0.0,0.0,0.0,0.0,0.0,0.0,0.0,0.0,0.0,0.0,0.0,0.0,0.0,0.0,0.0,0.0,0.0,0.0,0.0,0.0,0.0,0.0,0.0,0.0,0.0,0.0,0.0,0.0,0.0,0.0,0.0,0.0,0.0,0.0,0.0,1.9694,2.0364,0.0,0.0,0.0,0.0,0.0,0.0,0.0,0.0,0.0,0.0,0.0,0.0,0.0,2.3664,2.4335,2.5585,2.6204,2.6204,2.6785,2.6739,2.6084,2.5506,2.5246,2.5226,2.4977,0.0,2.2617,2.2391,0.0,0.0,0.0,0.0,0.0,0.0,0.0,0.0,0.0,0.0,0.0,0.0,0.0,0.0,0.0,0.0,0.0,0.0,0.0,0.0,0.0,1.7681,1.8644,1.8219,1.9151,1.9623,1.9301,1.9454,1.9484,1.9317,1.9306,1.9103,1.8726,1.8703,1.8801,1.8983,1.9106,1.9158,1.9154,1.8927,1.8818,1.8818,1.8818,1.8414,1.768,1.7388,0.0,0.0,0.0,0.0,0.0,0.0,0.0,0.0,0.0,0.0,0.0,0.0,0.0,0.0,0.0,0.0,0.0,0.0,0.0,0.0,0.0,0.0,0.0,0.0,0.0,0.0,0.0,0.0,0.0,0.0,0.0,0.0,0.0,0.0,0.0,0.0,0.0,0.0,0.0,2.0029,2.0921,2.1226,2.159,2.1685,0.0,0.0,0.0,0.0,0.0,0.0,0.0,0.0,0.0,2.5246,2.5656,2.6165,2.6844,2.7805,2.8291,2.8291,2.8582,2.8567,2.8276,2.7985,2.785,2.785,2.785,2.7399,2.6502,2.4317,2.2916,2.212,0.0,0.0,0.0,0.0,2.0879,2.0473,0.0,0.0,0.0,0.0,0.0,0.0,0.0,0.0,0.0,0.0,0.0,0.0,1.6908,1.862,1.9569,1.9155,2.039,2.0925,2.0257,2.0444,2.0537,2.0404,2.0404,2.0234,1.9893,1.9886,2.0004,2.0261,2.0405,2.042,2.0293,1.9991,1.9805,1.9703,1.9703,1.9155,1.8196,1.8027,1.7665,0.0,0.0,0.0,0.0,0.0,0.0,0.0,0.0,0.0,0.0,0.0,0.0,0.0,0.0,0.0,0.0,0.0,0.0,0.0,0.0,0.0,0.0,0.0,0.0,0.0,0.0,0.0,0.0,0.0,0.0,0.0,0.0,0.0,0.0,0.0,0.0,0.0,0.0,2.142,2.1964,2.1964,2.2677,2.2927,0.0,0.0,0.0,0.0,0.0,0.0,2.5552,2.5621,2.6156,2.7333,2.7848,2.8432,2.9086,2.9586,2.9922,3.008,2.9915,2.9832,2.9832,2.9675,2.96,2.96,2.96,2.96,2.9357,2.6284,2.4929,2.4664,2.366,2.3046,2.2818,2.321,2.2997,2.2616,0.0,0.0,0.0,0.0,0.0,0.0,0.0,0.0,0.0,0.0,0.0,1.6925,1.7653,1.8468,1.9519,2.0937,2.1153,2.1468,0.0,0.0,2.1985,2.1543,2.152,2.1323,2.0935,2.0927,2.0931,2.0947,2.0955,2.0743,2.0301,2.028,2.0078,1.9703,1.9703,1.9658,1.9568,1.8927,1.8623,1.8544,0.0,0.0,0.0,0.0,0.0,0.0,0.0,0.0,0.0,0.0,0.0,0.0,0.0,0.0,0.0,0.0,0.0,0.0,0.0,0.0,0.0,0.0,0.0,0.0,0.0,0.0,0.0,0.0,0.0,0.0,0.0,0.0,0.0,0.0,0.0,0.0,0.0,0.0,0.0,2.2643,2.3754,0.0,0.0,0.0,0.0,2.5399,2.6033,2.6982,2.8323,2.8397,2.8718,2.9435,2.948,2.9788,3.0402,3.044,3.0777,3.1406,3.0769,3.044,3.0432,2.9862,2.96,2.96,2.96,2.96,2.954,2.87,2.7971,2.7343,2.6643,2.5633,2.4573,2.4603,2.4186,2.3624,0.0,0.0,0.0,0.0,0.0,1.3559,1.4039,1.4334,1.4844,1.5786,1.6782,1.7695,1.8437,1.963,2.0598,2.1143,2.1637,2.2019,2.2283,2.23,2.224,2.205,2.2046,2.1981,2.1846,2.1846,2.1846,2.1846,2.153,2.1173,2.0756,2.0756,2.0504,2.0085,2.0085,2.0085,2.0048,1.9553,1.9091,1.8683,1.8439,1.7938,0.0,0.0,0.0,0.0,0.0,0.0,0.0,0.0,0.0,0.0,0.0,0.0,0.0,0.0,0.0,0.0,0.0,0.0,0.0,0.0,0.0,0.0,0.0,0.0,0.0,0.0,0.0,0.0,0.0,0.0,0.0,0.0,0.0,0.0,0.0,0.0,0.0,2.5168,2.6378,0.0,2.6246,2.639,2.6982,2.8096,2.8395,2.9287,3.1024,3.1113,3.142,3.2085,3.2108,3.2213,3.2422,3.2422,3.2557,3.2774,3.2116,3.1786,3.1772,3.1121,3.0822,3.0822,3.0822,3.0822,3.0807,3.0561,2.9838,2.8855,2.8616,2.8245,2.7847,2.7853,2.7699,2.7499,0.0,0.0,0.0,0.0,1.361,1.394,1.4436,1.4912,1.5598,1.6575,1.756,1.8451,1.9192,2.0425,2.1295,2.1542,2.2019,2.23,2.23,2.23,2.23,2.23,2.23,2.23,2.23,2.23,2.2418,2.2679,2.2354,2.2126,2.1989,2.1989,2.1736,2.1282,2.1282,2.1179,2.0987,2.0515,1.9882,1.9226,1.9097,1.8736,1.8207,0.0,0.0,0.0,0.0,0.0,0.0,0.0,0.0,0.0,0.0,0.0,0.0,0.0,0.0,0.0,0.0,0.0,0.0,0.0,0.0,0.0,0.0,0.0,0.0,0.0,0.0,0.0,0.0,0.0,0.0,0.0,0.0,0.0,0.0,2.4986,2.6183,2.6854,2.812,2.8755,2.8319,2.8665,2.9377,3.0484,3.079,3.1487,3.2774,3.2834,3.3036,3.3492,3.3507,3.3507,3.3507,3.3507,3.3507,3.3484,3.3043,3.2834,3.2819,3.2377,3.2176,3.2176,3.2176,3.2056,3.1839,3.1839,3.1211,3.023,2.999,2.99,2.9877,2.969,2.96,2.96,0.0,0.0,0.0,1.3394,1.4005,1.4518,1.4535,1.5769,1.6713,1.6761,1.8022,1.9215,1.9957,2.0754,2.1525,2.2236,2.23,2.23,2.23,2.23,2.23,2.23,2.23,2.2313,2.2334,2.2334,2.2692,2.343,2.343,2.3589,2.3893,2.3906,2.3677,2.3222,2.3222,2.292,2.2406,2.1806,2.1099,2.0341,1.9902,1.9604,1.9397,0.0,0.0,0.0,0.0,0.0,0.0,0.0,0.0,0.0,0.0,0.0,0.0,0.0,0.0,0.0,0.0,0.0,0.0,0.0,0.0,0.0,0.0,0.0,0.0,0.0,0.0,0.0,0.0,0.0,0.0,0.0,0.0,0.0,2.5624,2.6258,2.6973,2.7645,2.8918,2.9719,2.9719,3.0837,3.1839,3.2512,3.3155,3.3537,3.3567,3.3567,3.3567,3.3567,3.3567,3.3567,3.3567,3.3567,3.3567,3.3567,3.3537,3.3537,3.3537,3.3507,3.3507,3.3507,3.3507,3.3133,3.2527,3.2527,3.2146,3.1488,3.0792,3.053,3.0455,2.9877,2.966,2.966,0.0,0.0,1.3394,1.3394,1.4005,1.4673,1.5223,1.6096,1.7083,1.8161,1.9107,2.0,2.0774,2.1549,2.2083,2.2283,2.23,2.23,2.23,2.23,2.23,2.23,2.23,2.2553,2.3088,2.3105,2.3468,2.4203,2.4203,2.4108,2.3918,2.4197,2.4104,2.3707,2.3707,2.3635,2.345,2.2947,2.2459,2.1936,2.0656,2.031,2.0515,0.0,0.0,0.0,0.0,0.0,0.0,0.0,0.0,0.0,0.0,0.0,0.0,0.0,0.0,0.0,0.0,0.0,0.0,0.0,0.0,0.0,0.0,0.0,0.0,0.0,0.0,0.0,0.0,0.0,0.0,0.0,2.554,2.6324,2.6324,2.8113,2.9684,3.0358,3.1614,3.243,3.243,3.2729,3.323,3.3904,3.4113,3.4443,3.4913,3.4951,3.4951,3.4951,3.4951,3.4951,3.4951,3.4951,3.4951,3.4943,3.4458,3.4226,3.4203,3.3717,3.3507,3.3507,3.3507,3.3395,3.323,3.323,3.3125,3.2834,3.1682,3.1234,3.1204,3.1039,3.0987,3.0987,0.0,1.3394,1.3496,1.3809,1.4477,1.5204,1.5941,1.6686,1.758,1.8747,1.9541,2.0305,2.1106,2.1854,2.23,2.23,2.23,2.23,2.23,2.23,2.23,2.23,2.2594,2.297,2.3383,2.3705,2.4216,2.4957,2.4957,2.4994,2.508,2.5309,2.5301,2.5071,2.5071,2.4967,2.4743,2.4191,2.3812,2.3482,2.229,2.1572,2.1201,2.076,2.0591,2.0511,1.9892,1.9661,1.9603,1.9206,0.0,0.0,0.0,0.0,0.0,0.0,0.0,0.0,0.0,0.0,0.0,0.0,0.0,0.0,0.0,0.0,0.0,0.0,0.0,0.0,0.0,0.0,0.0,0.0,2.7679,2.866,2.866,2.9955,3.1271,3.222,3.3036,3.3612,3.3889,3.3911,3.4203,3.4877,3.4914,3.5093,3.5481,3.5496,3.5496,3.5496,3.5496,3.5496,3.5496,3.5496,3.5496,3.5496,3.5108,3.4914,3.4914,3.4525,3.4337,3.4337,3.4337,3.4181,3.3911,3.3911,3.3747,3.3395,0.0,0.0,0.0,0.0,3.1503,3.1503,0.0,1.3525,1.376,1.4506,1.5238,1.5941,1.6592,1.7323,1.8093,1.8913,1.9592,2.0335,2.1224,2.1904,2.23,2.23,2.23,2.23,0.0,0.0,2.2418,2.2418,2.3122,2.3566,2.365,2.4284,2.4991,2.5719,2.5719,2.6065,2.67,2.67,2.67,2.67,2.67,2.6466,2.604,2.5438,2.5076,2.4834,2.4315,2.3227,2.1861,2.1378,2.1199,2.1175,2.1047,2.0995,2.0995,2.0995,0.0,0.0,0.0,0.0,0.0,0.0,0.0,0.0,0.0,0.0,0.0,0.0,0.0,0.0,0.0,0.0,0.0,0.0,0.0,0.0,0.0,0.0,0.0,0.0,3.0006,3.1675,3.1817,3.1839,3.2288,3.3469,3.3687,3.3956,3.4563,3.4615,3.4862,3.5459,3.5496,3.5496,3.5496,3.5496,0.0,0.0,0.0,3.5496,3.5496,3.5496,3.5496,3.5496,3.5496,3.5496,3.5496,3.5496,3.5496,3.5496,3.5496,3.516,3.4615,3.4615,3.4218,3.3537,3.2789,3.2497,3.2422,3.175,3.1503,3.1503,0.0,1.4286,1.4525,1.5257,1.5994,1.6544,1.6679,1.7323,1.8273,1.9605,1.9906,2.0532,2.1931,2.2215,2.23,2.23,2.23,2.23,0.0,0.0,2.3193,2.3193,2.3895,2.4571,2.5161,2.5317,2.5744,2.6492,2.6492,2.656,2.67,2.67,2.67,2.67,2.67,2.6649,2.6556,2.6434,2.6013,2.5437,2.5318,2.4741,2.3814,2.277,2.2374,2.2245,2.1335,2.0995,2.0995,2.0995,2.0915,2.0811,2.0811,0.0,0.0,0.0,0.0,0.0,0.0,0.0,0.0,0.0,0.0,0.0,0.0,0.0,0.0,0.0,0.0,0.0,0.0,0.0,0.0,2.9744,3.1278,3.2677,3.3769,3.3911,3.4024,3.4286,3.4779,3.516,3.5295,3.531,3.5355,3.5481,3.5496,3.5496,3.5496,3.5496,3.5496,3.5496,3.5496,3.5496,3.5496,3.5496,3.5496,3.5496,3.5496,0.0,3.5496,3.5496,3.5496,3.5496,3.5496,3.5429,3.531,3.531,3.4914,3.4188,3.2968,3.2497,3.2422,3.175,3.1503,3.1503,1.5462,1.5305,1.5271,1.6026,1.6456,1.6826,1.7191,1.7879,1.8752,1.9856,2.0352,2.1035,2.2181,2.23,2.23,2.23,2.23,0.0,0.0,2.2983,2.3396,2.3396,2.4462,2.522,2.5584,2.596,2.6336,2.67,2.67,2.67,2.67,2.67,2.67,2.67,2.67,2.67,2.67,2.67,2.6492,2.615,2.615,2.5934,2.5448,2.4105,2.3608,2.3535,2.297,2.2759,2.2759,2.2759,2.2516,2.2208,2.2208,2.1794,2.1358,0.0,0.0,0.0,0.0,0.0,0.0,0.0,0.0,0.0,0.0,0.0,0.0,0.0,0.0,2.7179,2.9059,0.0,3.0866,3.1839,3.2841,3.3732,3.4406,3.4787,3.5004,3.5004,3.5295,3.5496,3.5496,3.5496,3.5496,3.5496,3.5496,3.5496,3.5496,3.5496,3.5496,3.5496,3.5496,3.5496,3.5496,3.5496,3.5496,3.5496,3.5496,3.5496,3.5496,3.5496,3.5496,3.5496,3.5496,3.5496,3.5496,3.5496,3.5295,3.4899,3.3888,3.3305,3.2953,3.2617,3.2497,3.2452,1.6439,1.6333,1.6207,1.6807,1.6908,1.7106,1.7704,1.8296,1.9009,1.9886,2.0565,2.1319,2.2198,2.23,2.23,0.0,0.0,0.0,0.0,2.3193,2.3684,2.3816,2.5097,2.5803,2.5803,2.6391,2.67,2.67,2.6848,2.6911,2.6911,2.7067,2.7144,2.7139,2.6983,2.6911,2.6894,2.6763,2.67,2.67,2.67,2.67,2.6564,2.5388,2.4833,2.4694,2.4545,2.441,2.4305,2.4444,2.4017,2.3434,2.3569,2.2945,2.2239,2.2619,2.2884,0.0,0.0,0.0,0.0,0.0,0.0,0.0,0.0,0.0,2.7641,3.0395,3.0348,3.0452,3.2577,3.3044,3.3276,3.3826,3.435,3.4682,3.4682,3.5168,3.5496,3.5496,3.5496,3.5496,3.5496,3.5496,3.5496,3.5496,3.5496,3.5496,3.5496,3.5496,3.5496,3.5496,3.5496,3.5496,3.5496,3.5496,3.5496,3.5496,3.5496,3.5496,3.5496,3.5496,3.5496,3.5496,3.5496,3.5496,3.5496,3.5496,3.5496,3.5444,3.4907,3.436,3.3866,3.3597,3.3507,3.3425,0.0,1.7154,1.7583,1.7653,1.7687,1.7701,1.7786,1.787,1.8425,1.9819,2.0075,2.0687,2.2148,2.23,2.23,2.23,0.0,0.0,2.3224,2.3962,2.4673,2.533,2.6133,2.6581,2.6581,2.6661,2.67,2.67,2.7359,2.7672,2.7689,2.8404,2.8739,2.8701,2.8006,2.7672,2.7621,2.6979,2.67,2.67,2.67,2.67,2.6678,2.6513,2.6052,2.5385,2.4745,2.4085,2.362,2.4271,2.4017,2.3519,2.4169,2.4274,2.4183,2.4242,0.0,2.445,2.5153,2.5943,2.6936,2.8379,2.8707,2.9406,0.0,3.2234,3.2155,3.3684,3.4061,3.4349,3.5176,3.5281,3.5288,3.5342,3.5381,3.5385,3.5385,3.5451,3.5496,3.5496,3.5496,3.5496,3.5496,3.5496,3.5496,3.5496,3.5496,3.5496,3.5496,3.5496,3.5496,3.5496,3.5496,3.5496,3.5496,3.5496,3.5496,3.5496,3.5496,3.5496,3.5496,3.5496,3.5496,3.5496,3.5496,3.5496,3.5496,3.5496,3.5496,3.5481,3.5421,3.534,3.5122,3.3941,3.3507,3.3492,0.0,1.7586,1.78,1.78,1.78,1.78,1.78,1.8524,1.9295,1.992,2.0785,2.1583,2.2232,2.23,2.23,2.23,0.0,0.0,2.3346,2.4081,2.4825,2.5567,2.6302,2.67,2.67,2.7127,2.7338,2.7338,2.8129,2.8501,2.8505,2.8836,2.8993,2.8993,2.8645,2.8501,2.8484,2.8172,2.8041,2.8041,2.8041,2.7761,2.7338,2.7338,2.6873,2.6205,2.5887,2.5583,0.0,0.0,2.5291,2.4725,2.5037,2.4551,2.3945,2.4376,2.4791,0.0,2.7668,2.8441,2.9047,3.0545,3.1234,3.2104,3.4207,3.4191,3.4243,3.6099,3.6191,3.6166,3.6796,3.6892,3.6881,3.6881,3.646,3.6134,3.6134,3.5774,3.5496,3.5496,3.5496,3.5496,3.5496,3.5496,3.5669,3.6051,3.6073,3.6073,3.6073,3.6073,3.5893,3.5511,3.5496,3.5496,3.5496,3.5496,3.5496,3.5496,3.5496,3.5496,3.5496,3.5496,3.5496,3.5496,3.5496,3.5496,3.5496,3.5496,3.5496,3.5496,3.5496,3.5496,3.5421,3.4868,3.4666,3.4607,0.0,1.7653,1.78,1.78,1.78,1.78,1.78,1.8882,1.9774,1.9971,2.1164,2.2066,2.2283,2.23,2.23,2.23,2.23,2.2692,0.0,2.4203,2.4927,2.5858,2.6425,2.6797,2.6996,2.7536,2.7908,2.8132,2.8928,2.9305,2.9305,2.9513,2.9614,2.9602,2.9394,2.9305,2.9293,2.9094,2.8993,2.8993,2.8993,2.8522,2.7802,2.7802,2.7338,2.6678,2.6475,2.6277,0.0,0.0,2.5731,2.5304,2.5304,2.4847,2.4415,2.4948,2.5934,2.7325,2.9507,3.0391,3.1004,3.2283,3.3158,3.4094,3.5594,3.5705,3.6023,3.7832,3.7938,3.785,3.8335,3.826,3.8106,3.8106,3.7263,3.6607,3.6607,3.5967,3.5496,3.5496,3.5496,3.5496,3.5496,3.5496,3.5774,3.644,3.6508,3.6568,3.674,3.6755,3.653,3.6035,3.602,3.602,3.602,3.602,3.602,3.602,3.5863,3.5774,3.5774,3.5586,3.5496,3.5496,3.5496,3.5496,3.5496,3.5496,3.5496,3.5496,3.5496,3.5496,3.5496,3.5496,3.5496,3.5421,0.0,0.0,1.78,1.78,1.78,1.78,1.78,1.8454,1.9198,1.9906,2.072,2.1512,2.2215,2.23,2.23,2.23,2.23,2.2916,2.4376,2.4498,2.5151,2.6598,2.6683,2.7029,2.7752,2.779,2.8188,2.8959,2.9702,3.0065,3.0081,3.0801,3.1128,3.1094,3.0395,3.0065,3.0014,2.9305,2.8993,2.8993,2.8993,2.8522,2.7802,2.7802,2.7338,2.6611,2.5892,0.0,0.0,0.0,2.4545,2.4528,2.4528,2.5485,0.0,2.6632,2.8213,2.998,3.0081,3.1145,3.2424,3.3186,3.3914,3.4872,3.6417,3.7302,3.8017,3.8802,3.9517,4.0005,4.0024,3.9384,3.8867,3.8867,3.7591,3.6607,3.6607,3.5967,3.5496,3.5496,3.5496,3.5496,3.5496,3.5496,3.5774,3.644,3.6508,3.6755,3.7336,3.7366,3.7366,3.7336,3.7336,3.7336,3.7336,3.7336,3.7336,3.7336,3.6755,3.647,3.644,3.5804,3.5496,3.5496,3.5496,3.5496,3.5496,3.5496,3.5496,3.5496,3.5496,3.5496,3.5496,3.5496,3.5496,3.5496,0.0,0.0,0.0,1.78,1.8194,1.8538,1.8538,1.9155,1.9724,1.9971,2.1133,0.0,0.0,0.0,0.0,0.0,2.23,2.2726,2.3705,2.422,2.4944,2.5926,2.6442,2.7046,2.7786,2.8327,2.8979,2.9736,3.0463,3.0835,3.0835,3.1072,3.1195,3.12,3.0937,3.0835,3.0818,3.0574,3.0743,3.1092,3.0113,2.9562,2.9265,2.8789,2.7816,2.6594,0.0,0.0,0.0,0.0,2.4495,2.4596,2.5071,0.0,0.0,2.7008,2.8349,2.9694,3.1166,3.2278,3.3203,3.3953,3.5092,3.6293,3.7297,3.8097,3.8842,3.9576,3.9937,4.0096,4.0096,3.9889,3.9516,3.8999,3.8046,3.7219,3.6684,3.6346,3.5998,3.5541,3.5893,3.5991,3.5541,3.5496,3.5945,3.7015,3.7105,3.7375,3.8027,3.8063,3.7853,3.7411,3.7396,3.7396,3.7396,3.7396,3.7396,3.7396,3.6799,3.6508,3.6479,3.5804,3.5496,3.5496,3.5496,3.5496,3.5496,3.5496,3.5496,3.5496,3.5496,3.5496,3.5496,3.5496,3.5496,3.5496,0.0,0.0,0.0,0.0,0.0,0.0,0.0,0.0,0.0,0.0,0.0,0.0,0.0,0.0,0.0,0.0,0.0,2.2608,2.3346,0.0,2.4551,2.5554,2.5799,2.6509,2.7769,2.8044,2.881,3.0098,3.0577,3.0937,3.1195,3.1195,3.1195,3.1195,3.1195,3.1195,3.1178,3.092,3.1077,3.1403,3.0192,2.9528,2.9236,2.8755,2.7795,0.0,0.0,0.0,0.0,2.4141,2.4068,2.4541,2.4746,2.5216,2.6065,2.8048,2.9364,3.0596,3.2559,3.3626,3.4365,3.5126,3.6276,3.7387,3.8125,3.8656,3.9136,3.9616,3.9717,3.9717,3.9717,3.9717,3.9623,3.9367,3.8669,3.7984,3.7461,3.6866,3.6425,3.6199,3.6372,3.6425,3.6199,3.6184,3.6513,3.7336,3.762,3.8048,3.8721,3.8751,3.8556,3.8129,3.8105,3.8105,3.8105,3.8105,3.7994,3.7749,3.7368,3.7054,3.6799,3.6148,3.5863,3.5848,3.5609,3.5496,3.5496,3.5496,3.5496,3.5496,3.5496,3.5496,3.5496,3.5496,3.5496,3.5496,0.0,0.0,0.0,0.0,0.0,0.0,0.0,0.0,0.0,0.0,0.0,0.0,0.0,0.0,0.0,0.0,0.0,0.0,0.0,0.0,0.0,2.5431,2.4855,2.5515,2.7701,2.7059,2.7807,3.0031,3.0031,3.0391,3.1099,3.1099,3.1099,3.1099,3.1099,3.1099,3.1043,3.034,3.0065,3.0031,2.9254,2.8505,2.7858,2.7819,0.0,0.0,0.0,0.0,0.0,2.3183,2.3447,2.4558,2.3887,2.5634,2.8225,2.9755,3.1229,3.2677,3.4161,3.5109,3.5847,3.6654,3.7404,3.8136,3.8842,3.8994,3.8994,3.8994,3.896,3.8943,0.0,3.8977,3.9225,3.9876,3.9352,3.8854,3.881,3.7572,3.6852,3.7398,3.6944,3.6814,3.7351,3.7426,3.7456,3.7456,3.8042,3.8691,3.9361,3.9406,3.9406,3.9406,3.9406,3.9406,3.9406,3.9406,3.9086,3.8446,3.8424,3.8071,3.7426,3.6821,3.653,3.6455,3.5833,3.5526,3.5496,3.5496,3.5496,3.5496,3.5496,3.5496,3.5496,3.5496,3.5496,3.5496,0.0,0.0,0.0,0.0,0.0,0.0,0.0,0.0,0.0,0.0,0.0,0.0,0.0,0.0,0.0,0.0,0.0,0.0,0.0,0.0,0.0,0.0,0.0,2.5286,2.6941,2.6797,0.0,0.0,0.0,2.9377,2.9564,2.9564,2.9564,2.9564,2.9564,2.9564,2.9551,2.9361,2.9605,2.998,0.0,2.8344,2.8628,0.0,0.0,0.0,0.0,0.0,0.0,0.0,0.0,2.7025,2.7444,2.8472,2.9811,3.1302,3.2396,3.344,3.4923,3.5887,3.6676,3.7432,3.8176,3.8774,3.896,3.8994,3.8994,3.8994,3.8565,3.8176,3.8176,3.8633,3.8878,3.8445,3.9154,3.9561,3.8964,3.8873,3.8767,3.8405,0.0,3.7787,3.7426,3.7853,3.8146,3.8146,3.8296,3.8691,3.9361,3.9406,3.9406,3.9406,3.9406,3.9406,3.9406,3.9406,3.9316,3.9137,3.864,3.8311,3.8123,3.7464,3.6926,3.6493,3.6321,3.5953,3.5496,3.5496,3.5496,3.5496,3.5496,3.5496,3.5496,3.5496,3.5496,3.5496,0.0,0.0,0.0,0.0,0.0,0.0,0.0,0.0,0.0,0.0,0.0,0.0,0.0,0.0,0.0,0.0,0.0,0.0,0.0,0.0,0.0,0.0,2.3481,2.4229,2.5705,2.5739,2.6314,0.0,0.0,0.0,0.0,2.8831,2.8814,2.8489,2.8836,2.8802,2.8467,0.0,0.0,0.0,0.0,0.0,0.0,0.0,0.0,0.0,0.0,0.0,0.0,0.0,0.0,2.8518,2.9627,3.0473,3.1364,3.2824,3.3784,3.4692,3.6203,3.7178,3.7867,3.8278,3.8943,3.9305,3.8667,3.8774,3.8723,3.7713,3.7466,3.7421,3.7421,3.8024,3.8477,3.8352,3.9543,4.0341,3.9901,3.9748,3.9661,3.9592,3.8883,3.8362,3.8293,3.8622,3.8841,3.8841,3.8841,3.8996,3.9376,3.9406,3.9406,3.9406,3.9406,3.9406,3.9406,3.9406,3.9406,3.9406,3.9026,3.8841,3.8826,3.8138,3.7644,3.7293,3.6748,3.6291,3.5916,3.5616,3.5496,3.5496,3.5496,3.5496,3.5496,3.5496,3.5496,3.5496,0.0,0.0,0.0,0.0,0.0,0.0,0.0,0.0,0.0,0.0,0.0,0.0,0.0,0.0,0.0,0.0,0.0,0.0,0.0,0.0,0.0,0.0,2.2641,2.2932,2.4325,2.4355,2.472,0.0,0.0,0.0,0.0,0.0,0.0,0.0,0.0,0.0,0.0,0.0,0.0,0.0,0.0,0.0,0.0,0.0,0.0,0.0,0.0,0.0,0.0,0.0,2.9897,2.9704,3.1161,3.2085,3.2886,3.4364,3.5267,3.6095,3.7629,3.8514,3.9011,3.9113,3.9542,3.9599,3.8204,3.8244,3.7956,3.5876,3.6017,3.6485,3.6485,3.7184,3.8007,3.8723,3.9994,4.0904,4.0985,4.0338,4.0065,4.0623,3.9415,3.8766,3.9346,3.9406,3.9406,3.9406,3.9406,3.9406,3.9406,3.9406,3.9406,3.9406,3.9406,3.9406,3.9406,3.9406,3.9406,3.9406,3.9406,3.9406,3.9376,3.8796,3.8482,3.8326,3.7144,3.6575,3.644,3.5774,3.5496,3.5496,3.5496,3.5496,3.5496,3.5496,3.5496,3.5496,0.0,0.0,0.0,0.0,0.0,0.0,0.0,0.0,0.0,0.0,2.23,2.23,0.0,0.0,0.0,0.0,0.0,0.0,0.0,0.0,0.0,0.0,2.2367,2.2713,2.3569,2.3586,0.0,0.0,0.0,0.0,0.0,0.0,0.0,0.0,0.0,0.0,0.0,0.0,0.0,0.0,0.0,0.0,0.0,0.0,0.0,0.0,0.0,0.0,0.0,0.0,3.1336,3.1989,3.3462,3.4026,3.4415,3.5943,3.6485,3.6919,3.8402,3.891,3.9153,3.9751,3.9542,3.896,3.8102,3.7014,0.0,3.4895,3.4799,3.4906,3.4906,3.6045,3.7224,3.7967,3.9303,4.0428,4.0925,4.0824,4.0695,4.0691,3.9822,3.9272,3.9391,3.9406,3.9406,3.9406,3.9406,3.9406,3.9406,3.9406,3.9406,3.9406,3.9406,3.9406,3.9406,3.9406,3.9406,3.9406,3.9406,3.9406,3.9406,3.9272,3.8922,3.8365,3.7584,3.6956,3.644,3.5774,3.5496,3.5496,3.5496,3.5496,3.5496,3.5496,3.5496,3.5496,0.0,0.0,0.0,0.0,0.0,0.0,0.0,2.1228,2.1874,2.2249,2.23,2.23,2.23,2.23,2.23,0.0,0.0,0.0,0.0,0.0,0.0,0.0,0.0,2.2472,2.2814,0.0,0.0,0.0,0.0,0.0,0.0,0.0,0.0,0.0,0.0,0.0,0.0,0.0,0.0,0.0,0.0,0.0,0.0,0.0,0.0,0.0,0.0,0.0,0.0,0.0,3.0799,3.2114,3.4365,3.5075,3.5295,3.6462,3.7071,3.7607,3.8707,3.9288,3.9666,4.0005,3.9542,3.8599,3.7048,0.0,0.0,3.367,3.3665,3.3931,3.3931,3.5165,3.6293,3.6659,3.8282,3.9904,4.0953,4.0655,4.0594,4.1294,4.0202,3.9406,3.9406,3.9406,3.9406,3.9406,3.9406,3.9406,3.9406,3.9406,3.9406,3.9406,3.9406,3.9406,3.9406,3.9406,3.9406,3.9406,3.9406,3.9406,3.9406,3.9406,3.9212,3.8862,3.7845,3.724,3.6881,3.5908,3.5496,3.5496,3.5496,3.5496,3.5496,3.5496,3.5496,3.5496,0.0,0.0,0.0,0.0,0.0,0.0,0.0,2.0686,2.1458,2.2198,2.23,2.23,2.23,2.23,2.23,0.0,0.0,0.0,0.0,0.0,0.0,0.0,0.0,0.0,0.0,0.0,0.0,0.0,0.0,0.0,0.0,0.0,0.0,0.0,0.0,0.0,0.0,0.0,0.0,0.0,0.0,0.0,0.0,0.0,0.0,0.0,0.0,0.0,0.0,0.0,2.9767,3.1212,3.401,3.5103,3.5526,3.6304,3.7184,3.8069,3.8808,3.9548,4.0096,4.0096,3.9423,3.821,3.6079,3.5368,3.4545,3.2486,3.2655,3.3169,3.3169,3.4241,3.5233,3.5554,3.7246,3.9012,4.0431,4.0165,4.0282,4.1564,4.035,3.9472,3.9657,3.9517,3.9406,3.9406,3.9406,3.9406,3.9406,3.9406,3.9406,3.9406,3.9406,3.9406,3.9406,3.9406,3.9406,3.9406,3.9406,3.9406,3.9406,3.9406,3.9406,3.9331,3.7979,3.7396,3.7306,3.6028,3.5496,3.5496,3.5496,3.5496,3.5496,3.5496,3.5496,3.5496,0.0,0.0,0.0,0.0,0.0,0.0,0.0,2.0686,2.1458,2.2198,2.23,2.23,2.23,2.23,2.23,0.0,0.0,0.0,0.0,0.0,0.0,0.0,0.0,0.0,0.0,0.0,0.0,0.0,0.0,0.0,0.0,0.0,0.0,0.0,0.0,0.0,0.0,0.0,0.0,0.0,0.0,0.0,0.0,0.0,0.0,0.0,0.0,0.0,0.0,0.0,0.0,2.9602,3.1882,3.3518,3.4742,3.5492,3.6761,3.8069,3.8808,3.9548,4.0096,4.0096,3.9045,3.7572,3.5977,0.0,3.3164,3.1618,3.1899,3.2395,3.2395,3.3056,3.4038,3.5385,3.6389,3.7431,3.8665,3.9401,4.0056,4.0739,3.9973,3.9711,4.0509,3.9864,3.9406,3.9406,3.9406,3.9406,3.9406,3.9406,3.9406,3.9406,3.9406,3.9406,3.9406,3.9406,3.9406,3.9406,3.9406,3.9406,3.9406,3.9406,3.9406,3.9331,3.7979,3.7396,3.7306,3.6028,3.5496,3.5496,3.5496,3.5496,3.5496,3.5496,3.5496,3.5496,0.0,0.0,0.0,0.0,0.0,0.0,1.9819,2.0265,2.0917,2.2148,2.23,2.23,2.23,2.23,2.23,2.23,0.0,0.0,0.0,0.0,0.0,0.0,0.0,0.0,0.0,0.0,0.0,0.0,0.0,0.0,0.0,0.0,0.0,0.0,0.0,0.0,0.0,0.0,0.0,0.0,0.0,0.0,0.0,0.0,0.0,0.0,0.0,0.0,0.0,0.0,2.7909,2.8424,2.9304,3.0937,0.0,0.0,3.6028,3.7404,3.8142,3.9203,4.0096,4.0096,3.8994,3.751,3.596,3.4455,3.2978,3.15,3.1432,3.164,3.164,3.2594,3.3587,3.4173,3.5295,3.673,3.8573,3.8654,3.9298,4.1367,4.0829,4.0408,4.0669,4.0395,3.9964,3.9436,3.9406,3.9406,3.9406,3.9406,3.9406,3.9406,3.9406,3.9406,3.9406,3.9406,3.9406,3.9406,3.9406,3.9406,3.9406,3.9406,3.9406,3.9331,3.7979,3.7396,3.7306,3.6028,3.5496,3.5496,3.5496,3.5496,3.5496,3.5496,3.5496,3.5496,0.0,0.0,0.0,0.0,0.0,1.8219,1.9487,1.9856,2.0484,2.1796,2.2168,2.23,2.23,2.23,2.23,2.23,2.23,0.0,0.0,0.0,0.0,0.0,0.0,0.0,0.0,0.0,0.0,0.0,0.0,0.0,0.0,0.0,0.0,0.0,0.0,0.0,0.0,0.0,0.0,0.0,0.0,0.0,0.0,0.0,0.0,0.0,0.0,0.0,0.0,0.0,0.0,2.7503,0.0,0.0,0.0,0.0,3.4917,3.6558,3.7082,3.8311,3.9457,3.9457,3.8504,3.7178,3.5633,3.4309,3.2978,3.15,3.1195,3.1195,3.1195,3.2227,3.3152,3.3362,3.4838,3.659,3.8354,3.8463,3.9224,4.1573,4.0885,4.0355,4.072,4.0488,4.0054,3.9445,3.9406,3.9406,3.9406,3.9406,3.9406,3.9406,3.9406,3.9406,3.9406,3.9406,3.9406,3.9406,3.9406,3.9406,3.9406,3.9406,3.9287,3.9041,3.7904,3.7291,3.7045,3.5945,3.5496,3.5496,3.5496,3.5496,3.5496,3.5496,3.5496,3.5496,0.0,0.0,0.0,0.0,0.0,0.0,1.8795,1.9527,2.0281,2.1109,2.1857,2.23,2.23,2.23,2.23,2.23,2.23,0.0,0.0,0.0,0.0,0.0,0.0,0.0,0.0,0.0,0.0,2.4495,2.5236,0.0,0.0,0.0,0.0,0.0,0.0,0.0,0.0,0.0,0.0,0.0,0.0,0.0,0.0,0.0,0.0,0.0,0.0,0.0,0.0,0.0,0.0,0.0,0.0,0.0,0.0,0.0,3.3311,3.5616,3.5622,3.6761,3.7916,3.7916,3.7353,3.6417,3.4866,3.3931,3.2978,3.15,3.1195,3.1195,3.1195,3.1814,3.2559,3.3288,3.5306,3.7003,3.7633,3.8961,4.0158,4.0914,3.9594,3.9222,4.0761,4.0001,3.9415,3.9406,3.9406,3.9406,3.9406,3.9406,3.9406,3.9406,3.9406,3.9406,3.9406,3.9406,3.9406,3.9406,3.9406,3.9406,3.9406,3.9406,3.9041,3.8371,3.7695,3.706,3.6455,3.5774,3.5496,3.5496,3.5496,3.5496,3.5496,3.5496,3.5496,3.5496,0.0,0.0,0.0,0.0,0.0,0.0,0.0,1.9096,1.9725,2.1021,2.1407,2.1739,2.2249,2.23,2.23,2.23,2.23,0.0,0.0,0.0,0.0,0.0,0.0,0.0,0.0,0.0,0.0,2.4495,2.5236,2.5858,0.0,0.0,0.0,0.0,0.0,0.0,0.0,0.0,0.0,0.0,0.0,0.0,0.0,0.0,0.0,0.0,0.0,0.0,0.0,0.0,0.0,0.0,0.0,0.0,0.0,0.0,0.0,3.3564,3.4573,3.5577,3.6332,3.6332,3.5769,3.4973,3.3976,3.3175,3.2368,3.1403,3.1606,3.195,3.195,3.2965,3.406,3.4782,3.5966,3.7215,3.8426,3.9421,4.0284,4.0913,4.0436,4.0225,4.0726,3.9939,3.9406,3.9406,3.9406,3.9406,3.9406,3.9406,3.9406,3.9406,3.9406,3.9406,3.9406,3.9406,3.9406,3.9406,3.9406,3.9406,3.9406,3.9406,3.9026,3.8356,3.7689,3.706,3.644,3.5774,3.5496,3.5496,3.5496,3.5496,3.5496,3.5496,3.5496,3.5496,0.0,0.0,0.0,0.0,0.0,0.0,0.0,1.8727,1.9241,2.0209,2.0835,2.1376,2.1837,2.2134,2.23,2.23,2.23,0.0,0.0,0.0,0.0,0.0,0.0,0.0,0.0,2.2743,2.3481,2.4495,2.4957,2.5697,2.67,2.67,2.5908,0.0,0.0,0.0,0.0,0.0,0.0,0.0,0.0,0.0,0.0,0.0,0.0,0.0,0.0,0.0,0.0,0.0,0.0,0.0,0.0,0.0,0.0,0.0,2.9135,3.0992,3.2769,3.3993,3.4777,3.4777,3.4416,3.3885,3.3158,3.2621,3.2085,3.1352,3.1572,3.1967,3.2242,3.3281,3.4336,3.5075,3.6332,3.7439,3.8059,3.9518,4.0524,4.0575,4.0697,4.0529,3.9893,3.9578,3.9406,3.9406,3.9406,3.9406,3.9406,3.9406,3.9406,3.9406,3.9406,3.9406,3.9406,3.9406,3.9406,3.9406,3.9406,3.9406,3.9391,3.9146,3.8652,3.7988,3.7345,3.6701,0.0,3.5661,3.5496,3.5496,3.5496,3.5496,3.5496,3.5496,3.5496,3.5496,0.0,0.0,0.0,0.0,0.0,0.0,0.0,1.8383,1.8846,1.8896,2.0192,2.1143,2.119,2.1854,2.23,2.23,0.0,0.0,0.0,0.0,0.0,0.0,0.0,0.0,0.0,2.23,2.3021,2.4495,2.4444,2.5185,2.6628,2.6564,2.579,2.4423,2.4423,0.0,0.0,0.0,0.0,0.0,0.0,0.0,0.0,0.0,0.0,0.0,0.0,0.0,0.0,0.0,0.0,0.0,0.0,0.0,0.0,0.0,0.0,0.0,0.0,3.2002,3.3097,3.3142,3.3164,3.2995,3.2373,3.2226,0.0,3.1331,3.1246,3.1522,3.231,3.3022,3.3756,3.4596,3.6518,3.7642,3.6877,3.9226,4.0783,4.0142,4.0503,4.0216,3.8708,3.9071,3.9406,3.9406,3.9406,3.9406,3.9406,3.9406,3.9406,3.9406,3.9406,3.9406,3.9406,3.9406,3.9406,3.9406,3.9346,3.9331,3.9316,3.8631,3.7967,3.7306,3.6731,3.6118,3.5496,3.5496,3.5496,3.5496,3.5496,3.5496,3.5496,3.5496,3.5496,3.5496,0.0,0.0,0.0,0.0,0.0,0.0,0.0,0.0,0.0,0.0,1.9719,2.0511,2.1123,2.1854,2.23,0.0,0.0,0.0,0.0,0.0,0.0,0.0,0.0,0.0,0.0,2.23,2.3021,2.4495,2.3928,2.4408,2.5841,2.5282,2.4525,2.3654,2.3654,0.0,0.0,0.0,0.0,0.0,0.0,0.0,0.0,0.0,0.0,0.0,2.4698,2.5118,0.0,0.0,0.0,0.0,0.0,0.0,0.0,0.0,2.7359,2.7921,2.8449,0.0,3.0168,3.0724,3.0876,3.0983,0.0,3.1454,3.1403,3.1246,0.0,3.244,3.3738,3.4127,3.4861,3.6783,3.7544,3.7826,3.7576,3.8593,3.9939,4.1474,4.0626,3.9975,4.0148,3.9703,3.9406,3.9406,3.9406,3.9406,3.9406,3.9406,3.9406,3.9406,3.9406,3.9406,3.9406,3.9406,3.9406,3.9391,3.8886,3.864,3.8601,3.7943,3.73,3.6695,3.6568,3.6118,3.5496,3.5496,3.5496,3.5496,3.5496,3.5496,3.5496,3.5496,3.5496,3.5496,0.0,0.0,0.0,0.0,0.0,0.0,0.0,0.0,0.0,0.0,0.0,0.0,0.0,0.0,0.0,0.0,0.0,0.0,0.0,0.0,0.0,0.0,0.0,0.0,2.23,2.23,2.2868,2.4,2.3603,2.3989,2.5092,2.4694,2.4115,2.3383,2.3054,0.0,0.0,0.0,0.0,0.0,0.0,0.0,0.0,0.0,0.0,0.0,2.3874,2.4242,0.0,2.5364,2.5879,2.6251,0.0,0.0,0.0,0.0,2.6979,2.7291,2.7291,2.8619,3.0117,3.0514,3.0857,3.1212,3.1606,3.1437,3.1195,0.0,0.0,0.0,3.3716,3.4004,3.4748,3.7026,3.7686,3.8239,3.9216,3.9056,3.9536,4.1437,4.0189,3.944,4.013,3.9438,3.9071,3.9376,3.9406,3.9272,3.896,3.8937,3.8802,3.8494,3.8479,3.8778,3.9391,3.9092,3.8937,3.8922,3.8257,3.7943,3.7913,3.7285,3.6814,3.6485,3.6171,3.5833,3.5496,3.5496,3.5496,3.5496,3.5496,3.5496,3.5496,3.5496,3.5496,3.5496,0.0,0.0,0.0,0.0,0.0,0.0,0.0,0.0,0.0,0.0,0.0,0.0,0.0,0.0,0.0,0.0,0.0,0.0,0.0,0.0,0.0,0.0,0.0,2.23,2.23,2.23,2.2658,2.3396,2.3295,2.3603,2.4321,2.422,2.3827,2.3193,2.2574,0.0,0.0,0.0,0.0,0.0,0.0,0.0,0.0,0.0,0.0,0.0,0.0,0.0,0.0,2.4844,2.5334,2.5541,2.6175,0.0,0.0,0.0,0.0,0.0,2.6814,2.8996,3.1145,3.0913,3.1425,3.1984,3.2107,0.0,0.0,0.0,0.0,0.0,0.0,3.357,3.4303,3.6598,3.7478,3.8622,4.0745,3.9798,3.9441,4.0856,3.9755,3.9083,3.9598,3.8905,3.8631,3.9056,3.9092,3.8847,3.8281,3.8251,3.7988,3.7411,3.7396,3.7949,3.9077,3.8527,3.8251,3.8236,3.7584,3.7261,3.7231,3.6635,3.635,3.6329,3.5744,3.5496,3.5496,3.5496,3.5496,3.5496,3.5496,3.5496,3.5496,3.5496,3.5496,3.5496,0.0,0.0,0.0,0.0,0.0,0.0,0.0,0.0,0.0,0.0,0.0,0.0,0.0,0.0,0.0,0.0,0.0,0.0,0.0,0.0,0.0,0.0,2.23,2.23,2.23,2.23,2.2658,2.3396,2.2777,2.2848,2.3556,2.2936,2.2574,2.2452,2.235,2.23,0.0,0.0,0.0,0.0,0.0,0.0,0.0,0.0,0.0,0.0,0.0,0.0,0.0,2.3667,2.4141,2.4694,2.4795,0.0,0.0,0.0,0.0,0.0,2.7287,2.9371,3.0896,2.9653,2.9897,3.0598,3.1234,0.0,0.0,0.0,0.0,0.0,0.0,3.4325,3.5086,3.7358,3.7774,3.8391,4.0041,3.9475,3.9455,4.0992,4.0308,3.9757,3.9851,3.9074,3.834,3.7747,3.771,3.7665,3.756,3.7545,3.7516,3.7396,3.7396,3.7501,3.771,3.7605,3.7545,3.7545,3.6926,3.6635,3.6628,3.5953,3.5654,3.5654,3.5541,3.5496,3.5496,3.5496,3.5496,3.5496,3.5496,3.5496,3.5496,3.5496,3.5496,3.5496,0.0,0.0,0.0,0.0,0.0,0.0,0.0,0.0,0.0,0.0,0.0,0.0,0.0,0.0,0.0,0.0,0.0,0.0,0.0,0.0,0.0,2.23,2.23,2.23,2.23,2.23,2.2472,2.2814,2.2472,2.2472,2.2797,2.2452,2.23,2.23,2.23,2.23,2.2317,0.0,0.0,0.0,0.0,0.0,0.0,0.0,0.0,0.0,0.0,0.0,0.0,0.0,2.3624,2.3983,2.4376,0.0,0.0,0.0,0.0,0.0,2.6323,2.7672,2.8895,2.9453,3.106,3.2459,3.2408,3.2391,0.0,0.0,0.0,0.0,3.424,3.4827,3.5836,3.8125,3.8795,3.9293,3.9995,3.9417,3.9319,4.0474,3.9517,3.8915,3.9269,3.856,3.7884,3.7434,3.7396,3.727,3.6926,3.6911,3.6746,3.6379,3.6379,3.6379,3.6379,3.6379,3.6567,3.6919,3.6276,3.5953,3.5953,3.5639,3.5496,3.5496,3.5496,3.5496,3.5496,3.5496,3.5496,3.5496,3.5496,3.5496,3.5496,3.5496,3.5496,3.5496,0.0,0.0,0.0,0.0,0.0,0.0,0.0,0.0,0.0,0.0,0.0,0.0,0.0,0.0,0.0,0.0,0.0,0.0,0.0,0.0,2.23,2.23,2.23,2.23,2.23,2.23,2.23,2.23,2.23,2.23,2.23,2.23,2.23,2.23,2.23,2.23,2.23,0.0,0.0,0.0,0.0,0.0,0.0,0.0,0.0,0.0,0.0,0.0,0.0,0.0,0.0,0.0,0.0,0.0,0.0,2.4186,2.4237,2.4474,2.5558,2.6399,2.7418,2.9359,0.0,3.3242,3.3367,3.3271,0.0,0.0,0.0,0.0,3.4906,3.5785,3.7014,3.8943,3.9734,4.0039,3.9857,3.9289,3.9059,3.9506,3.853,3.7935,3.8253,3.7739,3.7241,3.6985,3.6962,3.6753,3.6291,3.6261,3.6036,3.5519,3.5496,3.5496,3.5496,3.5496,3.5759,3.6261,3.5744,3.5496,3.5496,3.5496,3.5496,3.5496,3.5496,3.5496,3.5496,3.5496,3.5496,3.5496,3.5496,3.5496,3.5496,3.5496,3.5496,3.5496,0.0,0.0,0.0,0.0,0.0,0.0,0.0,0.0,0.0,0.0,0.0,0.0,0.0,0.0,0.0,0.0,0.0,0.0,0.0,0.0,2.23,2.23,2.23,2.23,2.23,2.23,2.23,2.23,2.23,2.23,2.23,2.23,2.23,2.23,2.23,0.0,0.0,0.0,0.0,0.0,0.0,0.0,0.0,0.0,0.0,0.0,0.0,0.0,0.0,0.0,0.0,0.0,0.0,0.0,2.2591,2.3278,2.3485,2.3938,2.6052,2.7156,2.7946,2.8853,2.9247,0.0,3.2792,3.287,0.0,3.4144,0.0,0.0,3.6485,3.7799,3.9028,3.9886,4.0079,3.9833,3.9093,3.8935,3.867,3.8035,3.7879,3.7523,3.683,3.6708,3.6382,3.5696,3.5646,3.5616,3.5571,3.5571,3.5541,3.5496,3.5496,3.5496,3.5496,3.5496,3.5526,3.5571,3.5526,3.5496,3.5496,3.5496,3.5496,3.5496,3.5496,3.5496,3.5496,3.5496,3.5496,3.5496,3.5496,3.5496,3.5496,3.5496,3.5496,3.5496,0.0,0.0,0.0,0.0,0.0,0.0,0.0,0.0,0.0,0.0,0.0,0.0,0.0,0.0,0.0,0.0,0.0,0.0,0.0,0.0,2.23,2.23,2.23,2.23,2.23,2.23,2.23,2.23,2.23,2.23,2.23,2.23,2.23,2.23,2.23,0.0,0.0,0.0,0.0,0.0,0.0,0.0,0.0,0.0,0.0,0.0,0.0,0.0,0.0,0.0,2.23,2.23,2.23,2.23,2.235,2.2624,2.2726,2.3,2.4293,2.552,2.6852,2.8565,2.8993,0.0,0.0,3.3558,3.4658,3.5718,3.6518,0.0,0.0,3.8622,3.9237,3.9977,4.0096,3.9814,3.9002,3.8901,3.8628,3.7885,3.7807,3.7485,3.6684,3.6607,3.629,3.5554,3.5496,3.5496,3.5496,3.5496,3.5496,3.5496,3.5496,3.5496,3.5496,3.5496,3.5496,3.5496,3.5496,3.5496,3.5496,3.5496,3.5496,3.5496,3.5496,3.5496,3.5496,3.5496,3.5496,3.5496,3.5496,3.5496,3.5496,3.5496,3.5496,3.5496,0.0,0.0,0.0,0.0,0.0,0.0,0.0,0.0,0.0,0.0,0.0,0.0,0.0,0.0,0.0,0.0,0.0,0.0,0.0,2.1532,2.1952,2.1952,2.2185,2.23,2.23,2.23,2.23,2.23,2.23,2.23,2.23,2.23,2.23,2.23,0.0,0.0,0.0,0.0,0.0,0.0,0.0,0.0,0.0,0.0,0.0,0.0,0.0,0.0,0.0,0.0,2.23,2.23,0.0,0.0,2.23,2.23,2.2452,2.2814,2.3552,2.4644,2.6091,0.0,0.0,0.0,3.1853,3.3834,3.5611,3.6879,3.7928,3.8757,3.9248,3.9356,3.9508,4.0022,3.9895,3.945,3.8656,3.8335,3.7903,3.716,3.7063,3.6867,3.6314,3.6244,3.6039,3.5545,3.5496,3.5496,3.5496,3.5496,3.5496,3.5496,3.5496,3.5496,3.5496,3.5496,3.5496,3.5496,3.5496,3.5496,3.5496,3.5496,3.5496,3.5496,3.5496,3.5496,3.5496,3.5496,3.5496,3.5496,3.5496,3.5496,3.5496,3.5496,3.5496,3.5496,0.0,0.0,0.0,0.0,0.0,0.0,0.0,0.0,0.0,0.0,0.0,0.0,0.0,0.0,0.0,0.0,0.0,0.0,1.9937,2.074,2.119,2.1194,2.1901,2.2296,2.23,2.23,2.23,2.23,2.23,2.23,2.23,2.23,2.23,0.0,0.0,0.0,0.0,0.0,0.0,0.0,0.0,0.0,0.0,0.0,0.0,0.0,0.0,0.0,0.0,0.0,2.23,2.23,2.23,0.0,0.0,2.23,2.2814,2.3566,2.4288,2.5037,2.5956,0.0,0.0,0.0,3.1984,3.3451,3.5171,3.746,3.9079,4.0096,4.0096,4.0096,4.0096,4.0096,3.9437,3.8649,3.7899,3.7107,3.6322,3.5587,3.5496,3.5496,3.5496,3.5496,3.5496,3.5496,3.5496,3.5496,3.5496,3.5496,3.5496,3.5496,3.5496,3.5496,3.5496,3.5496,3.5496,3.5496,3.5496,3.5496,3.5496,3.5496,3.5496,3.5496,3.5496,3.5496,3.5496,3.5496,3.5496,3.5496,3.5496,3.5496,3.5496,3.5496,3.5496,3.5496,0.0,0.0,0.0,0.0,0.0,0.0,0.0,0.0,0.0,0.0,0.0,0.0,0.0,0.0,0.0,0.0,0.0,0.0,1.9212,1.9936,2.0602,2.1177,2.141,2.1772,2.2283,2.23,2.23,2.23,2.23,2.23,2.23,2.23,2.23,2.23,0.0,0.0,0.0,0.0,0.0,0.0,0.0,0.0,0.0,0.0,0.0,0.0,0.0,0.0,0.0,0.0,0.0,0.0,2.23,0.0,2.2966,2.2455,2.2814,2.3447,2.3671,2.4644,2.6091,2.8133,0.0,0.0,0.0,3.503,0.0,0.0,3.9802,4.0096,4.0096,4.0096,4.0096,4.0096,3.9901,3.9292,3.7978,3.7595,3.6958,3.5644,3.5496,3.5496,3.5496,3.5496,3.5496,3.5496,3.5496,3.5496,3.5496,3.5496,3.5496,3.5496,3.5496,3.5496,3.5496,3.5496,3.5496,3.5496,3.5496,3.5496,3.5496,3.5496,3.5496,3.5496,3.5496,3.5496,3.5496,3.5496,3.5496,3.5496,3.5496,3.5496,3.5496,3.5496,3.5496,3.5496,0.0,0.0,0.0,0.0,0.0,0.0,0.0,0.0,0.0,0.0,0.0,0.0,0.0,0.0,0.0,0.0,0.0,0.0,0.0,0.0,1.9902,2.069,2.1021,2.1542,2.2283,2.23,2.23,2.23,2.23,2.23,2.23,2.23,2.23,2.23,0.0,2.23,0.0,0.0,0.0,0.0,0.0,2.23,2.23,0.0,0.0,0.0,0.0,0.0,0.0,0.0,0.0,0.0,2.23,0.0,2.2932,2.278,2.3261,2.3962,2.4551,2.5571,2.7021,2.9305,3.0765,3.23,3.4843,0.0,0.0,3.97,4.0096,4.0096,4.0096,4.0096,4.0096,4.0096,3.9827,3.9305,3.8381,3.771,3.6972,3.6054,3.5676,3.5496,3.5496,3.5496,3.5496,3.5496,3.5496,3.5496,3.5496,3.5496,3.5496,3.5496,3.5496,3.5496,3.5496,3.5496,3.5496,3.5496,3.5496,3.5496,3.5496,3.5496,3.5496,3.5496,3.5496,3.5496,3.5496,3.5496,3.5496,3.5496,3.5496,3.5496,3.5496,3.5496,3.5496,3.5496,0.0,0.0,0.0,0.0,0.0,0.0,0.0,0.0,0.0,0.0,0.0,0.0,0.0,0.0,0.0,0.0,0.0,0.0,0.0,0.0,1.9161,1.9951,2.0839,2.1607,2.2283,2.23,2.23,2.23,2.23,2.23,2.23,2.23,2.23,2.23,0.0,2.23,0.0,0.0,0.0,0.0,2.23,2.23,2.23,2.23,0.0,0.0,0.0,0.0,0.0,0.0,0.0,0.0,2.23,2.235,2.2523,2.3122,2.3874,2.4816,2.6226,2.7144,2.8285,3.07,3.1967,3.3337,3.6169,3.7319,3.8227,3.97,4.0005,4.0022,4.0096,4.0096,4.0096,4.0096,3.9489,3.8975,3.8908,3.7693,3.676,3.6623,3.6014,3.557,3.5504,3.5496,3.5496,3.5496,3.5496,3.5496,3.5496,3.5496,3.5496,3.5496,3.5496,3.5496,3.5496,3.5496,3.5496,3.5496,3.5496,3.5496,3.5496,3.5496,3.5496,3.5496,3.5496,3.5496,3.5496,3.5496,3.5496,3.5496,3.5496,3.5496,3.5496,3.5496,3.5496,3.5496,0.0,0.0,0.0,0.0,0.0,0.0,0.0,0.0,0.0,0.0,0.0,0.0,0.0,0.0,0.0,0.0,0.0,0.0,0.0,0.0,1.8628,1.9934,2.1336,2.2134,2.23,2.23,2.23,2.23,2.23,2.23,0.0,0.0,0.0,2.23,0.0,2.23,0.0,0.0,0.0,2.23,2.23,2.23,2.23,2.23,2.23,0.0,0.0,0.0,0.0,0.0,0.0,0.0,2.23,2.2692,2.3085,2.2658,2.3464,2.4698,2.5588,2.6366,2.7761,3.1205,3.3491,3.5227,3.6502,3.6925,3.7466,3.8933,3.9237,3.9406,3.9988,4.0096,4.0096,4.0096,3.9946,3.9623,3.8982,3.8612,3.7958,3.6745,3.6461,3.6141,3.5554,3.5496,3.5496,3.5496,3.5496,3.5496,3.5496,3.5496,3.5496,3.5496,3.5496,3.5496,3.5496,3.5496,3.5496,3.5496,3.5496,3.5496,3.5496,3.5496,3.5496,3.5496,3.5496,3.5496,3.5496,3.5496,3.5496,3.5496,3.5496,3.5496,3.5496,3.5496,3.5496,3.5496,0.0,0.0,0.0,0.0,0.0,0.0,0.0,0.0,0.0,0.0,0.0,0.0,0.0,0.0,0.0,0.0,0.0,0.0,0.0,0.0,1.8456,1.9937,2.1485,2.23,2.23,2.1952,2.1955,2.23,2.1955,0.0,0.0,0.0,0.0,2.23,0.0,2.2097,0.0,0.0,2.1772,2.1772,2.1772,2.1985,2.23,2.23,2.23,2.23,2.23,0.0,0.0,0.0,0.0,0.0,0.0,0.0,2.2865,2.2835,2.3363,2.4284,2.5723,2.6674,2.8124,3.1889,3.3964,3.5278,3.6045,3.6237,3.6552,3.7714,3.851,3.9119,3.9491,3.9852,3.9965,3.9591,3.9857,3.9698,3.8548,3.8372,3.7925,3.6737,3.629,3.5926,3.5545,3.5496,3.5496,3.5496,3.5496,3.5496,3.5496,3.5496,3.5496,3.5496,3.5496,3.5496,3.5496,3.5496,3.5496,3.5496,3.5496,3.5496,3.5496,3.5496,3.5496,3.5496,3.5496,3.5496,3.5496,3.5496,3.5496,3.5496,3.5496,3.5496,3.5496,3.5496,3.5496,3.5496,0.0,0.0,0.0,0.0,0.0,0.0,0.0,0.0,0.0,0.0,0.0,0.0,0.0,0.0,0.0,0.0,0.0,0.0,0.0,1.7856,1.8594,1.9934,2.1366,2.2117,2.2117,2.1505,2.1437,2.1904,2.1295,0.0,0.0,0.0,0.0,2.23,0.0,0.0,0.0,0.0,2.1123,2.0981,2.0981,2.1363,2.1904,2.1904,2.1995,2.2117,2.2117,2.2185,2.23,2.23,0.0,0.0,0.0,0.0,2.2418,2.3038,2.3291,2.3836,2.5786,2.7245,2.8995,3.2369,3.3868,3.4663,3.5273,3.5504,3.5797,3.6462,3.7675,3.8656,3.8791,3.9307,3.9484,3.8814,3.9275,3.9252,3.7978,3.7807,3.75,3.6707,3.6062,3.5636,3.5512,3.5496,3.5496,3.5496,3.5496,3.5496,3.5496,3.5496,3.5496,3.5496,3.5496,3.5496,3.5496,3.5496,3.5496,3.5496,3.5496,3.5496,3.5496,3.5496,3.5496,3.5496,3.5496,3.5496,3.5496,3.5496,3.5496,3.5496,3.5496,3.5496,3.5496,3.5496,3.5496,3.5496,0.0,0.0,0.0,0.0,0.0,0.0,0.0,0.0,0.0,0.0,0.0,1.7521,1.6778,1.6795,0.0,0.0,0.0,0.0,1.6846,0.0,0.0,1.9951,2.0873,2.1346,2.1346,2.1244,2.0913,2.0312,0.0,0.0,0.0,0.0,0.0,2.23,0.0,0.0,0.0,0.0,0.0,2.016,2.016,2.0228,2.0312,2.0312,2.0748,2.1346,2.1346,2.1759,2.23,2.23,2.23,0.0,0.0,0.0,2.2317,2.2422,2.2899,2.3603,2.4541,2.7237,3.0221,3.1995,3.3484,3.4528,3.4629,3.5137,3.5633,3.574,3.6468,3.7291,3.7933,3.8081,3.8074,3.7969,3.8037,3.8035,3.7836,3.7807,3.75,3.6707,3.6507,3.6204,3.5554,3.5496,3.5496,3.5496,3.5496,3.5496,3.5496,3.5496,3.5496,3.5496,3.5496,3.5496,3.5496,3.5496,3.5496,3.5496,3.5496,3.5496,3.5496,3.5496,3.5496,3.5496,3.5496,3.5496,3.5496,3.5496,3.5496,3.5496,3.5496,3.5496,3.5496,3.5496,3.5496,3.5496,0.0,0.0,0.0,0.0,0.0,0.0,0.0,0.0,0.0,0.0,0.0,1.6903,1.6161,1.6454,0.0,0.0,0.0,0.0,1.6679,1.8073,0.0,0.0,2.0122,2.0531,2.0531,2.0115,1.9942,2.0005,0.0,0.0,0.0,2.1525,2.1901,0.0,0.0,0.0,0.0,0.0,0.0,1.9951,1.9544,1.9905,2.0616,2.0177,2.0494,2.1194,2.1194,2.141,2.1755,2.2168,2.23,2.23,2.23,0.0,0.0,0.0,2.2536,2.3224,2.5194,2.7249,2.9371,3.1713,3.2796,3.3484,3.4313,3.4742,3.4998,3.5032,3.5324,3.5786,3.6525,3.6667,3.6547,3.6132,3.6416,3.6518,3.6018,3.6312,3.6423,3.6024,3.5983,3.5855,3.5537,3.5496,3.5496,3.5496,3.5496,3.5496,3.5496,3.5496,3.5496,3.5496,3.5496,3.5496,3.5496,3.5496,3.5496,3.5496,3.5496,3.5496,3.5496,3.5496,3.5496,3.5496,3.5496,3.5496,3.5496,3.5496,3.5496,3.5496,3.5496,3.5496,3.5496,3.5496,3.5496,3.5496,0.0,0.0,0.0,0.0,0.0,0.0,0.0,0.0,0.0,0.0,0.0,0.0,1.5941,0.0,0.0,0.0,0.0,0.0,1.6369,0.0,0.0,0.0,0.0,1.9724,1.9724,1.9178,1.9077,0.0,0.0,0.0,2.0896,2.1106,2.159,0.0,2.23,0.0,0.0,0.0,0.0,0.0,0.0,1.9596,2.0598,2.0376,2.0686,2.1224,2.1407,2.1475,0.0,0.0,2.23,2.23,2.23,2.23,0.0,0.0,0.0,2.2858,2.5447,2.6687,2.7913,3.0748,3.1735,3.2361,3.3654,3.4093,3.424,3.4316,3.4186,3.4235,3.4803,3.5072,3.5046,3.4489,3.4863,3.4994,3.4345,3.4721,3.511,3.5232,3.5258,3.531,3.5481,3.5496,3.5496,3.5496,3.5496,3.5496,3.5496,3.5496,3.5496,3.5496,3.5496,3.5496,3.5496,3.5496,3.5496,3.5496,3.5496,3.5496,3.5496,3.5496,3.5496,3.5496,3.5496,3.5496,3.5496,3.5496,3.5496,3.5496,3.5496,3.5496,3.5496,3.5496,3.5496,3.5496,0.0,0.0,0.0,0.0,0.0,0.0,0.0,0.0,0.0,0.0,0.0,0.0,0.0,0.0,0.0,0.0,0.0,0.0,0.0,0.0,0.0,0.0,0.0,0.0,1.8964,1.8916,0.0,0.0,0.0,0.0,2.0075,2.0845,2.159,2.23,2.23,2.1887,2.1143,0.0,0.0,0.0,0.0,0.0,1.9167,2.0598,2.116,2.1292,2.1985,0.0,0.0,0.0,0.0,0.0,2.23,2.23,2.23,0.0,0.0,0.0,2.4182,2.5156,2.6264,2.8599,3.0224,3.1454,3.2242,3.296,3.3484,3.3543,3.3048,3.2634,3.2745,3.3229,3.3601,3.3574,3.3595,3.3606,3.3567,3.359,3.3838,3.4481,3.4555,3.4802,3.5444,3.5496,3.5496,3.5496,3.5496,3.5496,3.5496,3.5496,3.5496,3.5496,3.5496,3.5496,3.5496,3.5496,3.5496,3.5496,3.5496,3.5496,3.5496,3.5496,3.5496,3.5496,3.5496,3.5496,3.5496,3.5496,3.5496,3.5496,3.5496,3.5496,3.5496,3.5496,3.5496,3.5496,0.0,0.0,0.0,0.0,0.0,0.0,0.0,0.0,0.0,0.0,0.0,0.0,0.0,1.5477,1.5107,1.3893,0.0,0.0,0.0,0.0,0.0,0.0,0.0,0.0,0.0,0.0,0.0,0.0,0.0,1.8569,1.931,2.0068,2.0856,2.1607,2.2083,2.2148,2.1854,2.1096,0.0,0.0,0.0,0.0,0.0,2.0416,2.0754,2.1295,2.2036,0.0,0.0,0.0,0.0,0.0,2.23,2.23,2.23,2.23,2.23,2.2624,2.4101,2.4694,2.5427,2.7668,2.872,2.952,3.0733,3.1286,3.1569,3.1619,3.1445,3.1168,3.0745,3.1523,3.2221,3.2221,3.2224,3.2362,3.2804,3.2863,3.311,3.3784,3.3851,3.4121,3.4794,3.4862,3.4862,3.4862,3.4862,3.4674,3.4233,3.4218,3.4412,3.4839,3.4862,3.5063,3.5496,3.5496,3.5496,3.5496,3.5496,3.5496,3.5496,3.5496,3.5496,3.5496,3.5496,3.5496,3.5496,3.5496,3.5496,3.5496,3.5496,3.5496,3.5496,3.5496,3.5496,3.5496,0.0,0.0,0.0,0.0,0.0,0.0,0.0,0.0,0.0,0.0,0.0,0.0,0.0,0.0,1.5487,1.4253,1.4597,1.4878,1.4878,0.0,0.0,0.0,0.0,0.0,0.0,0.0,0.0,0.0,0.0,0.0,0.0,1.9656,2.0288,2.0825,2.1306,2.1823,0.0,0.0,0.0,2.1156,0.0,0.0,2.1224,2.1427,2.1529,2.1725,0.0,0.0,0.0,0.0,0.0,0.0,2.2388,2.23,2.23,2.23,2.23,2.2503,2.3502,2.3945,2.4609,2.6629,2.7257,2.7853,2.9602,2.989,2.9873,3.0164,3.0229,3.0106,2.9674,3.0298,3.092,3.1129,3.1346,3.166,3.2101,3.2161,3.2407,3.3073,3.3155,3.3432,3.4099,3.4158,3.4158,3.4158,3.4158,3.3979,3.3514,3.3507,3.3702,3.4143,3.4383,3.4712,3.5168,3.5385,3.5496,3.5496,3.5496,3.5496,3.5496,3.5496,3.5496,3.5496,3.5496,3.5496,3.5496,3.5496,3.5496,3.5496,3.5496,3.5496,3.5496,3.5496,3.5496,3.5496,0.0,0.0,0.0,0.0,0.0,0.0,0.0,0.0,1.3985,1.5412,0.0,0.0,0.0,0.0,0.0,1.5665,1.5598,1.5598,1.5598,1.6285,0.0,0.0,0.0,0.0,0.0,0.0,0.0,0.0,0.0,0.0,0.0,0.0,1.9971,1.9971,1.9988,2.0836,2.2185,0.0,2.119,2.1227,0.0,2.1227,2.1502,0.0,2.3586,0.0,2.4823,2.4674,0.0,2.3468,0.0,0.0,0.0,2.23,2.23,2.23,2.2293,2.2282,0.0,0.0,0.0,2.5309,2.579,2.6489,2.8747,2.8756,2.8495,2.9263,2.941,2.9438,2.9534,2.9555,2.9758,3.0357,3.1024,3.1481,3.1503,3.1503,3.1735,3.2392,3.2467,3.2721,3.3417,3.3469,3.3469,3.3469,3.3469,3.3455,3.3447,3.3455,3.3469,3.3469,3.4113,3.4466,3.4466,3.5123,3.5451,3.5474,3.5474,3.5481,3.5496,3.5496,3.5496,3.5496,3.5496,3.5496,3.5496,3.5496,3.5496,3.5496,3.5496,3.5496,3.5496,3.5496,3.5496,3.5496,0.0,0.0,0.0,0.0,0.0,1.6406,1.6406,1.5605,1.5146,0.0,0.0,0.0,1.6221,1.6023,1.582,1.5615,1.5598,1.5598,1.5598,1.6285,1.6696,1.6696,1.7405,1.78,1.78,0.0,0.0,0.0,1.8005,1.8107,1.8124,1.8854,1.9195,0.0,1.9754,2.0244,2.0616,2.042,0.0,2.1952,2.1407,2.1833,0.0,0.0,0.0,0.0,0.0,2.4983,2.4284,0.0,2.4272,2.3278,0.0,0.0,0.0,2.23,2.205,2.1794,2.1794,0.0,0.0,0.0,0.0,0.0,2.5404,2.5709,2.5978,2.7158,2.7394,2.755,2.8066,2.8545,2.8921,2.9101,3.0051,3.0957,3.1429,3.1503,3.1563,3.175,3.178,3.2041,3.2706,3.2774,3.2774,3.2774,3.2774,3.2557,3.2071,3.2512,3.2774,3.2774,3.3432,3.3784,3.3784,3.3963,3.43,3.4772,3.4772,3.5034,3.5496,3.5496,3.5496,3.5496,3.5496,3.5496,3.5496,3.5496,3.5496,3.5496,3.5496,3.5496,3.5496,3.5496,3.5496,3.5496,0.0,0.0,0.0,0.0,0.0,1.6696,1.6696,1.6076,1.5719,0.0,0.0,0.0,1.6523,1.6796,1.685,1.654,1.6523,1.6523,1.6523,1.6917,1.7157,1.7157,1.7571,1.78,1.78,1.78,1.78,1.78,1.78,1.78,1.7817,1.8248,1.8434,1.8454,1.8896,1.925,1.9524,1.9214,0.0,0.0,2.1708,0.0,0.0,2.3739,2.4135,0.0,0.0,0.0,2.5024,2.5452,2.4624,0.0,0.0,2.26,2.2631,2.1954,2.1892,0.0,0.0,0.0,0.0,2.1987,0.0,0.0,2.4085,2.4333,2.4565,2.5914,2.6405,2.6719,2.7114,2.7722,2.8269,2.8547,2.922,3.0036,3.095,3.1084,3.1189,3.1466,3.1503,3.1645,3.2034,3.2086,3.2086,3.2086,3.2086,3.1914,3.1518,3.1869,3.2086,3.2086,3.2721,3.3073,3.3073,3.3365,3.3702,3.4084,3.4084,3.4285,3.4666,3.4666,3.4666,3.4666,3.4666,3.4816,3.5078,3.5078,3.5258,3.5496,3.5496,3.5496,3.5496,3.5496,3.5496,3.5496,0.0,0.0,1.78,1.78,1.7258,1.6826,1.6826,1.6263,1.6074,0.0,1.6897,1.723,1.7955,1.8552,1.864,1.7972,1.785,1.78,1.78,1.78,1.78,1.78,1.78,1.78,1.78,1.78,1.78,1.78,1.78,1.78,1.78,1.78,0.0,1.78,1.78,1.816,1.8744,1.8256,1.9212,2.1123,2.1884,2.2716,0.0,0.0,2.4677,2.4914,2.623,2.6285,2.5702,2.5634,2.4725,0.0,2.2905,2.3038,2.3134,2.1576,2.1847,0.0,2.1419,2.1108,0.0,2.1957,2.173,0.0,2.3736,2.3763,2.3774,2.5094,2.5854,2.6309,2.6458,2.698,2.7578,2.8173,2.8323,2.8846,3.0208,3.0462,3.0717,3.1316,3.1444,3.1503,3.1503,3.1503,3.1503,3.1503,3.1503,3.1503,3.1503,3.1503,3.1503,3.1503,3.2071,3.2392,3.2392,3.2976,3.3327,3.338,3.338,3.3432,3.3507,3.3507,3.3507,3.3507,3.3507,3.3844,3.4391,3.4391,3.4832,3.5496,3.5496,3.5496,3.5496,3.5496,3.5496,3.5496,0.0,1.7289,1.78,1.78,1.7687,1.7588,1.7588,1.7464,1.7416,1.7571,1.8099,1.8755,1.9481,1.9175,1.8846,1.8693,1.8141,1.78,1.78,1.78,1.78,1.78,1.78,1.78,1.78,1.78,1.78,1.78,1.78,1.78,1.78,0.0,0.0,0.0,1.78,1.7887,1.8073,1.9132,1.9822,2.0302,2.1099,2.2578,2.4376,2.5101,2.5748,2.631,2.6598,2.6611,2.6391,2.5803,2.5415,2.4878,0.0,2.313,2.3395,2.2176,2.208,2.2331,2.2106,2.1819,2.1466,2.1094,2.1316,0.0,2.1495,2.1779,2.2448,2.3724,2.4088,2.4522,2.5594,2.5893,2.6028,2.6156,2.6632,2.7641,2.9518,3.0193,3.0552,3.068,3.1174,3.1503,3.1503,3.1503,3.1503,3.1503,3.1503,3.1503,3.1503,3.1503,3.1503,3.1503,3.163,3.1705,3.1705,3.1824,3.2161,3.2699,3.2699,3.2976,3.3507,3.3507,3.3507,3.3507,3.3507,3.3567,3.3702,3.3702,3.4412,3.5496,3.5496,3.5496,3.5496,3.5496,3.5496,3.5496,0.0,1.7555,1.78,1.78,1.78,1.78,1.78,1.78,1.7921,1.8299,1.9339,2.0047,2.0005,1.9673,1.9296,1.893,1.8231,1.78,1.78,1.78,1.78,1.78,1.78,1.78,1.78,1.78,1.78,1.78,1.78,1.78,1.78,1.78,1.8005,1.8332,1.7955,1.8205,1.8912,1.929,1.9905,2.0703,2.1844,2.3187,2.4579,2.5321,2.6065,2.67,2.67,2.67,2.6552,2.5614,2.5263,0.0,2.3104,2.3171,2.3559,0.0,2.2064,2.2645,2.1749,2.1601,2.162,2.1286,2.1455,0.0,0.0,2.1959,2.2468,2.3406,2.3595,2.3903,2.4924,2.5104,2.5208,2.5543,2.6153,2.6839,2.7506,2.8727,2.9684,3.0005,3.0605,3.0994,3.0994,3.1301,3.1503,3.1503,3.1503,3.1503,3.1503,3.1503,3.1503,3.1503,3.1503,3.1503,3.1503,3.1503,3.1675,3.1996,3.1996,3.2176,3.2497,3.2497,3.2497,3.2497,3.2497,3.2699,3.2998,3.2998,3.3596,3.4502,3.4502,3.4711,3.4959,3.4622,3.4502,3.4502,0.0,1.78,1.78,1.78,1.78,1.78,1.78,1.78,1.8124,1.8995,2.0327,2.1018,2.0498,0.0,0.0,0.0,1.8654,1.8155,1.8025,1.8005,1.8005,1.8005,1.7887,1.787,1.8008,1.787,1.78,1.78,1.78,1.78,1.78,1.78,1.8197,1.8863,1.8282,0.0,0.0,1.9533,2.0053,2.1346,2.2964,2.3878,2.4372,2.527,2.5977,2.6513,2.6649,2.6645,2.6421,2.5502,2.5045,2.4615,2.3082,2.3312,0.0,0.0,0.0,2.3125,2.1658,2.1645,2.2044,2.1924,2.1984,2.2148,0.0,0.0,0.0,2.3331,2.3435,2.3625,2.4296,2.4306,2.4446,2.5109,2.5674,2.5884,2.5468,2.6925,2.8323,2.9121,2.9871,3.0328,3.0328,3.0702,3.1032,3.1286,3.1204,3.1241,3.1488,3.1503,3.1503,3.1503,3.1503,3.1503,3.1503,3.1503,3.1503,3.1503,3.1503,3.1503,3.1503,3.1503,3.1503,3.1503,3.1503,3.1809,3.231,3.231,3.2699,3.332,3.3447,3.3829,3.4241,3.3702,3.3507,3.3507,1.7653,1.78,1.78,1.78,1.78,1.78,1.78,1.78,1.8307,1.9687,2.0653,2.1407,0.0,0.0,0.0,0.0,0.0,0.0,1.8829,1.8781,1.8781,1.8781,1.8144,1.811,1.8764,1.8127,1.78,1.78,1.78,1.78,1.78,1.78,1.8197,1.8899,1.8812,1.9223,2.0038,2.0676,2.1041,2.1397,2.353,2.403,2.3684,2.5076,2.5651,2.5807,2.6475,2.6427,2.6059,2.5932,2.5554,2.4931,2.3674,2.3778,2.4121,2.2853,0.0,0.0,0.0,0.0,2.3261,2.2713,2.2992,2.3116,2.2044,0.0,2.2718,2.2793,0.0,2.2997,2.3595,0.0,0.0,2.3729,2.3899,2.4113,2.4634,2.5418,2.6408,2.7675,2.8941,2.9698,2.9698,2.9227,2.9393,3.053,3.0125,3.0313,3.1444,3.1503,3.1503,3.1503,3.1503,3.1503,3.1503,3.1503,3.1503,3.1503,3.1503,3.1503,3.1503,3.1503,3.1503,3.1503,3.1503,3.154,3.1615,3.1615,3.2011,3.2662,3.326,3.3552,3.3597,3.3537,3.3507,3.3507,1.7109,1.7507,0.0,1.78,1.78,1.78,1.78,1.8524,1.9473,2.0548,2.1363,2.1955,0.0,0.0,0.0,0.0,0.0,1.987,0.0,0.0,0.0,1.9541,1.8823,1.8589,1.8896,1.8177,1.78,1.78,1.78,1.78,1.78,1.78,1.8425,1.9527,1.9096,1.9807,2.1329,2.1238,2.1458,2.1959,2.3319,2.3675,2.3616,2.5507,2.6234,2.6285,2.6594,2.6577,2.6304,2.5632,2.5323,2.4987,2.378,2.3646,2.3764,2.2935,0.0,0.0,0.0,2.3625,2.3943,2.2957,2.345,2.3853,2.2573,2.2767,2.3216,2.3216,0.0,0.0,0.0,0.0,0.0,0.0,2.3933,2.4018,2.3565,2.4711,2.5803,2.6369,2.7288,2.815,2.8943,2.8778,2.8981,2.9915,2.9377,2.9579,3.0852,3.0927,3.1099,3.1488,3.1503,3.1503,3.1503,3.1503,3.1503,3.1503,3.1503,3.1503,3.1503,3.1503,3.1503,3.1503,3.1503,3.1503,3.1503,3.1503,3.1675,3.1951,3.2228,3.2579,3.2878,3.2482,3.2347,3.2347,0.0,0.0,0.0,0.0,1.78,1.787,1.8073,1.9378,2.0545,2.1123,2.1837,0.0,2.23,2.182,0.0,0.0,2.0967,2.0532,0.0,0.0,2.0322,2.0322,1.9598,1.9195,1.9195,1.8482,1.8005,1.78,1.78,1.78,1.78,1.78,1.8473,1.9673,1.9341,2.0243,2.1985,2.1864,2.2114,2.2675,2.363,2.4124,2.4462,2.5862,2.6526,2.67,2.67,2.6522,2.6162,2.5338,2.4915,2.4635,2.3958,2.3668,2.355,2.3306,0.0,0.0,2.3072,2.3625,2.4057,2.2967,2.3391,2.3793,2.2683,2.3031,2.355,2.3396,2.3271,0.0,0.0,0.0,2.2832,2.3271,0.0,2.3754,2.2832,2.392,2.4866,2.5025,2.5815,2.6707,2.7679,2.7613,2.7934,2.8971,2.8434,2.8703,3.0163,3.0417,3.0717,3.1212,3.1406,3.1503,3.1503,3.1503,3.1503,3.1503,3.1503,3.1503,3.1503,3.1503,3.1503,3.1503,3.1503,3.1503,3.1474,3.1256,3.1175,3.1153,3.0903,3.1108,3.1542,3.1507,3.1503,3.1503,1.6696,1.7289,0.0,0.0,1.78,1.8042,1.8764,2.0172,2.1173,2.1194,2.1837,0.0,0.0,0.0,0.0,0.0,0.0,2.1914,2.1211,0.0,2.116,2.116,2.0392,1.9951,0.0,1.9243,1.8521,1.78,1.78,1.78,1.78,1.78,1.8214,1.8967,1.9659,2.044,2.1329,2.2723,2.3346,2.3494,2.4945,2.5964,2.6526,2.5875,2.6082,2.67,2.67,2.6074,2.5234,2.5203,2.4516,2.3769,2.4374,2.4118,2.3724,2.435,2.4092,2.3595,2.3585,2.3595,2.3475,2.2868,2.2733,2.2583,2.1884,2.2702,2.3435,2.2853,2.3694,2.4356,2.3714,2.3117,2.2703,2.2723,2.2753,0.0,0.0,2.2748,2.3017,2.3595,2.4837,2.5654,2.5693,2.5119,2.5543,2.7525,2.7033,2.7527,2.9518,3.0178,3.05,3.053,3.1152,3.1503,3.1503,3.1503,3.1503,3.1503,3.1503,3.1503,3.1503,3.1503,3.1503,3.1503,3.1503,3.1503,3.1438,3.0659,3.0337,3.0253,2.9411,2.9095,2.9306,3.0911,3.1503,3.1503,0.0,0.0,0.0,0.0,0.0,1.8205,1.9439,2.0521,2.1376,2.1854,2.2155,2.23,0.0,2.23,2.23,0.0,0.0,2.2185,2.1938,2.1921,0.0,2.1921,2.1194,2.0788,0.0,2.0037,1.9504,1.9264,1.8769,1.8783,1.9227,0.0,0.0,0.0,2.0132,2.0721,2.1985,2.2974,2.3396,2.3532,2.5013,2.6044,2.6678,2.642,2.6475,2.67,2.67,2.628,2.5726,2.5726,2.5028,2.4178,2.4397,2.4066,2.364,2.3874,2.3784,2.3699,2.4147,2.4592,2.4651,2.3576,2.3625,2.3554,2.2044,2.2687,2.3435,2.2823,2.3709,2.4395,2.3724,2.3435,2.3306,2.3306,2.3306,2.3007,0.0,2.1655,2.1789,2.2877,2.3755,2.4457,2.4894,2.4733,2.5253,2.6824,2.6324,2.6811,2.8838,2.9131,2.9452,2.9885,3.0118,3.0425,3.0837,3.0837,3.1054,3.1503,3.1503,3.1503,3.1474,3.0955,3.0703,3.0666,3.0095,2.985,2.9873,3.0178,2.9958,2.9465,2.9758,2.9504,2.9073,2.9636,2.985,2.985,1.785,0.0,0.0,0.0,0.0,1.9,2.0237,2.1092,2.1752,2.2236,2.2523,2.2696,2.2696,0.0,2.3085,0.0,2.3085,2.2966,2.2713,2.2696,0.0,2.2313,2.1837,0.0,0.0,2.0683,2.0288,2.0005,1.9524,1.9527,1.9971,1.8766,0.0,0.0,2.0231,2.0707,2.1985,2.3265,2.3793,2.3925,2.541,2.6285,2.67,2.67,2.6602,2.6445,2.6445,2.6007,2.5425,2.5425,2.4835,2.4162,2.4396,2.4071,2.3655,2.3888,2.3963,2.4048,2.4485,2.5089,2.5339,2.4227,2.4281,2.4156,2.2448,2.3041,2.3784,2.3141,2.3853,2.4545,2.4352,2.3924,2.3595,2.3595,2.3595,2.3161,0.0,2.1116,2.1027,2.1884,2.2752,2.3535,2.4177,2.4042,2.4577,2.6123,2.5618,2.6126,2.8141,2.8479,2.8801,2.9234,2.948,2.9788,3.0185,3.0178,3.05,3.1144,3.1144,3.1271,3.1474,3.0962,3.0569,3.0269,2.9705,2.9294,2.9026,2.927,2.9042,2.8572,2.8844,2.8612,2.8182,2.878,2.9002,2.9002,1.7991,1.7884,0.0,1.7955,1.9132,2.0318,2.1072,2.1837,2.2313,2.235,2.297,2.3413,2.3447,2.4085,2.4495,2.4495,2.4495,2.4203,2.3502,2.3447,0.0,0.0,2.235,2.2006,2.1261,0.0,0.0,2.0106,2.0075,2.0075,2.0092,1.9313,0.0,0.0,2.0075,2.0494,2.1397,2.358,2.4545,2.4728,2.6141,2.67,2.67,2.67,2.6406,2.6004,2.6004,2.5312,2.44,2.44,2.4043,2.3714,2.4356,2.4102,2.3724,2.4395,2.4599,2.4614,2.4679,2.5163,2.5498,2.4859,2.4674,2.4321,2.3082,2.3759,2.4455,2.3784,2.4212,2.4874,2.5453,2.4517,2.3645,2.3615,2.3565,2.3136,2.1924,2.1161,2.0768,2.0793,2.1924,2.2907,2.345,2.3012,2.3476,2.5354,2.4933,2.5468,2.745,2.8156,2.8498,2.8501,2.9105,2.9457,2.9438,2.9438,2.9745,3.0342,3.0342,3.0686,3.1342,3.1284,3.0866,3.0178,3.0125,2.9636,2.882,2.8027,2.7678,2.7562,2.6841,2.6538,2.6688,2.8282,2.8883,2.8883,1.8657,1.9051,1.9622,2.0219,2.0642,2.0967,2.1163,2.1837,2.2506,2.3054,2.3274,2.3603,2.4152,2.4393,2.4495,2.4495,2.4495,0.0,0.0,0.0,0.0,2.3143,2.3122,2.2767,2.2036,2.2019,2.1914,2.1701,2.116,2.1177,2.1688,0.0,0.0,0.0,0.0,2.1312,2.2124,2.3793,2.5134,2.6175,2.6547,2.67,2.67,2.67,2.6406,2.6004,2.6004,2.5312,2.44,2.44,2.4043,2.3625,2.3799,2.3744,2.3724,2.4395,2.4599,2.4814,2.5824,2.6213,2.6309,2.6123,2.5713,2.5124,2.4296,2.4745,2.5148,2.4476,2.5274,2.5833,2.5008,2.4575,2.4177,2.3684,2.3211,2.2823,2.2493,2.1869,2.1625,2.2129,2.2493,2.2568,2.2218,2.2503,2.3087,2.4044,2.4416,2.5253,2.6779,2.7018,2.7094,2.7047,2.7209,2.727,2.7216,2.7223,2.7513,2.8116,2.8116,2.8441,2.9026,2.8386,2.8196,2.8322,2.7744,2.7351,2.7171,2.7546,2.7351,2.6858,2.7246,2.7032,2.6547,2.6981,2.7137,2.7137,1.9449,2.0004,2.0673,2.1123,2.1728,2.2152,2.2152,2.2243,2.2557,2.3291,2.3675,2.4047,2.4457,2.5083,2.5451,2.5451,2.5451,0.0,2.5008,0.0,0.0,2.3911,2.3569,2.321,2.2797,2.2452,0.0,2.23,0.0,0.0,2.2266,0.0,0.0,0.0,2.1525,2.1607,2.2405,2.3874,2.5164,2.6235,2.6353,2.6393,0.0,2.6127,2.5732,2.5302,2.5302,2.4915,2.4364,2.4137,2.3847,2.3595,2.3595,2.3595,2.3664,2.4042,2.458,2.5193,2.5953,2.6584,2.7039,2.7039,2.6749,2.6213,2.5253,2.5334,2.5408,2.4739,2.496,2.5246,2.5074,2.4565,2.4042,2.3664,2.3082,2.2708,2.2708,2.2124,2.1724,2.1824,2.2079,2.1884,2.0911,2.1694,2.2533,2.3156,2.3555,2.4333,2.5612,2.6271,2.6568,2.6495,2.6504,2.6481,2.644,2.612,2.6277,2.691,2.691,2.7222,2.7796,2.7303,2.7174,2.7334,2.6871,2.6612,2.6538,2.699,2.6905,2.6538,2.7007,2.6896,2.6508,2.6508,2.6508,2.6508,2.0281,2.0876,2.1464,2.136,2.2486,2.343,2.3536,2.3004,2.2848,2.3596,2.425,2.4677,2.4782,2.5921,2.67,2.67,2.67,2.6425,2.5791,2.5736,2.5406,2.4677,2.4026,2.3599,2.3396,2.2777,2.2405,0.0,0.0,2.23,2.2283,2.164,0.0,0.0,2.1624,2.1775,2.2568,2.3855,2.4834,2.5564,2.5798,2.5897,2.5847,2.5373,2.4915,2.4501,2.4425,2.4354,2.4215,2.3757,2.3595,2.3615,2.3699,2.3724,2.3774,2.3939,2.4822,2.5743,2.5833,2.6704,2.7606,2.7606,2.7606,2.7264,2.6019,2.5728,2.5543,2.4874,2.4272,2.4193,2.5274,2.4442,2.3595,2.3595,2.3156,2.2828,2.2828,0.0,0.0,0.0,2.1545,0.0,1.9973,2.0966,2.1914,2.2398,2.2598,2.3199,2.4302,2.5611,2.6283,2.6208,2.6209,2.6209,2.6209,2.5474,2.5442,2.6128,2.6027,2.6279,2.6871,2.6871,2.6775,2.6637,2.6695,2.6602,2.6386,2.647,2.6508,2.6508,2.6508,2.6508,2.6508,2.6508,2.6508,2.6508,2.1018,0.0,0.0,0.0,2.2814,2.3603,2.4203,2.4203,2.4385,2.5114,2.5334,2.5642,2.626,2.6547,2.67,2.67,2.67,2.6649,2.6526,2.6513,2.6188,2.5435,2.5279,2.4657,2.343,2.3278,2.2919,0.0,2.23,2.23,2.23,2.2168,2.2185,2.2296,2.2168,2.261,2.3472,2.3728,2.4382,2.5271,2.532,2.534,2.5331,2.524,2.5144,2.4992,2.4567,2.4121,2.3734,2.3627,2.3595,2.3699,2.4246,2.4425,2.4634,2.5755,2.6234,2.6548,2.7099,2.742,2.7606,2.7606,2.7606,2.739,2.6599,2.6429,2.6228,2.5558,2.5334,2.5154,2.4829,2.4137,2.3595,2.3595,2.351,2.3435,2.3435,2.334,0.0,0.0,0.0,2.2542,2.0698,2.1246,2.1515,2.1086,2.2064,2.2981,2.3634,2.4438,2.4819,2.4683,2.4695,2.4695,2.4695,2.3893,2.3887,2.4669,2.4005,2.3993,2.4579,2.4579,2.4784,2.5189,2.5636,2.5798,2.5804,2.6298,2.6508,2.6508,2.6508,2.6508,2.6508,2.6508,2.6508,2.6508,2.2917,0.0,0.0,0.0,2.3722,2.4216,2.4953,2.5401,2.5634,2.5601,2.5601,2.574,2.6095,2.6471,2.67,2.67,2.67,2.67,2.67,2.67,2.6543,2.6184,2.5803,2.5266,2.456,2.3786,2.3224,2.2865,2.2489,2.23,2.23,2.23,2.23,2.2317,2.2692,2.2971,2.3174,2.395,2.4411,2.4644,2.4732,2.4797,2.4746,2.4476,2.4369,2.4333,2.408,2.4037,2.4117,2.4117,2.4117,2.4236,2.4909,2.5119,2.5253,2.5899,2.6324,2.6674,2.6995,2.7345,2.7606,2.7606,2.7345,2.6905,2.6228,2.5803,2.5364,2.4696,2.4562,2.4457,2.4137,2.3814,2.3595,2.3595,2.3595,2.3595,2.3595,2.3595,2.3256,0.0,0.0,0.0,2.0355,2.0284,2.0304,2.0182,2.1421,2.2252,2.2449,2.3755,2.4447,2.4303,2.4299,2.4299,2.4299,2.3506,2.329,2.3671,2.3283,2.3246,2.3537,2.3537,2.3838,2.4398,2.4657,2.5092,2.5644,2.6248,2.6508,2.6508,2.6508,2.6508,2.6508,2.6508,2.6508,2.6508,2.4528,2.4162,2.3992,2.4427,2.4626,2.4927,2.5503,2.6234,2.6488,2.5909,2.5837,2.5837,2.5837,2.6353,2.67,2.67,2.67,2.67,2.67,2.67,2.67,2.67,2.6146,2.5753,2.5601,2.4455,2.3714,2.3396,2.2814,2.2455,2.23,2.23,2.2314,2.2393,2.2962,2.3054,2.2815,2.3996,2.4285,2.4007,2.4178,2.4225,2.4173,2.3757,2.3684,2.3814,2.3814,2.4236,2.4823,2.4984,2.4933,2.4933,2.5603,2.5803,2.5833,2.5983,2.6399,2.6809,2.6809,2.7204,2.7576,2.742,2.6995,2.6384,2.5573,2.4984,2.441,2.3744,2.3595,2.3595,2.3595,2.3595,2.3595,2.3595,2.3492,2.3416,2.3416,2.3416,2.2937,0.0,0.0,0.0,1.9705,1.9477,1.9473,1.9534,2.0636,2.1313,2.1312,2.2955,2.3874,2.3881,2.387,2.4009,2.4299,2.3506,2.3198,2.335,2.3183,2.31,2.31,2.31,2.3366,2.3821,2.3933,2.4615,2.5644,2.6248,2.6508,2.6508,2.6508,2.6508,2.6508,2.6508,2.6508,2.6508,2.4626,2.4987,2.5199,2.4609,2.5054,2.5516,2.5584,2.6234,2.6678,2.6611,2.6598,2.6598,2.6598,2.6661,2.67,2.67,2.67,2.67,2.67,2.67,2.67,2.67,2.6632,2.6285,2.5613,2.5465,2.4742,2.3396,2.3329,2.2949,2.23,2.23,2.2404,2.2573,2.2638,2.2877,2.3236,2.3375,2.3518,2.365,2.3667,2.3676,2.3676,2.3622,2.3973,2.4509,2.4509,2.4939,2.5603,2.6213,2.6019,2.5618,2.6288,2.6503,2.6629,2.7234,2.7465,2.751,2.751,2.754,2.745,2.6854,2.6644,2.6264,2.4993,2.4644,2.441,2.3744,2.3595,2.3595,2.3595,2.3595,2.3595,2.3595,2.3131,2.2773,2.2773,2.2773,2.2311,2.1033,0.0,0.0,1.9216,1.9927,2.0109,1.9055,1.9646,2.0255,2.0656,2.1445,2.2067,2.247,2.2486,2.307,2.4299,2.3506,2.3477,2.4184,2.3454,2.31,2.31,2.31,2.3133,2.32,2.375,2.4615,2.5644,2.6248,2.6508,2.6508,2.6508,2.6508,2.6508,2.6508,2.6508,2.6508,2.4987,2.4806,2.4753,2.4885,2.4806,2.4855,2.5282,2.5607,2.5796,2.5796,2.6328,2.67,2.67,2.67,2.67,2.67,2.67,2.67,2.67,2.67,2.67,2.67,2.67,2.656,2.6272,2.5518,2.483,2.4244,2.3347,2.2845,2.2716,2.2552,2.2615,2.2865,2.3298,2.3424,2.3325,2.3772,2.3814,2.3595,2.3595,2.3844,2.4206,2.4206,2.4625,2.5193,2.5193,2.5624,2.6249,2.6503,2.6429,2.6324,2.6995,2.7204,2.7255,2.7525,2.7606,2.7606,2.7606,2.7606,2.7435,2.677,2.6309,2.5743,2.4814,2.4296,2.3913,2.3655,2.3595,2.3595,2.3595,2.3595,2.3595,2.3595,2.3405,2.3246,2.3246,2.3246,2.277,2.1486,0.0,2.0544,1.905,1.8752,1.8888,1.9468,2.0422,2.0875,2.0611,2.1618,2.2075,2.183,2.2126,2.2555,2.309,2.3096,2.326,2.3588,2.3245,2.31,2.31,2.31,2.31,2.3125,2.3745,2.4431,2.5155,2.5732,2.6176,2.6508,2.6508,2.6508,2.6508,2.6508,2.6508,2.6508,2.5202,2.4773,2.4583,2.5117,2.4768,2.4604,2.5117,2.5202,2.5261,2.5466,2.611,2.6474,2.6275,2.6263,2.6263,2.6263,2.6441,2.647,2.6263,2.6441,2.6453,2.6267,2.6263,2.6263,2.6263,2.5385,2.4808,2.4587,2.3558,2.3022,2.3006,2.2812,2.2847,2.3109,2.3624,2.3687,2.3422,2.3943,2.4054,2.3888,2.3888,2.4302,2.4883,2.4883,2.5313,2.5893,2.5893,2.6318,2.6884,2.6884,2.6884,2.698,2.745,2.7606,2.7606,2.7606,2.7606,2.7606,2.7606,2.7456,2.7144,2.6473,2.5803,2.5133,2.4461,2.3943,2.3595,2.3595,2.3595,2.3595,2.3595,2.3595,2.3541,2.3366,2.3167,2.2974,2.2801,2.2778,2.2368,2.1268,2.0634,1.986,1.8795,1.8274,1.8394,1.9331,2.0661,2.1205,2.0686,2.1366,2.1621,2.1278,2.1789,2.2139,2.2295,2.2839,2.31,2.31,2.31,2.31,2.31,2.31,2.31,2.3125,2.3745,2.4297,2.4833,2.5385,2.5954,2.6508,2.6508,2.6508,2.6508,2.6508,2.6508,2.6508,2.5202,2.5186,2.519,2.5202,2.5186,2.519,2.5202,2.5202,2.5438,2.6093,2.6194,2.5948,2.5296,2.5226,2.5226,2.5226,2.5819,2.5921,2.5269,2.584,2.591,2.5253,2.5226,2.5226,2.5226,2.5195,2.4835,2.4108,2.4092,2.3708,2.2997,2.3001,2.3099,2.3299,2.3304,2.3417,2.3606,2.3611,2.3993,2.4584,2.4584,2.4993,2.5594,2.5594,2.6004,2.6584,2.6584,2.7025,2.7591,2.7591,2.7591,2.7591,2.7606,2.7606,2.7606,2.7606,2.7606,2.7606,2.7606,2.7121,2.6443,2.5773,2.5119,2.444,2.3754,2.361,2.3595,2.3595,2.3595,2.3595,2.3595,2.3595,2.3405,2.2802,2.2152,2.1508,2.0925,2.0833,2.0578,1.9903,2.0338,2.0042,1.8365,1.91,1.9266,1.829,1.9831,2.0806,2.0791,2.0178,2.0101,2.0686,2.1225,2.1757,2.2282,2.2839,2.31,2.31,2.31,2.31,2.31,2.31,2.31,2.3125,2.3745,2.4297,2.4833,2.5385,2.5954,2.6508,2.6508,2.6508,2.6508,2.6508,2.6508,2.6508,2.4111,2.4478,2.4798,2.4798,2.5175,2.5465,2.5465,2.5465,2.5551,2.5754,2.5785,2.5714,2.5496,2.613,2.6562,2.6562,2.6754,2.6786,2.6578,2.6765,2.6786,2.6578,2.6562,2.6562,2.6562,2.6209,2.5894,2.567,2.5155,2.4558,2.3889,2.403,2.3877,2.3503,2.3503,2.3789,2.4281,2.4281,2.467,2.5283,2.5283,2.5678,2.6273,2.6273,2.6704,2.7279,2.7279,2.742,2.7606,2.7606,2.7606,2.7606,2.7606,2.7606,2.7606,2.7606,2.7606,2.7606,2.7606,2.7114,2.6443,2.5773,2.5104,2.4425,2.3754,2.3595,2.3595,2.3595,2.3595,2.3595,2.3595,2.3595,2.3535,2.3335,2.3128,2.293,2.2739,2.2346,2.1845,2.1173,2.0576,1.9829,1.8839,1.9033,1.9455,2.0002,2.0515,2.0602,2.0145,2.035,2.036,2.0094,2.1005,2.1575,2.1744,2.2651,2.31,2.31,2.31,2.31,2.31,2.31,2.31,2.3108,2.3296,2.3918,2.4808,2.498,2.5632,2.6508,2.6508,2.6508,2.6508,2.6508,2.6508,2.6508,2.3973,2.4526,2.4984,2.4984,2.5313,2.5603,2.5603,2.5603,2.5683,2.5944,2.5974,2.6078,2.6318,2.6947,2.7153,2.665,2.6832,2.6863,2.6619,2.6832,2.6857,2.6614,2.6598,2.6598,2.6598,2.6275,2.61,2.61,2.5633,2.5205,2.4788,2.4922,2.4745,2.4352,2.4352,2.4586,2.4984,2.4984,2.5358,2.5974,2.5974,2.6384,2.698,2.698,2.724,2.7606,2.7606,2.7606,2.7606,2.7606,2.7606,2.7606,2.7606,2.7606,2.7606,2.7606,2.7606,2.7606,2.7606,2.7114,2.6443,2.5773,2.5104,2.4425,2.3754,2.3595,2.3595,2.3595,2.3595,2.3595,2.3595,2.3595,2.353,2.3306,2.3268,2.3176,2.2924,2.2569,2.2174,2.1742,2.0865,2.0051,1.9405,1.932,1.9555,2.0134,2.0539,2.0473,1.9836,2.0445,2.0594,2.0157,2.101,2.1608,2.1802,2.2656,2.31,2.31,2.31,2.31,2.31,2.31,2.31,2.31,2.31,2.3634,2.4523,2.4729,2.5335,2.6176,2.6411,2.6508,2.6508,2.6508,2.6508,2.6508,2.4674,2.5208,2.5663,2.5663,2.5713,2.5743,2.5743,2.5743,2.5953,2.6584,2.6674,2.6914,2.7525,2.7606,2.7099,2.5848,2.6309,2.6399,2.5773,2.6318,2.6384,2.5773,2.5743,2.5743,2.5743,2.5743,2.5743,2.5743,2.5743,2.5713,2.5663,2.5663,2.5648,2.5603,2.5603,2.5624,2.5663,2.5663,2.6063,2.6674,2.6674,2.7039,2.7606,2.7606,2.7606,2.7606,2.7606,2.7606,2.7606,2.7606,2.7606,2.7606,2.7606,2.7606,2.7606,2.7606,2.7606,2.7606,2.7606,2.7114,2.6443,2.5773,2.5053,2.4365,2.3739,2.3595,2.3589,2.3546,2.3535,2.3535,2.3535,2.3503,2.3297,2.2773,2.2655,2.2417,2.1793,2.1655,2.1646,2.1646,2.1097,2.051,1.9943,1.9841,1.9608,1.9163,2.0109,2.0481,1.9951,2.0524,2.0815,2.0706,2.1263,2.1802,2.2302,2.2839,2.31,2.31,2.31,2.31,2.31,2.31,2.31,2.31,2.31,2.3441,2.4042,2.4578,2.5126,2.5657,2.6264,2.6508,2.6508,2.6508,2.6508,2.6508,2.5358,2.5893,2.6369,2.6369,2.6794,2.7136,2.7136,2.7136,2.7174,2.7345,2.736,2.742,2.7585,2.7606,2.7465,2.7144,2.7264,2.73,2.7144,2.7285,2.7285,2.7129,2.7136,2.7136,2.7136,2.7136,2.7136,2.7136,2.7136,2.6854,2.6369,2.6369,2.6093,2.5603,2.5603,2.5878,2.6369,2.6369,2.6749,2.736,2.736,2.7465,2.7606,2.7606,2.7606,2.7606,2.7606,2.7606,2.7606,2.7606,2.7606,2.7606,2.7606,2.7606,2.7606,2.7606,2.7606,2.7606,2.7606,2.7114,2.6443,2.5773,2.4711,2.3799,2.3645,2.3595,2.347,2.3004,2.2909,2.2909,2.2909,2.2486,2.2265,2.2643,2.2271,2.1881,2.1714,2.1299,2.1012,2.1011,2.0443,1.9982,1.984,1.9812,1.9965,2.0346,2.0624,2.0886,2.116,2.1321,2.1192,2.0718,2.1613,2.2176,2.2295,2.2839,2.31,2.31,2.31,2.31,2.31,2.31,2.31,2.31,2.31,2.3441,2.4042,2.4578,2.5126,2.5657,2.6264,2.6508,2.6508,2.6508,2.6508,2.6508,2.6063,2.6599,2.7054,2.7054,2.736,2.7606,2.7606,2.7606,2.7606,2.7606,2.7606,2.7606,2.7606,2.7606,2.7606,2.7606,2.7606,2.7606,2.7606,2.7606,2.7606,2.7606,2.7606,2.7606,2.7606,2.7606,2.7606,2.7606,2.7606,2.7405,2.7054,2.7054,2.6854,2.6503,2.6503,2.6719,2.7054,2.7054,2.727,2.7606,2.7606,2.7606,2.7606,2.7606,2.7606,2.7606,2.7606,2.7606,2.7606,2.7606,2.7606,2.7606,2.7606,2.7606,2.7606,2.7606,2.7606,2.7606,2.7606,2.7324,2.6905,2.6213,2.5055,2.3981,2.371,2.3413,2.3015,2.2374,2.2486,2.2694,2.2694,2.2626,2.2594,2.2689,2.2386,2.2059,2.1738,2.1412,2.1216,2.1216,2.0652,2.0264,2.0264,1.9978,1.9952,2.0321,2.0598,2.0875,2.1172,2.1648,2.1766,2.1446,2.1995,2.242,2.2664,2.295,2.31,2.31,2.31,2.31,2.31,2.31,2.31,2.31,2.31,2.3283,2.365,2.4478,2.4967,2.5322,2.6164,2.6508,2.6508,2.6508,2.6508,2.6508,2.6749,2.7204,2.7606,2.7606,2.7606,2.7606,2.7606,2.7606,2.7606,2.7606,2.7606,2.7606,2.7606,2.7606,2.7606,2.7606,2.7606,2.7606,2.7606,2.7606,2.7606,2.7606,2.7606,2.7606,2.7606,2.7606,2.7606,2.7606,2.7606,2.7606,2.7606,2.7606,2.7606,2.7606,2.7606,2.7606,2.7606,2.7606,2.7606,2.7606,2.7606,2.7606,2.7606,2.7606,2.7606,2.7606,2.7606,2.7606,2.7606,2.7606,2.7606,2.7606,2.7606,2.7606,2.7606,2.7606,2.7606,2.7606,2.7606,2.7441,2.7125,2.6442,2.5429,2.4415,2.3815,2.3314,2.2775,2.2009,2.2216,2.2558,2.2558,2.2815,2.2913,2.26,2.2389,2.2102,2.1627,2.1484,2.1405,2.1405,2.096,2.066,2.066,2.0137,1.9798,1.9798,2.0276,2.0641,2.0805,2.1689,2.2245,2.2427,2.242,2.2639,2.3095,2.31,2.31,2.31,2.31,2.31,2.31,2.31,2.31,2.31,2.31,2.31,2.3195,2.4332,2.4796,2.4909,2.6051,2.6508,2.6508,2.6508,2.6508,2.6508,2.745,2.7531,2.7606,2.7606,2.7606,2.7606,2.7606,2.7606,2.7606,2.7606,2.7606,2.7606,2.7606,2.7606,2.7606,2.7606,2.7606,2.7606,2.7606,2.7606,2.7606,2.7606,2.7606,2.7606,2.7606,2.7606,2.7606,2.7606,2.7606,2.7606,2.7606,2.7606,2.7606,2.7606,2.7606,2.7606,2.7606,2.7606,2.7606,2.7606,2.7606,2.7606,2.7606,2.7606,2.7606,2.7606,2.7606,2.7606,2.7606,2.7606,2.7606,2.7606,2.7606,2.7606,2.7606,2.7606,2.7606,2.7606,2.7606,2.6731,2.5645,2.4916,2.4628,2.4341,2.3683,2.3938,2.3978,2.2798,2.2176,2.1858,2.1858,2.1049,2.0713,2.1698,2.0953,2.0408,2.0869,2.0452,2.0093,2.0093,2.0004,1.9959,1.9959,1.9856,1.9798,1.9798,1.9886,2.0357,2.1319,2.1525,2.2046,2.2945,2.2982,2.302,2.31,2.31,2.31,2.31,2.31,2.31,2.31,2.31,2.31,2.31,2.31,2.31,2.3195,2.4332,2.4796,2.4909,2.6051,2.6508,2.6508,2.6508,2.6508,2.6508,2.7606,2.7606,2.7606,2.7606,2.7606,2.7606,2.7606,2.7606,2.7606,2.7606,2.7606,2.7606,2.7606,2.7606,2.7606,2.7606,2.7606,2.7606,2.7606,2.7606,2.7606,2.7606,2.7606,2.7606,2.7606,2.7606,2.7606,2.7606,2.7606,2.7606,2.7606,2.7606,2.7606,2.7606,2.7606,2.7606,2.7606,2.7606,2.7606,2.763,2.7998,2.7923,2.7645,2.7998,2.7908,2.7606,2.7606,2.7606,2.7606,2.7606,2.7606,2.7606,2.7606,2.7606,2.7606,2.7606,2.7606,2.7606,2.7606,2.7134,2.6545,2.621,2.5585,2.4787,2.3831,2.328,2.2629,2.1385,2.1186,2.1222,2.1222,2.1002,2.0997,2.156,2.0905,2.043,2.0707,2.0194,1.9798,1.9798,1.9798,1.9798,1.9798,1.9798,1.9798,1.9798,2.01,2.064,2.1457,2.1769,2.2282,2.3083,2.31,2.31,2.31,2.31,2.31,2.31,2.31,2.31,2.31,2.31,2.31,2.31,2.31,2.31,2.3195,2.4332,2.4796,2.4909,2.6051,2.6508,2.6508,2.6508,2.6508,2.6508,2.7575,2.7606,2.7606,2.7606,2.7606,2.7606,2.7606,2.7606,2.7606,2.7606,2.7606,2.7606,2.7606,2.7606,2.7606,2.7606,2.7606,2.7606,2.7606,2.7606,2.7606,2.7606,2.7606,2.7606,2.7606,2.7606,2.7606,2.7606,2.7606,2.7606,2.7606,2.7606,2.7606,2.76,2.7758,2.7833,2.7833,2.8004,2.8058,2.8109,2.8635,2.8515,2.8117,2.8635,2.8515,2.8015,2.769,2.758,2.7539,2.7194,2.7167,2.7274,2.7274,2.7274,2.7274,2.7274,2.719,2.7098,2.7098,2.7098,2.7,2.6638,2.5883,2.4938,2.3847,2.2906,2.191,2.0701,2.0834,2.1133,2.1001,2.1347,2.1634,2.1614,2.1138,2.0764,2.073,2.0198,1.9798,1.9798,1.9798,1.9798,1.9798,1.9798,1.9868,1.9993,2.044,2.0993,2.1651,2.2083,2.2558,2.3075,2.31,2.31,2.31,2.31,2.31,2.31,2.31,2.31,2.31,2.31,2.31,2.31,2.31,2.31,2.3195,2.4332,2.4796,2.4909,2.6051,2.6508,2.6508,2.6508,2.6508,2.6508,2.7473,2.7606,2.7606,2.7606,2.7606,2.7606,2.7606,2.7606,2.7606,2.7606,2.7606,2.7606,2.7606,2.7606,2.7606,2.7606,2.7606,2.7606,2.7606,2.7606,2.7606,2.7606,2.7606,2.7606,2.7606,2.7606,2.7606,2.7606,2.7606,2.7606,2.7606,2.7606,2.7606,2.7636,2.8246,2.8539,2.8562,2.9189,2.945,2.9465,2.951,2.9495,2.9465,2.951,2.9495,2.9273,2.7974,2.7518,2.7308,2.6,2.5897,2.6298,2.6298,2.6298,2.6298,2.6298,2.5952,2.5563,2.5563,2.5563,2.521,2.3791,2.3911,2.419,2.3496,2.3784,2.3851,2.2634,2.2328,2.2128,2.1628,2.1532,2.1534,2.1583,2.11,2.073,2.0784,2.022,1.9798,1.9798,1.9798,1.9798,1.9798,1.9798,2.0031,2.0591,2.0673,2.115,2.2189,2.2277,2.2558,2.3075,2.31,2.31,2.31,2.31,2.31,2.31,2.31,2.31,2.31,2.31,2.31,2.31,2.31,2.31,2.3195,2.4332,2.4796,2.4909,2.6051,2.6508,2.6508,2.6508,2.6508,2.6508,2.6182,2.6467,2.6573,2.6289,2.5958,2.5849,2.6174,2.6235,2.6235,2.6235,2.6628,2.6917,2.6917,2.7331,2.7606,2.7606,2.7606,2.7606,2.7606,2.7606,2.7606,2.7606,2.7606,2.7606,2.7606,2.7158,2.6917,2.6917,2.6455,2.6415,2.6731,2.6731,2.6909,2.7243,2.7485,2.762,2.762,2.7883,2.799,2.8075,2.9029,2.9163,2.8898,2.9819,2.9597,2.879,2.8797,2.8113,2.7184,2.7202,2.6972,2.6702,2.6702,2.6469,2.6133,2.5804,2.5556,2.5301,2.4844,2.5042,2.5266,2.4674,2.4416,2.4141,2.3513,2.3227,2.2872,2.2084,2.1881,2.1785,2.1575,2.1245,2.1118,2.1477,2.075,2.028,2.068,2.0199,1.9798,1.9798,1.9798,1.9798,1.9798,2.0138,2.0446,2.0686,2.1326,2.187,2.2277,2.2621,2.2895,2.3088,2.31,2.31,2.31,2.31,2.31,2.31,2.31,2.31,2.31,2.31,2.31,2.31,2.31,2.31,2.3195,2.4332,2.4796,2.4909,2.6051,2.6508,2.6508,2.6508,2.6508,2.6508,2.5349,2.5659,2.5789,2.546,2.5099,2.4986,2.5342,2.5398,2.5398,2.5398,2.5837,2.6149,2.6149,2.6615,2.6909,2.6909,2.6909,2.6909,2.6909,2.6909,2.7206,2.7889,2.8124,2.8124,2.7923,2.7363,2.6872,2.6504,2.6099,2.6003,2.6195,2.6366,2.6654,2.7017,2.7217,2.7307,2.7328,2.7536,2.7633,2.772,2.8786,2.8933,2.8636,2.9646,2.9399,2.8536,2.8706,2.7981,2.6998,2.7144,2.6914,2.656,2.656,2.6193,2.5654,2.5116,2.4822,2.4567,2.4067,2.4293,2.4682,2.4682,2.4301,2.3804,2.3401,2.2907,2.2395,2.1857,2.1889,2.1945,2.1782,2.1588,2.1457,2.1488,2.084,2.0345,2.0408,2.0056,1.9798,1.9798,1.9798,1.9874,2.0056,2.0465,2.0836,2.1175,2.1882,2.237,2.2538,2.2895,2.31,2.31,2.31,2.31,2.31,2.31,2.31,2.31,2.31,2.31,2.31,2.31,2.31,2.31,2.31,2.3208,2.3454,2.4415,2.4904,2.5151,2.6126,2.6508,2.6508,2.6508,2.6508,2.6508,2.5238,2.5377,2.5377,2.5377,2.5377,2.5377,2.5377,2.5377,2.5377,2.5377,2.5391,2.5391,2.5391,2.5398,2.5398,2.5398,2.5398,2.5398,2.5398,2.5412,2.6358,2.8498,2.9214,2.9259,2.8609,2.838,2.7687,2.6498,2.6824,2.6715,2.6215,2.6742,2.6995,2.703,2.7692,2.7982,2.8031,2.8693,2.8979,2.8979,2.8994,2.8994,2.8994,2.9002,2.9002,2.8801,2.7421,2.691,2.6679,2.5287,2.5163,2.5607,2.5607,2.5239,2.4683,2.4167,2.3567,2.31,2.31,2.31,2.31,2.31,2.31,2.31,2.31,2.31,2.2945,2.2427,2.2739,2.2945,2.2408,2.2739,2.2751,2.1676,2.1507,2.1098,1.9974,1.9811,1.9811,1.9798,1.9798,2.0043,2.0641,2.0711,2.115,2.2227,2.2295,2.2538,2.307,2.31,2.31,2.31,2.31,2.31,2.31,2.31,2.31,2.31,2.31,2.31,2.31,2.31,2.31,2.31,2.3093,2.3434,2.4034,2.4562,2.5089,2.564,2.6235,2.6482,2.6482,2.6482,2.6482,2.6482,2.3732,2.3791,2.3791,2.3791,2.3791,2.3791,2.3791,2.3791,2.3791,2.3791,2.4279,2.4631,2.4631,2.5084,2.5398,2.5398,2.5398,2.5398,2.5398,2.6185,2.6955,2.7591,2.7364,2.7117,2.6919,2.6729,2.6268,2.5523,2.5483,2.5566,2.5773,2.5941,2.6238,2.6654,2.6864,2.6959,2.6959,2.716,2.7255,2.7292,2.7855,2.8092,2.8157,2.8772,2.862,2.8114,2.8296,2.7619,2.6645,2.6785,2.658,2.6164,2.5732,2.5239,2.4683,2.4167,2.3567,2.31,2.31,2.31,2.31,2.31,2.31,2.31,2.31,2.31,2.305,2.2895,2.2995,2.305,2.2895,2.2689,2.2425,2.2114,2.1751,2.1256,2.0521,2.0427,2.0276,1.9849,2.0169,2.0503,2.0686,2.1382,2.1958,2.2277,2.2651,2.2932,2.3088,2.31,2.31,2.31,2.31,2.31,2.31,2.31,2.31,2.31,2.31,2.31,2.31,2.31,2.31,2.3078,2.2499,2.2512,2.2939,2.2866,2.3123,2.3616,2.4182,2.4397,2.4397,2.4397,2.4397,2.4397,2.31,2.31,2.31,2.31,2.31,2.31,2.31,2.31,2.31,2.31,2.3516,2.3839,2.3839,2.4228,2.4489,2.4489,2.4489,2.4582,2.4828,2.5317,2.5778,2.6228,2.5665,2.5727,2.6582,2.6404,2.5903,2.5097,2.5353,2.5519,2.5607,2.5833,2.6151,2.6508,2.6508,2.6508,2.6508,2.6508,2.6508,2.6538,2.7032,2.7229,2.7288,2.7819,2.7678,2.7284,2.7827,2.7359,2.6564,2.7066,2.6896,2.6445,2.6076,2.5423,2.4741,2.441,2.3738,2.31,2.31,2.31,2.31,2.31,2.31,2.31,2.31,2.31,2.31,2.31,2.31,2.31,2.31,2.2839,2.2558,2.2332,2.2033,2.1626,2.1087,2.1018,2.0879,2.0521,2.0791,2.1099,2.1306,2.192,2.2383,2.2601,2.292,2.31,2.31,2.28,2.2633,2.2633,2.2287,2.2106,2.2106,2.2106,2.2441,2.31,2.31,2.31,2.31,2.31,2.2929,2.261,2.2279,2.2196,2.2304,2.2271,2.2576,2.3057,2.3375,2.3496,2.3496,2.3496,2.3496,2.3496,2.31,2.31,2.31,2.31,2.31,2.31,2.31,2.31,2.31,2.31,2.31,2.31,2.31,2.31,2.31,2.31,2.31,2.3333,2.3883,2.3504,2.3717,2.4758,2.4385,2.5058,2.7008,2.688,2.6254,2.5142,2.6056,2.6214,2.5695,2.6248,2.6508,2.6508,2.6508,2.6508,2.6508,2.6508,2.6508,2.6508,2.6508,2.6508,2.6508,2.6508,2.6508,2.6508,2.6508,2.6508,2.6508,2.6508,2.6508,2.6508,2.6508,2.5753,2.4859,2.4808,2.4031,2.317,2.3113,2.31,2.31,2.31,2.31,2.31,2.31,2.31,2.31,2.31,2.31,2.31,2.31,2.31,2.2945,2.2458,2.237,2.2182,2.1658,2.1563,2.155,2.1507,2.1538,2.1757,2.2245,2.2274,2.2468,2.2952,2.2922,2.2884,2.2884,2.2179,2.1784,2.1784,2.1005,2.0598,2.0598,2.0598,2.1369,2.2884,2.2952,2.2944,2.2884,2.2952,2.2569,2.1855,2.2136,2.2137,2.1955,2.2313,2.2762,2.3239,2.3239,2.3239,2.3239,2.3239,2.3239,2.3239,2.31,2.31,2.31,2.31,2.31,2.31,2.31,2.31,2.31,2.31,2.31,2.31,2.31,2.31,2.31,2.31,2.31,2.3158,2.3283,2.4006,2.4545,2.4783,2.5088,2.5478,2.5934,2.5898,2.5741,2.5496,2.6173,2.6436,2.6311,2.6445,2.6508,2.6508,2.6508,2.6508,2.6508,2.6508,2.6508,2.6508,2.6508,2.6508,2.6508,2.6508,2.6508,2.6508,2.6508,2.6508,2.6508,2.6508,2.6508,2.6508,2.6508,2.6013,2.5339,2.4921,2.4327,2.37,2.3233,2.31,2.31,2.31,2.31,2.31,2.31,2.31,2.31,2.31,2.31,2.31,2.31,2.31,2.3058,2.2945,2.2932,2.2739,2.2194,2.2133,2.197,2.1557,2.187,2.2176,2.2282,2.2113,2.2028,2.2156,2.1538,2.114,2.114,2.0982,2.0878,2.0878,2.0703,2.0598,2.0598,2.0598,2.0782,2.1156,2.1827,2.1795,2.1172,2.1854,2.1859,2.1326,2.0721,2.0815,2.1334,2.0746,2.079,2.1222,2.1222,2.1222,2.1222,2.1222,2.1222,2.1222,2.3012,2.31,2.31,2.31,2.31,2.31,2.31,2.31,2.31,2.31,2.31,2.31,2.31,2.31,2.31,2.31,2.31,2.3333,2.388,2.4227,2.4649,2.5163,2.5214,2.5339,2.5586,2.5607,2.5607,2.5607,2.6201,2.6508,2.6508,2.6508,2.6508,2.6508,2.6508,2.6508,2.6508,2.6508,2.6508,2.6508,2.6508,2.6508,2.6508,2.6508,2.6508,2.6508,2.6508,2.6508,2.6508,2.6508,2.6508,2.6508,2.6508,2.6088,2.5485,2.4954,2.4415,2.3866,2.3258,2.31,2.31,2.31,2.31,2.31,2.31,2.31,2.31,2.31,2.31,2.31,2.31,2.31,2.2967,2.259,2.2529,2.2274,2.1588,2.1492,2.1377,2.1103,2.1313,2.1651,2.2076,2.161,2.1451,2.187,2.1085,2.0598,2.0598,2.0212,1.9977,1.9977,1.9579,1.9356,1.9356,1.9356,1.9356,1.9373,2.0663,2.1037,2.0626,2.1273,2.1211,2.0587,2.0537,2.0536,2.0566,2.0326,2.0381,2.0605,2.0605,2.0605,2.0605,2.0605,2.0605,2.0605,2.2545,2.2667,2.2667,2.2667,2.2667,2.2667,2.2667,2.2808,2.2891,2.2891,2.3005,2.31,2.31,2.3195,2.3208,2.3108,2.3283,2.3747,2.4603,2.4267,2.4424,2.5315,2.4863,2.4784,2.5228,2.5241,2.5413,2.5745,2.6252,2.6508,2.6508,2.6508,2.6508,2.6508,2.6508,2.6508,2.6508,2.6508,2.6508,2.6508,2.6508,2.6508,2.6508,2.6508,2.6508,2.6508,2.6508,2.6508,2.6508,2.6508,2.6508,2.6508,2.6508,2.6164,2.5644,2.5101,2.4561,2.3978,2.3228,2.2966,2.2861,2.2712,2.2667,2.2667,2.2667,2.2793,2.2854,2.2697,2.2667,2.2667,2.2667,2.2667,2.2448,2.1792,2.1682,2.1428,2.0703,2.0598,2.0598,2.0598,2.0598,2.0878,2.1608,2.0886,2.0679,2.1396,2.0647,2.0155,2.0155,1.9472,1.9085,1.9085,1.8388,1.7999,1.7999,1.7999,1.7999,1.8016,1.9464,2.0155,2.0166,2.066,2.048,1.9836,2.0563,2.0553,2.0049,2.0439,2.0605,2.0605,2.0605,2.0605,2.0605,2.0605,2.0605,2.0605,2.0918,2.0942,2.0942,2.0942,2.0942,2.0942,2.0942,2.1585,2.2056,2.2056,2.2667,2.31,2.31,2.3574,2.367,2.3145,2.3998,2.444,2.413,2.4152,2.4243,2.4383,2.3931,2.3711,2.3777,2.3777,2.4631,2.6382,2.6461,2.6508,2.6508,2.6508,2.6508,2.6508,2.6508,2.6508,2.6508,2.6508,2.6508,2.6508,2.6508,2.6508,2.6508,2.6508,2.6508,2.6508,2.6508,2.6508,2.6508,2.6508,2.6508,2.6508,2.6508,2.6436,2.626,2.567,2.5113,2.4413,2.3111,2.2423,2.1885,2.1124,2.0942,2.0942,2.0942,2.1522,2.1854,2.1093,2.0942,2.0942,2.0942,2.0942,2.0902,2.079,2.0774,2.0727,2.0614,2.0598,2.0598,2.0598,2.0598,2.0647,2.0759,1.9993,1.9521,1.9634,1.8846,1.8354,1.8354,1.8244,1.8186,1.8186,1.8059,1.7999,1.7999,1.7999,1.7999,1.7999,1.8244,1.8354,1.8388,1.9189,1.9493,1.9389,1.9508,1.9916,2.0507,2.0566,2.0605,2.0605,2.0605,2.0605,2.0605,2.0605,2.0605,2.0605,2.0502,2.0598,2.0598,2.0598,2.0598,2.0598,2.0598,2.0926,2.1164,2.1164,2.1479,2.1702,2.1702,2.2138,2.2244,2.1757,2.2605,2.3095,2.2901,2.3184,2.3497,2.3802,2.3611,2.3496,2.3496,2.3496,2.3936,2.482,2.482,2.482,2.482,2.482,2.482,2.482,2.482,2.482,2.482,2.482,2.5143,2.5652,2.5652,2.5999,2.6508,2.6508,2.6508,2.6426,2.5856,2.5297,2.482,2.482,2.482,2.482,2.482,2.482,2.4714,2.4148,2.3815,2.3372,2.2181,2.1694,2.1356,2.0746,2.0598,2.047,1.9977,2.0171,2.0478,2.0582,2.0598,2.0598,2.0598,2.0598,2.0438,1.9944,1.9871,1.9699,1.9226,1.9152,1.9152,1.9152,1.9152,1.934,1.9833,1.9085,1.8779,1.9268,1.8487,1.7999,1.7999,1.7999,1.7999,1.7999,1.7999,1.7999,1.7999,1.7999,1.7999,1.7999,1.8235,1.8342,1.836,1.9005,1.9308,1.9325,1.9814,1.997,1.9882,2.0117,2.0077,1.9872,1.9872,2.0009,2.0215,2.0215,2.0361,2.0605]}]]